Date StartTime U_cm/s V_cm/s W_cm/s Ustd_cm/s Vstd_cm/s Wstd_cm/s Uvar_(cm/s)^2 Vvar_(cm/s)^2 Wvar_(cm/s)^2 KE_(m/s)^2 TurbulentKE_(m/s)^2 HorizWindSpeed_cm/s FrictionSpeec_cm/s DragCoef SpeedOfSound_m/s SonicTemperature_C Pressure_mb 
06/20/2013  00:00:00     -133.544      135.936      -27.046       60.983       70.056       37.122     3718.965     4907.873     1378.067        2.352        0.500      190.558       41.850        0.048      339.652       13.129      861.066
06/20/2013  00:01:00     -147.308      174.625      -40.926       54.819       58.820       31.804     3005.133     3459.816     1011.479        3.067        0.374      228.459       29.059        0.016      339.642       13.113      861.067
06/20/2013  00:02:00     -139.607      134.644      -32.812       54.470       63.053       40.649     2967.031     3975.691     1652.325        2.364        0.430      193.957       41.736        0.046      339.678       13.174      861.068
06/20/2013  00:03:00     -114.415      133.403      -22.744       55.398       60.940       36.624     3068.941     3713.725     1341.339        1.976        0.406      175.748       32.017        0.033      339.662       13.147      861.053
06/20/2013  00:04:00     -102.144       92.998      -15.024       52.659       71.329       33.160     2772.935     5087.807     1099.576        1.413        0.448      138.138       31.470        0.052      339.737       13.275      861.029
06/20/2013  00:05:00     -150.387      100.994      -24.310       78.187       84.100       40.886     6113.260     7072.805     1671.647        2.413        0.743      181.152       40.103        0.049      339.818       13.411      861.024
06/20/2013  00:06:00      -99.317       73.754       -4.495       54.323       54.400       33.640     2951.011     2959.405     1131.620        1.118        0.352      123.707       15.500        0.016      339.737       13.276      861.009
06/20/2013  00:07:00      -79.538       41.452      -10.527       31.671       46.220       28.362     1003.048     2136.259      804.391        0.605        0.197       89.691       23.982        0.071      339.817       13.412      860.986
06/20/2013  00:08:00     -136.476       76.299      -25.313       62.372       63.982       34.617     3890.266     4093.688     1198.325        1.713        0.459      156.357       24.356        0.024      339.811       13.400      860.979
06/20/2013  00:09:00     -197.352       95.747      -34.531       91.577       85.472       50.459     8386.295     7305.436     2546.103        3.377        0.912      219.352       55.630        0.064      339.863       13.484      860.984
06/20/2013  00:10:00     -148.487       97.870      -22.266       63.546       52.687       35.159     4038.122     2775.909     1236.165        2.008        0.403      177.840       34.744        0.038      339.822       13.416      860.965
06/20/2013  00:11:00     -153.527      148.989      -32.089       91.264       65.031       42.342     8329.195     4229.015     1792.883        3.057        0.718      213.935       51.284        0.057      339.824       13.421      860.967
06/20/2013  00:12:00     -129.186      140.368      -20.367       56.569       56.882       40.230     3200.093     3235.603     1618.422        2.243        0.403      190.767       31.592        0.027      339.825       13.422      860.955
06/20/2013  00:13:00      -83.458      141.549      -16.482       59.382       74.486       28.259     3526.212     5548.179      798.575        1.857        0.494      164.321       31.793        0.037      339.775       13.338      860.971
06/20/2013  00:14:00     -124.702      197.498      -33.514       62.879       48.953       29.720     3953.784     2396.379      883.281        3.145        0.362      233.572       38.441        0.027      339.848       13.459      860.974
06/20/2013  00:15:00      -90.839      128.206      -21.022       46.653       52.999       28.585     2176.536     2808.896      817.113        1.547        0.290      157.125       24.903        0.025      339.794       13.371      860.968
06/20/2013  00:16:00      -59.099      118.335       -0.090       55.113       51.750       31.731     3037.484     2678.012     1006.869        1.211        0.336      132.272       25.627        0.038      339.766       13.323      860.980
06/20/2013  00:17:00     -121.692      204.649      -46.366       81.297       63.916       43.036     6609.190     4085.216     1852.098        3.569        0.627      238.097       33.027        0.019      339.922       13.583      860.982
06/20/2013  00:18:00      -99.405      174.344      -23.238       66.638       77.014       37.070     4440.664     5931.133     1374.208        2.628        0.587      200.692       28.930        0.021      339.849       13.462      860.980
06/20/2013  00:19:00     -165.083      157.605      -29.925       78.463       99.703       48.167     6156.454     9940.749     2320.077        3.570        0.921      228.236       50.719        0.049      339.790       13.361      860.994
06/20/2013  00:20:00     -129.566       66.162      -35.339       50.720       65.201       35.971     2572.480     4251.205     1293.934        1.526        0.406      145.481       22.482        0.024      339.790       13.365      860.999
06/20/2013  00:21:00      -58.638        3.252        2.073       45.176       32.093       37.292     2040.866     1029.966     1390.712        0.396        0.223       58.728       28.504        0.236      339.722       13.251      860.996
06/20/2013  00:22:00     -127.149       57.993      -20.433       65.463       68.187       38.604     4285.405     4649.512     1490.279        1.518        0.521      139.750       42.611        0.093      339.744       13.286      861.011
06/20/2013  00:23:00     -158.793       32.825      -17.734       51.603       85.738       39.314     2662.859     7350.931     1545.579        1.908        0.578      162.151       33.291        0.042      339.698       13.209      861.024
06/20/2013  00:24:00      -62.623       11.379      -10.996       38.372       42.438       22.300     1472.421     1800.989      497.287        0.397        0.189       63.649       17.881        0.079      339.655       13.138      861.043
06/20/2013  00:25:00      -58.737      -12.797        7.561       85.977       52.638       36.693     7392.020     2770.725     1346.362        0.759        0.575       60.115       47.102        0.614      339.637       13.107      861.050
06/20/2013  00:26:00     -137.646      -40.405       -7.617       88.644       42.618       26.131     7857.840     1816.301      682.851        1.549        0.518      143.454       29.184        0.041      339.608       13.056      861.078
06/20/2013  00:27:00      -93.650       -0.701      -21.139       49.158       57.041       21.582     2416.520     3253.708      465.786        0.768        0.307       93.652        8.542        0.008      339.584       13.018      861.097
06/20/2013  00:28:00      -87.685      -33.735      -13.949       61.430       46.302       23.680     3773.649     2143.858      560.741        0.775        0.324       93.951       20.360        0.047      339.549       12.959      861.108
06/20/2013  00:29:00      -87.014      -43.964       -8.874       35.128       33.821       21.081     1233.973     1143.882      444.404        0.620        0.141       97.490        6.967        0.005      339.554       12.968      861.098
06/20/2013  00:30:00     -116.862      -41.190      -11.939       51.392       40.646       20.067     2641.155     1652.076      402.670        1.010        0.235      123.909       12.513        0.010      339.524       12.916      861.098
06/20/2013  00:31:00      -88.139       38.683      -20.347       67.548       66.012       34.453     4562.762     4357.573     1187.023        0.989        0.505       96.254       30.708        0.102      339.611       13.064      861.071
06/20/2013  00:32:00      -73.725        0.604       -5.146       38.537       46.897       23.633     1485.089     2199.310      558.506        0.485        0.212       73.727       15.783        0.046      339.587       13.025      861.052
06/20/2013  00:33:00      -52.475       -8.524        4.211       36.297       32.643       21.747     1317.442     1065.588      472.919        0.285        0.143       53.163       18.044        0.115      339.578       13.007      861.042
06/20/2013  00:34:00      -58.243      -37.536       -0.074       54.168       31.381       20.398     2934.199      984.763      416.069        0.457        0.217       69.290       17.659        0.065      339.523       12.913      861.026
06/20/2013  00:35:00      -24.523      -16.938        9.242       42.454       31.470       25.827     1802.327      990.357      667.023        0.222        0.173       29.804       17.829        0.358      339.522       12.915      861.011
06/20/2013  00:36:00      -79.679      -32.923       -1.557       55.185       41.228       22.060     3045.391     1699.763      486.639        0.633        0.262       86.213       19.245        0.050      339.485       12.851      860.998
06/20/2013  00:37:00      -74.045      -34.095        4.000       34.398       32.310       22.321     1183.226     1043.966      498.244        0.469        0.136       81.517       20.006        0.060      339.532       12.930      860.974
06/20/2013  00:38:00     -121.352      -22.952       -9.278       64.271       39.361       24.366     4130.698     1549.322      593.720        1.081        0.314      123.504       29.654        0.058      339.523       12.914      860.945
06/20/2013  00:39:00     -118.902      -23.680       -2.658       54.112       51.826       28.322     2928.151     2685.980      802.133        1.056        0.321      121.237       26.350        0.047      339.435       12.765      860.921
06/20/2013  00:40:00     -129.611      -82.228        3.900       53.749       43.581       31.885     2888.948     1899.261     1016.660        1.469        0.290      153.494       30.519        0.040      339.428       12.753      860.901
06/20/2013  00:41:00     -181.183      -68.622       -1.723       57.388       50.405       33.609     3293.421     2540.684     1129.575        2.225        0.348      193.743       27.593        0.020      339.549       12.956      860.876
06/20/2013  00:42:00     -223.153      -75.752       -5.277       59.886       63.009       32.532     3586.362     3970.157     1058.345        3.209        0.431      235.660       28.367        0.014      339.609       13.057      860.863
06/20/2013  00:43:00     -260.799     -115.450      -16.908       73.771       66.365       41.877     5442.094     4404.340     1753.665        4.661        0.580      285.210       33.135        0.013      339.733       13.266      860.850
06/20/2013  00:44:00     -243.981      -59.700      -11.469       84.807       61.672       44.615     7192.193     3803.433     1990.490        3.810        0.649      251.179       50.972        0.041      339.706       13.220      860.855
06/20/2013  00:45:00     -266.259      -42.908      -17.385       87.847       59.351       40.747     7717.029     3522.565     1660.292        4.297        0.645      269.694       43.285        0.026      339.672       13.163      860.864
06/20/2013  00:46:00      -95.990      -12.767       -9.246       48.533       63.924       29.576     2355.484     4086.219      874.713        0.839        0.366       96.836       22.267        0.053      339.564       12.982      860.886
06/20/2013  00:47:00      -57.326      -27.383        7.689       54.647       50.362       36.190     2986.308     2536.327     1309.691        0.546        0.342       63.530       29.716        0.219      339.513       12.899      860.891
06/20/2013  00:48:00     -126.051       -1.068       -9.493       55.394       48.968       24.859     3068.497     2397.846      617.988        1.103        0.304      126.056       27.921        0.049      339.559       12.975      860.898
06/20/2013  00:49:00     -166.426       -3.065      -12.187       62.814       48.338       34.944     3945.596     2336.569     1221.077        1.768        0.375      166.454       32.718        0.039      339.485       12.849      860.884
06/20/2013  00:50:00     -212.669      -51.149      -23.379       60.266       59.865       28.194     3632.002     3583.831      794.891        2.820        0.401      218.733       23.816        0.012      339.564       12.980      860.872
06/20/2013  00:51:00     -205.743      -29.275      -26.778       55.702       47.607       20.996     3102.728     2266.472      440.828        2.486        0.291      207.815       16.623        0.006      339.633       13.097      860.860
06/20/2013  00:52:00     -134.511      -41.150      -12.255       53.755       37.077       23.148     2889.604     1374.723      535.852        1.237        0.240      140.665       27.509        0.038      339.577       13.005      860.866
06/20/2013  00:53:00     -138.020      -78.885      -17.058       47.814       40.518       23.290     2286.146     1641.713      542.428        1.502        0.224      158.973       18.761        0.014      339.514       12.899      860.865
06/20/2013  00:54:00     -140.139      -34.638        2.007       60.539       52.944       32.064     3665.006     2803.104     1028.103        1.417        0.375      144.356       35.312        0.060      339.301       12.540      860.861
06/20/2013  00:55:00     -162.525      -22.609      -15.435       36.952       48.866       23.278     1365.417     2387.912      541.854        1.573        0.215      164.090       14.481        0.008      339.300       12.539      860.852
06/20/2013  00:56:00     -147.164      -19.276       -5.546       53.413       45.127       29.262     2852.913     2036.480      856.289        1.390        0.287      148.421       29.599        0.040      339.216       12.396      860.847
06/20/2013  00:57:00      -87.425       -4.723       -3.682       48.288       38.586       28.425     2331.722     1488.910      807.991        0.615        0.231       87.553       27.831        0.101      339.217       12.399      860.845
06/20/2013  00:58:00      -73.301       46.790       -9.723       31.320       47.090       22.389      980.951     2217.459      501.259        0.568        0.185       86.962       22.685        0.068      339.191       12.356      860.841
06/20/2013  00:59:00      -73.847       83.600      -16.694       33.536       39.147       25.761     1124.662     1532.472      663.639        0.802        0.166      111.545       21.085        0.036      339.206       12.380      860.840
06/20/2013  01:00:00     -115.872      114.926      -32.618       41.747       44.812       25.351     1742.829     2008.111      642.648        1.605        0.220      163.200       28.770        0.031      339.221       12.405      860.848
06/20/2013  01:01:00     -117.826       97.561      -29.424       31.007       42.565       19.785      961.422     1811.789      391.430        1.372        0.158      152.974       18.921        0.015      339.191       12.354      860.867
06/20/2013  01:02:00      -87.713       36.104      -10.220       23.987       18.986       13.930      575.395      360.459      194.047        0.512        0.056       94.853        9.702        0.010      339.197       12.365      860.868
06/20/2013  01:03:00      -75.106       88.400      -16.881       20.905       21.709       15.662      437.028      471.290      245.307        0.745        0.058      115.998       12.187        0.011      339.153       12.292      860.873
06/20/2013  01:04:00      -71.156       76.277      -16.844       37.077       35.993       22.561     1374.737     1295.479      509.012        0.717        0.159      104.314       24.662        0.056      339.136       12.263      860.871
06/20/2013  01:05:00      -85.574       72.565      -20.832       32.957       24.197       15.029     1086.132      585.514      225.885        0.746        0.095      112.199       13.770        0.015      339.179       12.336      860.871
06/20/2013  01:06:00      -41.791       68.931      -10.961       33.151       29.510       17.294     1099.006      870.865      299.072        0.444        0.113       80.610       17.050        0.045      339.094       12.193      860.869
06/20/2013  01:07:00      -83.132       66.970      -15.326       34.610       28.442       19.261     1197.849      808.946      370.974        0.700        0.119      106.752       11.152        0.011      339.142       12.273      860.881
06/20/2013  01:08:00      -73.539       80.351      -14.661       35.681       36.428       22.949     1273.164     1327.027      526.677        0.760        0.156      108.923       22.000        0.041      339.167       12.314      860.877
06/20/2013  01:09:00      -63.116       97.843      -18.096       40.105       28.493       16.941     1608.415      811.868      287.012        0.830        0.135      116.434       19.880        0.029      339.201       12.373      860.867
06/20/2013  01:10:00      -36.730      137.112      -16.911       30.001       50.602       20.334      900.090     2560.604      413.486        1.215        0.194      141.947       18.053        0.016      339.168       12.317      860.854
06/20/2013  01:11:00      -78.521       79.323      -13.140       37.938       73.570       26.842     1439.312     5412.503      720.484        1.010        0.379      111.614       19.173        0.030      339.175       12.328      860.861
06/20/2013  01:12:00      -92.991       25.065      -11.638       22.587       22.926       17.534      510.189      525.611      307.441        0.538        0.067       96.310       10.628        0.012      339.194       12.360      860.866
06/20/2013  01:13:00      -98.368       55.208      -15.702       34.530       31.333       25.904     1192.317      981.737      670.999        0.791        0.142      112.801       26.982        0.057      339.116       12.228      860.881
06/20/2013  01:14:00      -76.751       68.083       -9.762       27.675       47.585       20.769      765.909     2264.367      431.348        0.704        0.173      102.597       18.086        0.031      339.085       12.175      860.885
06/20/2013  01:15:00     -103.408       88.766      -17.435       31.324       55.888       24.151      981.167     3123.456      583.267        1.178        0.234      136.281       17.336        0.016      339.095       12.193      860.885
06/20/2013  01:16:00     -118.322       94.386      -24.096       29.012       39.585       23.383      841.674     1566.964      546.762        1.322        0.148      151.356       17.558        0.013      339.165       12.311      860.885
06/20/2013  01:17:00     -102.002       93.757      -21.373       33.970       58.016       26.118     1153.973     3365.910      682.132        1.243        0.260      138.545       26.993        0.038      339.253       12.459      860.883
06/20/2013  01:18:00      -82.479       79.152      -17.189       31.906       40.569       18.292     1017.971     1645.878      334.597        0.818        0.150      114.315       13.025        0.013      339.194       12.359      860.882
06/20/2013  01:19:00      -72.072       97.404       -9.528       27.260       56.184       20.312      743.120     3156.637      412.565        0.954        0.216      121.169       20.302        0.028      339.172       12.322      860.888
06/20/2013  01:20:00      -85.740       97.404      -19.109       33.537       34.928       21.810     1124.702     1219.968      475.688        1.001        0.141      129.764       17.676        0.019      339.169       12.318      860.890
06/20/2013  01:21:00      -81.113      124.510      -20.228       58.728       66.864       43.074     3448.996     4470.788     1855.334        1.613        0.489      148.600       41.627        0.078      338.987       12.012      860.891
06/20/2013  01:22:00      -68.134       81.858       -6.965       40.851       40.064       32.000     1668.766     1605.156     1024.001        0.784        0.215      106.503       23.473        0.049      339.029       12.084      860.887
06/20/2013  01:23:00      -67.556      151.338      -29.681       61.781       61.050       28.019     3816.948     3727.070      785.048        1.834        0.416      165.732       22.695        0.019      338.977       11.994      860.901
06/20/2013  01:24:00      -20.902       93.153       -1.655       31.010       56.833       22.944      961.642     3230.046      526.418        0.692        0.236       95.469       20.660        0.047      338.910       11.882      860.907
06/20/2013  01:25:00      -55.656      130.966      -13.525       69.251       57.286       42.074     4795.736     3281.657     1770.203        1.514        0.492      142.302       26.718        0.035      338.836       11.758      860.914
06/20/2013  01:26:00      -75.295      102.148      -10.374       53.835       60.829       43.024     2898.183     3700.130     1851.042        1.233        0.422      126.899       42.078        0.110      338.790       11.680      860.942
06/20/2013  01:27:00      -96.351      150.911      -23.498       71.204       84.101       40.491     5070.012     7072.908     1639.495        2.319        0.689      179.047       33.286        0.035      338.839       11.761      860.967
06/20/2013  01:28:00      -80.526      236.171      -21.037       58.047       83.946       46.803     3369.511     7046.962     2190.513        3.765        0.630      249.521       28.583        0.013      338.794       11.684      860.967
06/20/2013  01:29:00     -120.229      192.294      -27.597       55.585       92.328       46.555     3089.684     8524.371     2167.383        3.298        0.689      226.786       43.613        0.037      338.773       11.651      860.969
06/20/2013  01:30:00      -77.486      139.065      -11.597       45.659       76.684       37.430     2084.773     5880.432     1401.040        1.742        0.468      159.196       34.168        0.046      338.746       11.605      861.001
06/20/2013  01:31:00      -36.483      148.802      -10.649       67.816       89.926       40.688     4599.014     8086.694     1655.531        1.896        0.717      153.210       39.546        0.067      338.753       11.617      861.005
06/20/2013  01:32:00      -71.791       79.481       -7.468       53.870       67.360       36.673     2901.965     4537.405     1344.889        1.015        0.439      107.104       33.636        0.099      338.737       11.593      861.014
06/20/2013  01:33:00      -78.435      121.656       -8.293       74.458       66.184       37.099     5543.936     4380.293     1376.350        1.616        0.565      144.749       44.523        0.095      338.683       11.501      861.028
06/20/2013  01:34:00      -73.631      131.482      -14.346       57.333       79.719       34.209     3287.065     6355.113     1170.230        1.686        0.541      150.695       37.578        0.062      338.674       11.485      861.052
06/20/2013  01:35:00     -100.060      221.531      -24.734       72.265       76.927       44.310     5222.291     5917.690     1963.386        3.640        0.655      243.080       39.978        0.027      338.729       11.575      861.044
06/20/2013  01:36:00      -47.732      241.798      -22.542       64.117       73.335       42.857     4110.969     5377.979     1836.719        3.629        0.566      246.464       40.808        0.027      338.707       11.538      861.035
06/20/2013  01:37:00     -164.543      215.088      -35.404       76.945       68.876       54.879     5920.590     4743.952     3011.677        4.413        0.684      270.809       40.925        0.023      338.760       11.626      861.039
06/20/2013  01:38:00     -143.098      163.888      -38.036       61.368       45.930       28.979     3765.995     2109.525      839.789        2.775        0.336      217.569       25.281        0.014      338.710       11.544      861.025
06/20/2013  01:39:00      -36.542      133.217      -15.257       54.345       65.844       26.994     2953.364     4335.407      728.678        1.366        0.401      138.138       24.223        0.031      338.681       11.498      861.022
06/20/2013  01:40:00      -80.877       99.676      -15.127       44.795       52.727       28.841     2006.627     2780.139      831.828        1.116        0.281      128.361       31.171        0.059      338.694       11.520      861.022
06/20/2013  01:41:00       20.068       58.636       11.836       41.353       45.771       27.826     1710.081     2095.014      774.284        0.428        0.229       61.975       28.412        0.210      338.640       11.428      860.993
06/20/2013  01:42:00        2.828      193.120      -13.570       75.112      128.261       48.936     5641.879    16450.825     2394.771        3.098        1.224      193.140       58.333        0.091      338.653       11.448      860.991
06/20/2013  01:43:00      -26.051      110.215        2.662       79.185       91.678       54.852     6270.234     8404.770     3008.709        1.525        0.884      113.252       33.596        0.088      338.655       11.454      860.988
06/20/2013  01:44:00      -79.513      196.857      -21.202       44.448       63.837       32.344     1975.616     4075.192     1046.116        2.631        0.355      212.309       28.765        0.018      338.675       11.485      861.001
06/20/2013  01:45:00        8.076      195.332      -25.500       59.441       53.420       25.736     3533.282     2853.717      662.337        2.296        0.352      195.499       17.979        0.008      338.656       11.453      860.995
06/20/2013  01:46:00       70.816       82.601       -8.458       64.068       59.909       35.174     4104.717     3589.089     1237.213        1.042        0.447      108.802       36.170        0.111      338.604       11.367      860.975
06/20/2013  01:47:00       42.009      138.934      -16.154       52.486       92.928       37.836     2754.785     8635.639     1431.587        1.707        0.641      145.146       43.475        0.090      338.571       11.312      860.964
06/20/2013  01:48:00       30.671      185.557      -20.166       52.157       65.552       39.726     2720.351     4297.068     1578.120        2.219        0.430      188.075       36.959        0.039      338.563       11.298      860.971
06/20/2013  01:49:00       50.688      105.265        7.161       53.111       87.434       49.003     2820.817     7644.756     2401.274        1.328        0.643      116.833       54.174        0.215      338.530       11.243      860.971
06/20/2013  01:50:00       79.994       77.547       18.497       55.540       58.038       50.051     3084.642     3368.370     2505.112        1.085        0.448      111.412       39.016        0.123      338.553       11.283      860.966
06/20/2013  01:51:00       45.009       87.140       10.398       65.045       67.878       51.286     4230.883     4607.477     2630.218        1.060        0.573       98.077       48.394        0.243      338.525       11.235      860.962
06/20/2013  01:52:00       39.746       79.253       -1.036       43.323       61.110       45.271     1876.870     3734.441     2049.446        0.776        0.383       88.661       34.486        0.151      338.551       11.280      860.984
06/20/2013  01:53:00       25.901       88.954       -1.796       40.335       51.767       37.323     1626.929     2679.785     1393.024        0.714        0.285       92.648       30.044        0.105      338.535       11.253      860.993
06/20/2013  01:54:00       12.699      110.711      -11.784       49.126       69.043       30.966     2413.339     4766.948      958.920        1.035        0.407      111.437       36.219        0.106      338.565       11.303      860.988
06/20/2013  01:55:00      -13.395      135.877      -11.806       29.480       46.340       25.437      869.064     2147.427      647.046        1.122        0.183      136.536       13.032        0.009      338.592       11.348      860.983
06/20/2013  01:56:00       -5.640       74.069      -10.469       30.145       27.457       19.320      908.700      753.908      373.281        0.383        0.102       74.283       12.131        0.027      338.547       11.272      860.979
06/20/2013  01:57:00      -25.528      127.647      -17.569       30.500       44.638       18.956      930.271     1992.583      359.346        1.027        0.164      130.174       12.164        0.009      338.629       11.410      860.994
06/20/2013  01:58:00      -16.106      136.099      -13.517       34.582       48.930       22.398     1195.942     2394.135      501.676        1.153        0.205      137.049       24.490        0.032      338.696       11.523      861.003
06/20/2013  01:59:00        9.559      131.302      -13.423       24.933       37.389       21.097      621.677     1397.912      445.098        0.999        0.123      131.649       19.330        0.022      338.730       11.579      861.001
06/20/2013  02:00:00       91.575      131.509        0.940       79.635       71.084       36.650     6341.765     5052.898     1343.210        1.921        0.637      160.252       44.849        0.078      338.772       11.649      860.990
06/20/2013  02:01:00       85.608       72.188        8.684       45.028       32.022       42.258     2027.544     1025.401     1785.711        0.873        0.242      111.982       17.611        0.025      338.642       11.432      860.988
06/20/2013  02:02:00      138.045      104.332        7.451       51.827       44.067       40.962     2686.013     1941.877     1677.856        1.815        0.315      173.037       27.848        0.026      338.739       11.595      860.984
06/20/2013  02:03:00       94.416       68.956        4.639       50.824       41.242       37.138     2583.126     1700.913     1379.229        0.968        0.283      116.916       30.886        0.070      338.660       11.461      860.984
06/20/2013  02:04:00       53.074      125.212        0.705       54.106       87.617       52.106     2927.511     7676.758     2715.083        1.590        0.666      135.996       51.744        0.145      338.657       11.457      860.976
06/20/2013  02:05:00      -15.695      229.233      -21.928       43.566       58.945       33.974     1898.001     3474.533     1154.246        2.990        0.326      229.770       30.518        0.018      338.806       11.706      860.972
06/20/2013  02:06:00       66.369      111.047        6.347      110.617      107.353       66.442    12236.141    11524.672     4414.544        2.247        1.409      129.369       54.572        0.178      338.801       11.698      860.952
06/20/2013  02:07:00       50.589      156.432       -8.167       65.606       80.377       53.744     4304.130     6460.483     2888.449        2.037        0.683      164.409       49.564        0.091      338.864       11.802      860.948
06/20/2013  02:08:00       30.973      145.112      -10.268       53.439       55.017       46.678     2855.725     3026.898     2178.848        1.509        0.403      148.381       38.813        0.068      338.899       11.865      860.953
06/20/2013  02:09:00      -15.685      122.045      -20.162       40.035       44.276       23.734     1602.832     1960.371      563.305        0.984        0.206      123.049       21.676        0.031      338.826       11.742      860.953
06/20/2013  02:10:00      -11.287       95.369       -4.386       29.067       37.370       19.077      844.890     1396.517      363.929        0.592        0.130       96.034       16.626        0.030      338.780       11.665      860.969
06/20/2013  02:11:00      -41.040       63.520       -1.006       41.992       42.833       27.688     1763.339     1834.677      766.627        0.504        0.218       75.625       24.619        0.106      338.769       11.646      860.990
06/20/2013  02:12:00      -19.103      144.498      -12.588       33.765       56.771       30.064     1140.088     3222.947      903.861        1.333        0.263      145.755       25.978        0.032      338.758       11.627      860.988
06/20/2013  02:13:00      -19.890      275.026      -32.050       56.780       75.315       37.706     3223.960     5672.275     1421.720        4.369        0.516      275.744       31.356        0.013      338.735       11.585      860.987
06/20/2013  02:14:00     -103.303      239.701      -39.149       54.429       87.462       31.225     2962.533     7649.594      974.983        4.062        0.579      261.013       27.173        0.011      338.757       11.622      860.992
06/20/2013  02:15:00      -61.080      190.565      -14.301       55.959       93.935       28.234     3131.411     8823.789      797.151        2.650        0.638      200.114       35.665        0.032      338.738       11.593      860.988
06/20/2013  02:16:00      -98.777      182.305      -22.539       54.317       62.183       33.652     2950.360     3866.784     1132.432        2.572        0.397      207.346       37.385        0.033      338.663       11.464      860.987
06/20/2013  02:17:00      -54.527      218.283      -24.564       52.603       95.885       31.821     2767.028     9193.920     1012.573        3.210        0.649      224.990       35.437        0.025      338.682       11.498      861.007
06/20/2013  02:18:00     -130.985      252.336      -33.981       79.077       64.843       37.904     6253.249     4204.636     1436.705        4.694        0.595      284.307       38.366        0.018      338.616       11.385      861.005
06/20/2013  02:19:00     -136.417      138.900      -35.680       66.956       87.921       37.256     4483.119     7730.150     1387.975        2.639        0.680      194.687       41.509        0.045      338.646       11.435      861.013
06/20/2013  02:20:00      -87.566       76.790      -23.589       45.096       48.066       29.303     2033.684     2310.314      858.669        0.966        0.260      116.467       23.781        0.042      338.593       11.350      861.006
06/20/2013  02:21:00      -60.268      161.241      -18.603       56.008       58.454       26.875     3136.944     3416.815      722.272        1.863        0.364      172.136       27.455        0.025      338.579       11.326      861.006
06/20/2013  02:22:00      -94.302       91.428      -16.591       56.351       88.310       28.661     3175.447     7798.700      821.448        1.466        0.590      131.347       22.335        0.029      338.630       11.412      861.017
06/20/2013  02:23:00      -94.446       98.605      -25.061       34.986       70.166       27.919     1224.029     4923.328      779.496        1.310        0.346      136.539       20.913        0.023      338.588       11.343      861.013
06/20/2013  02:24:00      -85.556      252.296      -28.348       55.052       98.397       33.115     3030.678     9681.895     1096.591        4.279        0.690      266.408       30.288        0.013      338.515       11.217      861.006
06/20/2013  02:25:00      -89.696      201.184      -17.274       58.437       60.727       36.717     3414.836     3687.796     1348.113        2.863        0.423      220.273       29.479        0.018      338.455       11.114      860.990
06/20/2013  02:26:00     -120.065      175.965      -27.779       44.806       37.817       23.279     2007.594     1430.107      541.935        2.506        0.199      213.025       16.338        0.006      338.472       11.144      860.992
06/20/2013  02:27:00      -92.795      131.823      -21.557       44.920       43.590       32.609     2017.825     1900.118     1063.359        1.572        0.249      161.208       28.894        0.032      338.453       11.114      860.983
06/20/2013  02:28:00     -112.278       68.409      -14.908       44.830       41.269       26.218     2009.744     1703.103      687.409        1.095        0.220      131.477       21.893        0.028      338.445       11.101      860.969
06/20/2013  02:29:00     -169.248      172.874      -39.991       55.875       85.187       44.641     3122.013     7256.878     1992.854        3.625        0.619      241.931       48.261        0.040      338.372       10.977      860.978
06/20/2013  02:30:00     -137.738      161.074      -36.598       60.006       67.298       31.861     3600.684     4529.037     1015.129        2.770        0.457      211.935       35.103        0.027      338.325       10.898      860.979
06/20/2013  02:31:00      -98.212      149.927      -26.932       51.155       65.411       35.334     2616.872     4278.595     1248.519        2.049        0.407      179.230       23.510        0.017      338.310       10.874      860.965
06/20/2013  02:32:00      -99.758       99.897      -23.845       42.458       66.267       33.000     1802.723     4391.307     1088.990        1.389        0.364      141.177       32.448        0.053      338.312       10.878      860.956
06/20/2013  02:33:00     -164.227      150.034      -35.382       58.580       72.690       34.773     3431.647     5283.764     1209.157        3.033        0.496      222.443       44.165        0.039      338.299       10.853      860.963
06/20/2013  02:34:00     -122.807      198.974      -28.957       45.334       51.221       37.787     2055.131     2623.577     1427.863        3.081        0.305      233.821       34.206        0.021      338.246       10.763      860.968
06/20/2013  02:35:00     -132.638      154.653      -32.984       55.233       58.616       35.038     3050.726     3435.802     1227.640        2.515        0.386      203.741       26.755        0.017      338.238       10.751      860.973
06/20/2013  02:36:00     -117.830      142.018      -19.552       55.078       75.284       33.528     3033.534     5667.655     1124.106        2.213        0.491      184.535       37.285        0.041      338.221       10.725      860.972
06/20/2013  02:37:00      -91.803       82.925      -15.129       56.065       56.013       36.827     3143.285     3137.452     1356.262        1.158        0.382      123.710       29.175        0.056      338.273       10.812      860.980
06/20/2013  02:38:00      -60.134      -32.227        1.088       54.184       57.713       35.184     2935.905     3330.753     1237.913        0.608        0.375       68.225       34.150        0.251      338.301       10.860      860.982
06/20/2013  02:39:00      -41.599       25.868       -1.242       36.372       46.015       27.427     1322.897     2117.377      752.256        0.330        0.210       48.986       25.053        0.262      338.301       10.859      860.999
06/20/2013  02:40:00     -126.148       51.430      -20.538       61.370       61.943       28.080     3766.300     3836.938      788.459        1.368        0.420      136.229       31.287        0.053      338.280       10.824      861.020
06/20/2013  02:41:00      -94.411       43.341       -3.005       60.070       32.034       28.792     3608.438     1026.147      828.990        0.813        0.273      103.885       24.941        0.058      338.201       10.691      861.035
06/20/2013  02:42:00     -108.483       75.737      -18.598       31.949       32.652       27.746     1020.726     1066.124      769.857        1.035        0.143      132.305       19.435        0.022      338.229       10.740      861.058
06/20/2013  02:43:00      -85.113       -0.153        3.058       61.430       31.089       27.136     3773.659      966.520      736.352        0.636        0.274       85.113       29.675        0.122      338.208       10.703      861.070
06/20/2013  02:44:00      -64.019       76.299      -25.279       54.956       65.432       29.854     3020.150     4281.367      891.273        0.937        0.410       99.599       34.179        0.118      338.246       10.767      861.069
06/20/2013  02:45:00      -19.518      -13.422        8.964       49.089       37.976       26.321     2409.691     1442.169      692.771        0.259        0.227       23.687       26.709        1.271      338.164       10.629      861.073
06/20/2013  02:46:00      -95.252      -27.455       -1.628       39.636       65.497       29.173     1571.008     4289.915      851.091        0.827        0.336       99.130        7.871        0.006      338.150       10.605      861.077
06/20/2013  02:47:00     -127.461      -51.600       -7.736       42.067       22.991       23.539     1769.609      528.569      554.080        1.091        0.143      137.510       16.692        0.015      338.105       10.531      861.063
06/20/2013  02:48:00      -29.733        3.708        2.609       26.247       27.234       16.990      688.916      741.716      288.662        0.131        0.086       29.963       10.931        0.133      338.082       10.491      861.045
06/20/2013  02:49:00      -55.567      -42.049        5.872       48.431       32.051       25.000     2345.528     1027.288      625.023        0.444        0.200       69.683       21.264        0.093      338.157       10.618      861.033
06/20/2013  02:50:00      -98.401      -42.612       -4.751       42.471       33.042       21.394     1803.777     1091.798      457.687        0.744        0.168      107.231       17.461        0.027      337.961       10.289      861.030
06/20/2013  02:51:00      -61.854      -25.948       -7.459       57.020       36.981       24.999     3251.325     1367.558      624.961        0.490        0.262       67.076       20.899        0.097      337.941       10.256      861.020
06/20/2013  02:52:00     -135.044      -25.766       -4.255       46.788       42.454       26.538     2189.085     1802.335      704.246        1.181        0.235      137.480       25.043        0.033      337.816       10.046      861.004
06/20/2013  02:53:00     -133.026      -13.826       -3.999       57.182       53.351       30.254     3269.799     2846.282      915.326        1.247        0.352      133.743       31.250        0.055      337.787        9.997      860.992
06/20/2013  02:54:00     -123.758      -33.968      -12.204       22.941       29.328       20.311      526.310      860.116      412.519        0.921        0.090      128.335       11.559        0.008      337.863       10.127      860.992
06/20/2013  02:55:00     -114.972      -18.595      -19.998       45.671       45.039       25.271     2085.822     2028.509      638.628        0.936        0.238      116.466       21.121        0.033      337.899       10.185      860.981
06/20/2013  02:56:00      -73.693      -12.963       -1.074       60.619       39.660       29.276     3674.683     1572.919      857.080        0.585        0.305       74.824       33.063        0.195      337.920       10.220      860.970
06/20/2013  02:57:00      -96.787      -40.892      -16.497       31.421       35.274       22.200      987.260     1244.248      492.825        0.702        0.136      105.071       17.588        0.028      337.901       10.187      860.971
06/20/2013  02:58:00      -62.344      -15.026      -11.843       27.999       39.560       25.507      783.942     1565.018      650.603        0.363        0.150       64.129       16.168        0.064      337.945       10.263      860.969
06/20/2013  02:59:00     -134.163       12.360      -12.770       51.519       50.655       28.669     2654.181     2565.933      821.937        1.218        0.302      134.731       22.735        0.028      337.997       10.348      860.961
06/20/2013  03:00:00     -113.397        4.815      -14.949       37.626       29.994       17.895     1415.715      899.635      320.245        0.787        0.132      113.499       14.294        0.016      337.944       10.261      860.952
06/20/2013  03:01:00      -95.816        9.286       -2.346       40.674       32.360       25.196     1654.395     1047.197      634.831        0.630        0.167       96.265       24.748        0.066      337.944       10.260      860.949
06/20/2013  03:02:00     -114.558       59.246      -13.637       30.252       37.278       19.308      915.206     1389.619      372.801        0.975        0.134      128.972        8.229        0.004      337.959       10.285      860.953
06/20/2013  03:03:00      -71.782       48.117       -4.818       44.677       48.049       27.133     1996.010     2308.659      736.213        0.627        0.252       86.417       20.087        0.054      337.916       10.214      860.955
06/20/2013  03:04:00     -107.186       64.528      -11.888       35.253       46.371       27.274     1242.795     2150.272      743.852        0.996        0.207      125.111       14.700        0.014      337.998       10.352      860.971
06/20/2013  03:05:00     -146.993       53.444      -19.178       77.541       33.386       28.689     6012.554     1114.631      823.078        1.639        0.398      156.407       27.803        0.032      338.058       10.450      860.981
06/20/2013  03:06:00     -131.149       45.594      -24.031       46.339       59.458       23.413     2147.293     3535.208      548.167        1.304        0.312      138.848       12.241        0.008      338.052       10.442      860.969
06/20/2013  03:07:00      -97.697       69.114      -23.456       42.078       45.432       28.385     1770.592     2064.048      805.701        0.976        0.232      119.672       25.497        0.045      338.027       10.401      860.964
06/20/2013  03:08:00      -93.514       25.511      -12.077       36.892       33.004       23.380     1361.039     1089.240      546.604        0.627        0.150       96.931       18.650        0.037      338.118       10.553      860.963
06/20/2013  03:09:00      -75.371      -29.686        5.819       50.536       37.494       27.846     2553.847     1405.773      775.393        0.566        0.237       81.006       22.914        0.080      338.027       10.401      860.967
06/20/2013  03:10:00     -138.842      -10.042      -19.668       51.824       38.531       23.976     2685.688     1484.642      574.836        1.225        0.237      139.205       25.070        0.032      337.983       10.326      860.974
06/20/2013  03:11:00     -155.954      -32.410      -15.993       51.083       72.758       26.698     2609.447     5293.712      712.795        1.712        0.431      159.286       24.799        0.024      338.048       10.434      860.969
06/20/2013  03:12:00     -126.382      -40.582        1.359       50.390       62.600       33.432     2539.165     3918.797     1117.674        1.260        0.379      132.738       30.864        0.054      337.938       10.251      860.963
06/20/2013  03:13:00     -137.879      -38.138      -14.446       47.670       40.429       31.525     2272.446     1634.473      993.849        1.279        0.245      143.057       27.547        0.037      337.912       10.208      860.955
06/20/2013  03:14:00     -163.367      -35.943      -12.922       48.375       51.650       29.948     2340.152     2667.698      896.894        1.703        0.295      167.275       20.541        0.015      337.857       10.112      860.963
06/20/2013  03:15:00     -167.770      -46.971      -13.585       49.510       31.906       21.168     2451.202     1017.982      448.081        1.723        0.196      174.221       22.875        0.017      337.830       10.068      860.961
06/20/2013  03:16:00     -135.009      -60.013        0.393       55.829       36.108       25.229     3116.932     1303.782      636.510        1.344        0.253      147.746       29.131        0.039      337.773        9.973      860.964
06/20/2013  03:17:00     -110.888      -30.616       -2.692       53.341       44.955       28.987     2845.236     2020.971      840.272        0.947        0.285      115.037       27.482        0.057      337.836       10.078      860.963
06/20/2013  03:18:00      -80.143      -81.308       -3.324       66.626       72.507       38.473     4439.068     5257.277     1480.171        1.211        0.559      114.166       35.953        0.099      337.728        9.899      860.961
06/20/2013  03:19:00     -148.774      -54.088      -14.188       46.649       58.153       27.845     2176.138     3381.778      775.344        1.580        0.317      158.301       21.712        0.019      337.678        9.814      860.971
06/20/2013  03:20:00      -95.352        8.039        0.884       36.996       38.164       22.564     1368.720     1456.476      509.149        0.625        0.167       95.690       22.083        0.053      337.697        9.846      860.970
06/20/2013  03:21:00      -39.938      -30.606        1.301       41.245       25.871       20.662     1701.169      669.301      426.905        0.266        0.140       50.317       22.560        0.201      337.719        9.884      860.959
06/20/2013  03:22:00      -73.878      -26.456        2.352       33.875       30.987       18.272     1147.499      960.209      333.863        0.430        0.122       78.472       14.567        0.034      337.738        9.914      860.967
06/20/2013  03:23:00      -82.694      -59.610        3.435       35.615       22.162       20.308     1268.398      491.138      412.413        0.629        0.109      101.940       19.127        0.035      337.772        9.971      860.976
06/20/2013  03:24:00      -73.456      -18.358       -1.493       23.631       23.375       13.734      558.423      546.406      188.616        0.351        0.065       75.715       11.524        0.023      337.768        9.965      860.994
06/20/2013  03:25:00      -45.546      -20.747      -11.719       20.728       15.355        9.304      429.663      235.779       86.565        0.170        0.038       50.048        9.450        0.036      337.821       10.055      861.001
06/20/2013  03:26:00      -32.258      -27.189       -5.167       17.614       13.650       10.623      310.255      186.321      112.845        0.121        0.030       42.188        7.471        0.031      337.884       10.160      861.008
06/20/2013  03:27:00      -39.914      -18.801       -4.439       13.602       11.275       12.470      185.016      127.119      155.510        0.122        0.023       44.120       10.746        0.059      337.841       10.089      861.017
06/20/2013  03:28:00      -17.813       -3.736       -5.691        9.365        6.763        8.168       87.700       45.732       66.708        0.028        0.010       18.201        4.165        0.052      337.898       10.184      861.019
06/20/2013  03:29:00      -40.383        6.323       -2.439       21.581        7.099        8.293      465.727       50.402       68.779        0.113        0.029       40.875        6.372        0.024      337.858       10.115      861.008
06/20/2013  03:30:00      -74.849       -3.906       -9.005       17.213       15.282       10.460      296.297      233.537      109.408        0.317        0.032       74.951        8.862        0.014      337.881       10.155      860.999
06/20/2013  03:31:00      -66.358       -7.344       -0.435       39.325       21.754       12.484     1546.428      473.224      155.849        0.332        0.109       66.763       17.599        0.069      337.740        9.917      860.991
06/20/2013  03:32:00      -70.185      -12.185       -2.128       20.670       20.517       12.671      427.265      420.959      160.556        0.304        0.050       71.235       12.373        0.030      337.733        9.907      860.984
06/20/2013  03:33:00      -96.901      -18.584       -5.658       21.852       21.799       13.702      477.508      475.177      187.747        0.545        0.057       98.667       11.148        0.013      337.759        9.950      860.981
06/20/2013  03:34:00      -82.650      -33.964        5.392       26.462       23.363       14.758      700.251      545.852      217.805        0.474        0.073       89.357       10.538        0.014      337.750        9.934      860.982
06/20/2013  03:35:00      -87.102      -43.675        0.356       32.073       19.201       14.412     1028.703      368.682      207.705        0.555        0.080       97.439       13.446        0.019      337.788       10.000      860.988
06/20/2013  03:36:00     -101.069      -28.946       -2.198       28.391       18.413       13.733      806.059      339.056      188.609        0.620        0.067      105.132       12.145        0.013      337.745        9.928      860.995
06/20/2013  03:37:00      -46.502      -27.494       -4.630       20.049       16.558       10.597      401.969      274.159      112.291        0.186        0.039       54.022        6.979        0.017      337.773        9.975      860.995
06/20/2013  03:38:00      -62.619      -13.399       -8.099       18.746       11.220       11.296      351.418      125.887      127.591        0.239        0.030       64.036       12.069        0.036      337.783        9.992      860.998
06/20/2013  03:39:00      -72.765      -26.538       -5.375       22.485       16.897        8.447      505.576      285.498       71.355        0.344        0.043       77.453        5.125        0.004      337.791       10.004      861.007
06/20/2013  03:40:00      -36.118      -22.046        4.350       29.410       15.366       13.491      864.928      236.111      182.016        0.155        0.064       42.314       17.625        0.174      337.724        9.891      861.010
06/20/2013  03:41:00      -49.668      -23.489       -9.204       31.661       15.596       11.720     1002.424      243.234      137.348        0.224        0.069       54.942       11.974        0.047      337.833       10.073      861.007
06/20/2013  03:42:00      -55.491      -42.621        0.343       22.079       20.710       15.176      487.461      428.922      230.322        0.302        0.057       69.970       11.481        0.027      337.765        9.960      861.005
06/20/2013  03:43:00      -53.132      -17.166       -7.718       16.221       14.463        8.871      263.135      209.167       78.699        0.186        0.028       55.836        3.825        0.005      337.793       10.008      860.996
06/20/2013  03:44:00      -87.772      -39.764      -12.353       11.642       10.362        9.124      135.546      107.366       83.240        0.488        0.016       96.359        5.556        0.003      337.790       10.002      860.988
06/20/2013  03:45:00      -72.974      -34.170       -3.071       14.309       18.026       11.216      204.756      324.931      125.807        0.358        0.033       80.578        8.334        0.011      337.748        9.930      860.992
06/20/2013  03:46:00      -70.549      -28.138        0.451       23.907       15.505       14.359      571.548      240.406      206.175        0.339        0.051       75.953       10.126        0.018      337.745        9.927      860.993
06/20/2013  03:47:00      -56.830      -39.413       -5.226       27.920       14.447       12.027      779.502      208.705      144.646        0.297        0.057       69.160        3.674        0.003      337.677        9.812      860.998
06/20/2013  03:48:00      -53.436      -37.520       -0.494       29.597       21.924       14.702      875.980      480.675      216.152        0.292        0.079       65.293       15.455        0.056      337.681        9.821      860.992
06/20/2013  03:49:00      -66.441      -14.131        0.973       26.884       20.608       16.075      722.726      424.691      258.402        0.301        0.070       67.927       15.630        0.053      337.608        9.697      860.997
06/20/2013  03:50:00      -56.828      -16.950        0.127       21.238       18.621       12.664      451.033      346.756      160.372        0.224        0.048       59.302       10.789        0.033      337.602        9.686      861.002
06/20/2013  03:51:00      -61.288      -24.173       -3.365       15.459       12.811       10.946      238.966      164.122      119.810        0.244        0.026       65.883        7.599        0.013      337.663        9.789      861.011
06/20/2013  03:52:00      -15.511      -22.827      -13.476       16.249       17.529       14.772      264.041      307.265      218.224        0.087        0.039       27.598       10.007        0.131      337.671        9.803      861.021
06/20/2013  03:53:00       -0.473       -5.479       20.525       12.553       26.595       21.235      157.589      707.273      450.915        0.088        0.066        5.499       21.070       14.680      337.563        9.622      861.026
06/20/2013  03:54:00        3.389       41.931       48.485       23.308       26.667       18.856      543.275      711.115      355.558        0.286        0.080       42.068       12.511        0.088      337.504        9.522      861.030
06/20/2013  03:55:00        4.140       12.245       41.668       23.274       22.599       20.447      541.693      510.731      418.079        0.169        0.074       12.926       18.792        2.113      337.483        9.487      861.043
06/20/2013  03:56:00        0.786       -3.934       35.408       18.941       30.087       18.096      358.743      905.249      327.450        0.143        0.080        4.011       14.288       12.687      337.466        9.459      861.057
06/20/2013  03:57:00        3.295       11.885       42.759       15.313       24.388       14.270      234.497      594.790      203.643        0.151        0.052       12.334        7.219        0.343      337.500        9.515      861.080
06/20/2013  03:58:00        6.318        0.974       27.150       14.177       21.462       21.052      201.001      460.601      443.188        0.094        0.055        6.393        9.827        2.363      337.500        9.516      861.103
06/20/2013  03:59:00       34.012       26.376       28.567       27.196       27.565       15.641      739.634      759.824      244.632        0.221        0.087       43.041        7.563        0.031      337.367        9.292      861.121
06/20/2013  04:00:00       46.005       27.702       21.795       29.206       23.434       23.544      853.000      549.164      554.331        0.266        0.098       53.701       17.309        0.104      337.394        9.339      861.133
06/20/2013  04:01:00       52.647       30.440       29.726       34.642       27.851       25.933     1200.038      775.659      672.513        0.361        0.132       60.814       11.189        0.034      337.374        9.304      861.134
06/20/2013  04:02:00       67.284       49.619       29.660       37.210       19.994       23.522     1384.620      399.759      553.292        0.510        0.117       83.601       19.657        0.055      337.364        9.288      861.135
06/20/2013  04:03:00       43.125       30.661       30.514       29.650       27.369       25.696      879.106      749.074      660.267        0.301        0.114       52.914       14.287        0.073      337.336        9.242      861.143
06/20/2013  04:04:00       52.724       32.740       30.190       31.528       18.756       23.553      994.005      351.796      554.748        0.333        0.095       62.062       18.267        0.087      337.388        9.328      861.137
06/20/2013  04:05:00       28.650       28.921       36.000       19.860       15.602       10.914      394.427      243.433      119.124        0.185        0.038       40.709        8.189        0.040      337.322        9.217      861.128
06/20/2013  04:06:00       30.474       15.562       15.564       20.499       15.096       22.451      420.190      227.889      504.040        0.128        0.058       34.217       12.680        0.137      337.397        9.344      861.126
06/20/2013  04:07:00       -5.534       20.990       13.290        7.117        6.711       10.559       50.651       45.042      111.489        0.043        0.010       21.707        3.514        0.026      337.427        9.393      861.129
06/20/2013  04:08:00      -18.815       -0.462        0.631        6.946        4.251        5.155       48.250       18.075       26.572        0.022        0.005       18.821        2.307        0.015      337.413        9.368      861.122
06/20/2013  04:09:00      -35.828      -16.657       -3.503       11.919       14.645       11.435      142.074      214.462      130.749        0.103        0.024       39.511        8.393        0.045      337.484        9.487      861.116
06/20/2013  04:10:00      -35.624      -26.345       -2.572       10.315       11.647        7.651      106.396      135.650       58.534        0.114        0.015       44.307        4.757        0.012      337.501        9.516      861.125
06/20/2013  04:11:00      -41.184      -18.717       -5.437        9.726        7.693        6.851       94.604       59.179       46.940        0.114        0.010       45.238        4.430        0.010      337.529        9.563      861.125
06/20/2013  04:12:00      -43.094       -8.347       -1.495        7.141        5.997        4.314       50.995       35.964       18.610        0.102        0.005       43.895        2.026        0.002      337.505        9.523      861.116
06/20/2013  04:13:00      -20.535      -53.581       -1.061       17.958       31.456       17.659      322.493      989.502      311.849        0.246        0.081       57.381       11.460        0.040      337.712        9.871      861.107
06/20/2013  04:14:00       -5.942      -62.306       -6.070       41.345       42.239       18.388     1709.369     1784.149      338.125        0.389        0.192       62.589       21.366        0.117      337.831       10.071      861.098
06/20/2013  04:15:00      -10.399       -2.613        9.618       24.409       12.607       14.808      595.790      158.944      219.274        0.059        0.049       10.723       12.873        1.441      337.536        9.576      861.098
06/20/2013  04:16:00       -5.955      -22.859        3.729       17.249       20.683       13.871      297.513      427.792      192.395        0.074        0.046       23.622       11.123        0.222      337.678        9.814      861.098
06/20/2013  04:17:00      -22.305      -43.805        5.101       35.708       30.722       20.850     1275.071      943.862      434.707        0.255        0.133       49.157       17.973        0.134      337.687        9.829      861.086
06/20/2013  04:18:00      -73.458      -58.978       -0.153       42.656       40.440       24.213     1819.514     1635.388      586.263        0.646        0.202       94.205       22.845        0.059      337.685        9.826      861.077
06/20/2013  04:19:00     -140.558      -54.144        1.661       48.414       51.880       28.798     2343.958     2691.567      829.344        1.428        0.293      150.625       26.559        0.031      337.438        9.411      861.063
06/20/2013  04:20:00     -131.844      -53.511        2.101       44.225       39.018       24.933     1955.816     1522.424      621.654        1.217        0.205      142.290       26.660        0.035      337.350        9.264      861.047
06/20/2013  04:21:00      -80.339      -68.860        9.780       64.288       56.661       33.941     4132.894     3210.522     1151.984        0.989        0.425      105.811       40.238        0.145      337.368        9.296      861.019
06/20/2013  04:22:00     -155.447     -105.348        3.314       76.952       41.462       40.186     5921.602     1719.107     1614.950        2.226        0.463      187.782       39.876        0.045      337.462        9.451      861.000
06/20/2013  04:23:00     -160.494      -63.684       -1.264       52.304       37.017       28.887     2735.702     1370.244      834.472        1.738        0.247      172.667       26.401        0.023      337.298        9.177      861.002
06/20/2013  04:24:00     -130.215      -82.822       -2.683       57.174       54.656       22.111     3268.825     2987.229      488.913        1.528        0.337      154.323       19.724        0.016      337.315        9.206      861.006
06/20/2013  04:25:00      -94.471      -79.681       10.380       71.900       44.632       31.073     5169.615     1992.049      965.542        1.175        0.406      123.587       33.898        0.075      337.302        9.184      861.016
06/20/2013  04:26:00      -92.703      -53.911       11.047       70.190       52.099       32.915     4926.687     2714.284     1083.414        1.017        0.436      107.239       36.751        0.117      337.296        9.174      861.028
06/20/2013  04:27:00      -24.012      -50.504       10.082       59.048       50.117       35.448     3486.615     2511.671     1256.543        0.524        0.363       55.922       29.914        0.286      337.258        9.111      861.034
06/20/2013  04:28:00      -80.537      -53.524       10.242       82.306       56.360       36.657     6774.247     3176.461     1343.768        1.037        0.565       96.700       41.733        0.186      337.183        8.984      861.034
06/20/2013  04:29:00      -64.949      -77.093        2.821       76.211       48.533       28.230     5808.165     2355.470      796.912        0.956        0.448      100.805       24.141        0.057      337.112        8.865      861.034
06/20/2013  04:30:00      -22.101     -139.867        2.428       55.910       77.018       39.419     3125.969     5931.718     1553.830        1.533        0.531      141.602       36.810        0.068      337.091        8.829      861.032
06/20/2013  04:31:00      -53.978      -65.847        4.184       68.717       61.163       42.402     4721.959     3740.969     1797.925        0.876        0.513       85.144       38.736        0.207      337.072        8.797      861.037
06/20/2013  04:32:00      -90.000      -73.291        9.525       48.882       53.498       32.668     2389.465     2861.998     1067.223        0.994        0.316      116.067       32.157        0.077      336.925        8.553      861.075
06/20/2013  04:33:00     -125.938      -66.135       -6.599       65.575       40.369       28.366     4300.018     1629.678      804.602        1.350        0.337      142.246       25.903        0.033      336.917        8.539      861.098
06/20/2013  04:34:00     -103.637      -68.939       -2.722       55.844       35.825       28.764     3118.548     1283.410      827.360        1.036        0.261      124.472       25.816        0.043      336.880        8.479      861.107
06/20/2013  04:35:00     -107.027      -97.121       -7.379       58.560       49.596       29.236     3429.227     2459.723      854.721        1.384        0.337      144.525       31.062        0.046      336.871        8.461      861.116
06/20/2013  04:36:00     -107.178      -61.696        1.172       68.377       43.425       30.290     4675.387     1885.766      917.475        1.139        0.374      123.666       37.933        0.094      336.821        8.379      861.114
06/20/2013  04:37:00     -118.732      -89.576      -13.840       22.890       25.834       19.834      523.958      667.385      393.400        1.195        0.079      148.731       13.861        0.009      336.776        8.305      861.116
06/20/2013  04:38:00      -94.434      -60.287        4.936       41.227       42.845       29.861     1699.653     1835.682      891.660        0.850        0.221      112.037       26.831        0.057      336.845        8.421      861.123
06/20/2013  04:39:00      -81.821      -59.781       -5.685       38.953       30.704       21.683     1517.355      942.722      470.131        0.661        0.147      101.333       19.273        0.036      336.842        8.416      861.135
06/20/2013  04:40:00      -74.810      -30.425        0.871       42.078       28.942       20.850     1770.531      837.652      434.730        0.478        0.152       80.761       16.404        0.041      336.841        8.414      861.154
06/20/2013  04:41:00     -109.686      -32.640       -6.511       35.157       31.348       19.986     1236.049      982.676      399.432        0.788        0.131      114.439       19.212        0.028      336.823        8.385      861.160
06/20/2013  04:42:00     -121.554      -28.775       -9.751       33.093       36.059       24.948     1095.116     1300.259      622.418        0.936        0.151      124.914       18.419        0.022      336.835        8.403      861.156
06/20/2013  04:43:00     -140.191      -62.608       -6.185       38.399       23.451       21.148     1474.520      549.973      447.255        1.304        0.124      153.536       16.950        0.012      336.783        8.317      861.156
06/20/2013  04:44:00     -149.156      -57.264       -3.210       21.382       20.151       15.575      457.208      406.043      242.573        1.332        0.055      159.771       11.528        0.005      336.739        8.244      861.154
06/20/2013  04:45:00     -110.751      -64.507       -0.197       37.781       23.847       18.965     1427.394      568.685      359.674        0.939        0.118      128.168       19.376        0.023      336.721        8.215      861.144
06/20/2013  04:46:00      -80.027      -49.162        4.881       40.479       36.264       21.012     1638.550     1315.064      441.521        0.612        0.170       93.921       20.604        0.048      336.725        8.220      861.137
06/20/2013  04:47:00      -73.915      -56.512        1.915       43.994       30.578       24.130     1935.498      935.012      582.279        0.606        0.173       93.043       28.334        0.093      336.766        8.288      861.113
06/20/2013  04:48:00      -91.258      -62.147       -0.508       33.756       23.608       20.569     1139.492      557.322      423.088        0.715        0.106      110.410       20.826        0.036      336.747        8.257      861.080
06/20/2013  04:49:00     -105.427      -63.579       -3.384       17.869       10.756       14.874      319.285      115.683      221.244        0.791        0.033      123.114       12.459        0.010      336.826        8.389      861.063
06/20/2013  04:50:00      -86.562      -57.254       -2.236       40.210       18.912       16.277     1616.867      357.656      264.952        0.651        0.112      103.784       19.048        0.034      336.923        8.550      861.067
06/20/2013  04:51:00      -40.950      -57.753        4.149       29.463       32.050       17.415      868.085     1027.228      303.283        0.361        0.110       70.798       18.686        0.070      336.936        8.570      861.058
06/20/2013  04:52:00      -78.333      -44.458       -2.230       25.514       16.904       12.662      650.953      285.751      160.329        0.461        0.055       90.070        9.683        0.012      336.955        8.601      861.059
06/20/2013  04:53:00      -41.952      -37.167        7.229       42.790       31.488       22.438     1830.966      991.514      503.472        0.326        0.166       56.048       20.114        0.129      336.912        8.531      861.075
06/20/2013  04:54:00      -75.234      -80.412       -1.246       30.182       24.098       21.590      910.969      580.695      466.109        0.704        0.098      110.119       20.608        0.035      336.945        8.585      861.088
06/20/2013  04:55:00      -90.473      -66.365       -0.130       35.211       31.821       21.167     1239.811     1012.605      448.054        0.764        0.135      112.204       15.221        0.018      336.881        8.480      861.088
06/20/2013  04:56:00      -84.259      -51.850       -8.313       32.603       26.978       23.645     1062.948      727.789      559.105        0.610        0.117       98.935       16.979        0.029      336.872        8.466      861.097
06/20/2013  04:57:00      -62.652      -77.164       -6.576       28.228       26.698       20.152      796.792      712.774      406.101        0.592        0.096       99.396       16.208        0.027      336.859        8.445      861.104
06/20/2013  04:58:00      -80.254      -92.213      -18.582       30.070       27.636       17.627      904.184      763.765      310.716        0.863        0.099      122.245        4.740        0.002      336.851        8.431      861.108
06/20/2013  04:59:00      -68.319      -90.269      -11.221       24.511       32.090       16.371      600.788     1029.780      268.013        0.742        0.095      113.208       11.626        0.011      336.856        8.438      861.104
06/20/2013  05:00:00      -66.588      -50.591       -4.785       29.044       33.529       19.378      843.562     1124.161      375.493        0.468        0.117       83.627       15.426        0.034      336.860        8.444      861.097
06/20/2013  05:01:00      -95.289      -56.146       -8.614       35.357       26.076       21.095     1250.097      679.951      445.006        0.734        0.119      110.600       15.826        0.020      336.831        8.397      861.086
06/20/2013  05:02:00      -76.895      -65.938       -7.582       36.935       34.235       24.025     1364.180     1172.019      577.199        0.672        0.156      101.295       18.655        0.034      336.828        8.393      861.077
06/20/2013  05:03:00      -85.430      -90.778        0.281       35.701       40.190       19.329     1274.586     1615.236      373.628        0.940        0.163      124.655       15.666        0.016      336.774        8.302      861.078
06/20/2013  05:04:00      -66.614      -61.979        7.554       32.795       41.588       21.757     1075.521     1729.528      473.353        0.581        0.164       90.988       23.588        0.067      336.779        8.310      861.081
06/20/2013  05:05:00      -96.252      -69.528       -7.766       19.920       31.231       12.248      396.789      975.359      150.005        0.784        0.076      118.738        7.722        0.004      336.796        8.337      861.091
06/20/2013  05:06:00      -65.037      -23.602      -11.820       23.122       12.383       14.567      534.631      153.331      212.186        0.291        0.045       69.187       12.087        0.031      336.778        8.310      861.098
06/20/2013  05:07:00      -91.338       -1.508       -1.781       22.182       28.088       18.349      492.052      788.948      336.690        0.498        0.081       91.350       11.488        0.016      336.713        8.201      861.104
06/20/2013  05:08:00      -98.052      -21.767       -4.379       31.396       23.868       19.180      985.736      569.659      367.875        0.601        0.096      100.439       15.201        0.023      336.658        8.108      861.124
06/20/2013  05:09:00      -99.863      -16.818        3.007       31.672       26.826       18.364     1003.130      719.643      337.237        0.616        0.103      101.269       15.424        0.023      336.508        7.857      861.144
06/20/2013  05:10:00      -82.556       -9.792       -1.002       30.585       23.102       14.707      935.434      533.688      216.282        0.430        0.084       83.135       10.868        0.017      336.497        7.838      861.145
06/20/2013  05:11:00      -87.400      -48.500       -1.694       40.466       39.402       17.744     1637.484     1552.524      314.861        0.675        0.175       99.955       18.127        0.033      336.582        7.981      861.139
06/20/2013  05:12:00      -76.362      -75.331       -3.724       27.847       37.909       22.523      775.466     1437.123      507.269        0.712        0.136      107.266       15.638        0.021      336.607        8.024      861.141
06/20/2013  05:13:00      -71.531      -75.173       -8.797       29.555       32.292       19.995      873.521     1042.784      399.781        0.658        0.116      103.767       16.177        0.024      336.656        8.106      861.148
06/20/2013  05:14:00     -111.103      -76.468      -13.276       25.259       27.831       18.930      638.036      774.592      358.349        1.007        0.089      134.875       11.262        0.007      336.565        7.953      861.144
06/20/2013  05:15:00     -118.250      -81.926       -2.135       35.050       35.796       27.781     1228.519     1281.377      771.809        1.199        0.164      143.857       23.322        0.026      336.491        7.830      861.143
06/20/2013  05:16:00      -57.504      -65.176       14.995       39.669       30.758       25.124     1573.652      946.028      631.199        0.546        0.158       86.917       26.354        0.092      336.421        7.712      861.159
06/20/2013  05:17:00      -96.052      -44.645       -5.592       28.945       26.207       17.828      837.812      686.782      317.851        0.655        0.092      105.921        8.996        0.007      336.490        7.827      861.179
06/20/2013  05:18:00     -110.184      -22.143       -2.340       39.978       44.794       25.118     1598.259     2006.517      630.906        0.844        0.212      112.387       23.799        0.045      336.487        7.822      861.190
06/20/2013  05:19:00     -112.331       -7.801       -6.021       39.357       33.549       24.682     1548.964     1125.556      609.202        0.800        0.164      112.601       21.831        0.038      336.285        7.483      861.204
06/20/2013  05:20:00     -144.427       13.628       -9.420       43.362       33.431       21.701     1880.239     1117.600      470.922        1.230        0.173      145.069       21.616        0.022      336.178        7.304      861.212
06/20/2013  05:21:00     -111.333       -9.868        1.553       40.695       28.224       24.998     1656.062      796.577      624.908        0.779        0.154      111.769       22.052        0.039      336.113        7.197      861.210
06/20/2013  05:22:00     -117.582      -32.179        3.261       38.445       27.620       22.644     1478.036      762.876      512.745        0.881        0.138      121.906       21.292        0.031      336.149        7.256      861.194
06/20/2013  05:23:00     -114.166      -27.976        4.367       37.479       24.649       22.876     1404.694      607.596      523.303        0.819        0.127      117.543       22.923        0.038      336.199        7.340      861.186
06/20/2013  05:24:00     -122.756      -49.990      -11.020       22.812       21.576       14.176      520.388      465.513      200.966        0.944        0.059      132.545        9.829        0.005      336.356        7.603      861.178
06/20/2013  05:25:00     -112.660      -59.873       -0.451       23.020       25.318       16.367      529.927      640.978      267.866        0.886        0.072      127.581       11.920        0.009      336.435        7.734      861.198
06/20/2013  05:26:00     -115.947      -62.637       -5.718       26.153       28.553       18.663      683.975      815.298      348.313        0.962        0.092      131.785       16.681        0.016      336.418        7.707      861.212
06/20/2013  05:27:00      -74.142      -52.200        2.709       40.301       27.518       19.934     1624.155      757.262      397.384        0.550        0.139       90.675       20.887        0.053      336.389        7.657      861.222
06/20/2013  05:28:00      -38.972      -21.922        8.729       33.430       19.893       16.923     1117.585      395.738      286.396        0.194        0.090       44.714       16.853        0.142      336.399        7.673      861.235
06/20/2013  05:29:00      -45.730      -49.576        4.213       47.464       33.752       18.683     2252.842     1139.190      349.066        0.415        0.187       67.446       22.252        0.109      336.483        7.815      861.258
06/20/2013  05:30:00      -77.486      -41.714        5.104       48.803       28.862       19.920     2381.746      832.996      396.796        0.569        0.181       88.000       24.867        0.080      336.503        7.850      861.265
06/20/2013  05:31:00      -55.352      -57.677        3.800       58.248       37.720       27.252     3392.838     1422.831      742.696        0.598        0.278       79.941       32.510        0.165      336.466        7.788      861.277
06/20/2013  05:32:00      -66.312      -54.664        3.151       33.877       25.493       19.018     1147.637      649.880      361.682        0.478        0.108       85.939       15.340        0.032      336.458        7.774      861.295
06/20/2013  05:33:00      -41.205      -44.714       -1.523       25.744       22.964       17.699      662.777      527.334      313.267        0.260        0.075       60.804       13.786        0.051      336.503        7.849      861.302
06/20/2013  05:34:00      -48.395      -27.773        6.415       40.743       20.766       18.940     1659.965      431.234      358.705        0.280        0.122       55.798       19.460        0.122      336.475        7.802      861.301
06/20/2013  05:35:00      -43.168      -55.794       11.897       34.925       28.917       20.534     1219.775      836.209      421.664        0.380        0.124       70.544       17.948        0.065      336.551        7.931      861.322
06/20/2013  05:36:00      -57.643      -72.215        0.308       44.145       26.159       21.376     1948.739      684.312      456.937        0.581        0.154       92.400       18.556        0.040      336.465        7.785      861.328
06/20/2013  05:37:00      -98.676      -72.875      -11.907       52.834       36.167       24.994     2791.383     1308.051      624.721        0.996        0.236      122.669       14.786        0.015      336.414        7.699      861.330
06/20/2013  05:38:00      -61.447      -44.808       15.056       56.882       36.824       33.604     3235.606     1356.002     1129.228        0.586        0.286       76.049       27.572        0.131      336.430        7.727      861.348
06/20/2013  05:39:00     -106.123      -66.796       12.535       58.249       41.257       29.889     3392.889     1702.148      893.371        1.093        0.299      125.395       27.012        0.046      336.470        7.794      861.356
06/20/2013  05:40:00     -110.869      -82.668        3.275       62.560       47.129       38.613     3913.719     2221.164     1490.998        1.338        0.381      138.296       36.508        0.070      336.404        7.683      861.359
06/20/2013  05:41:00     -164.508     -123.813       -5.798       42.970       53.126       29.565     1846.433     2822.339      874.081        2.398        0.277      205.895       26.529        0.017      336.408        7.686      861.356
06/20/2013  05:42:00     -126.242     -126.730       -5.153       62.053       42.297       33.312     3850.632     1789.042     1109.680        1.939        0.337      178.878       34.712        0.038      336.480        7.809      861.351
06/20/2013  05:43:00     -145.991     -121.592       -6.908       60.501       55.768       29.472     3660.369     3110.041      868.612        2.189        0.382      189.994       29.859        0.025      336.430        7.723      861.357
06/20/2013  05:44:00     -131.092      -78.427        3.903       69.499       64.049       36.085     4830.104     4102.296     1302.151        1.679        0.512      152.761       36.863        0.058      336.384        7.648      861.364
06/20/2013  05:45:00     -116.027      -99.455        8.967       62.137       48.654       37.099     3860.970     2367.200     1376.346        1.552        0.380      152.818       30.596        0.040      336.364        7.615      861.372
06/20/2013  05:46:00     -144.104      -95.488       -0.313       53.462       49.070       37.535     2858.213     2407.892     1408.910        1.828        0.334      172.870       24.091        0.019      336.309        7.521      861.381
06/20/2013  05:47:00     -149.906      -91.456       -3.951       63.945       68.751       38.649     4088.902     4726.730     1493.763        2.058        0.515      175.602       37.069        0.045      336.278        7.470      861.393
06/20/2013  05:48:00     -142.043     -111.444       -2.417       65.199       60.507       39.560     4250.848     3661.071     1564.957        2.104        0.474      180.543       42.688        0.056      336.275        7.466      861.413
06/20/2013  05:49:00     -162.585     -146.370       -8.068       47.015       55.491       31.618     2210.429     3079.248      999.702        2.711        0.314      218.765       30.429        0.019      336.323        7.542      861.425
06/20/2013  05:50:00     -163.988     -141.012        0.531       71.467       60.382       41.862     5107.485     3645.967     1752.464        2.864        0.525      216.278       43.180        0.040      336.278        7.469      861.443
06/20/2013  05:51:00     -148.766     -115.957       -2.767       52.409       63.095       33.215     2746.723     3980.964     1103.244        2.171        0.392      188.619       27.486        0.021      336.303        7.511      861.446
06/20/2013  05:52:00     -108.350      -84.240        0.768       60.028       52.313       34.308     3603.367     2736.688     1177.066        1.318        0.376      137.245       33.980        0.061      336.298        7.505      861.453
06/20/2013  05:53:00      -64.610      -44.394       11.121       67.431       55.161       32.880     4546.936     3042.694     1081.119        0.747        0.434       78.392       32.487        0.172      336.283        7.480      861.453
06/20/2013  05:54:00      -89.977      -58.702       12.390       70.718       48.239       35.902     5001.105     2327.003     1288.962        1.015        0.431      107.433       31.558        0.086      336.258        7.438      861.454
06/20/2013  05:55:00      -68.437      -47.623        7.801       68.718       42.623       33.842     4722.202     1816.717     1145.297        0.735        0.384       83.376       31.251        0.140      336.263        7.448      861.456
06/20/2013  05:56:00      -49.134      -39.467       13.504       66.696       41.632       35.492     4448.322     1733.212     1259.700        0.580        0.372       63.022       32.825        0.271      336.252        7.428      861.454
06/20/2013  05:57:00      -42.802      -42.044       15.584       57.519       41.297       33.028     3308.434     1705.477     1090.880        0.497        0.305       59.997       22.680        0.143      336.258        7.440      861.453
06/20/2013  05:58:00      -23.394      -33.675       12.184       47.120       42.171       30.684     2220.319     1778.367      941.520        0.338        0.247       41.003       22.555        0.303      336.281        7.477      861.440
06/20/2013  05:59:00      -33.818      -26.822       13.456       48.234       29.774       26.084     2326.521      886.465      680.399        0.297        0.195       43.164       22.670        0.276      336.325        7.549      861.441
06/20/2013  06:00:00     -102.042      -69.845       -3.532       40.446       34.796       29.720     1635.895     1210.767      883.308        0.952        0.186      123.656       22.986        0.035      336.261        7.442      861.449
06/20/2013  06:01:00      -91.473      -60.976       -6.419       30.331       32.442       24.240      919.991     1052.454      587.584        0.734        0.128      109.934       18.413        0.028      336.299        7.507      861.459
06/20/2013  06:02:00      -89.305      -69.335        0.920       43.918       30.752       24.333     1928.756      945.671      592.105        0.812        0.173      113.061       15.241        0.018      336.272        7.462      861.463
06/20/2013  06:03:00     -101.557      -57.366       -1.405       56.171       37.561       30.267     3155.131     1410.795      916.093        0.954        0.274      116.639       25.866        0.049      336.267        7.454      861.465
06/20/2013  06:04:00     -109.475      -82.315        1.053       62.337       48.434       35.703     3885.929     2345.897     1274.697        1.313        0.375      136.969       35.222        0.066      336.267        7.453      861.464
06/20/2013  06:05:00     -116.507      -74.483        4.798       59.822       50.607       33.577     3578.652     2561.051     1127.394        1.320        0.363      138.281       36.507        0.070      336.292        7.496      861.465
06/20/2013  06:06:00     -117.942      -49.853        1.492       53.705       33.431       32.344     2884.200     1117.624     1046.128        1.072        0.252      128.045       28.550        0.050      336.289        7.491      861.456
06/20/2013  06:07:00     -120.859      -65.526       -7.681       44.342       35.312       29.859     1966.246     1246.917      891.553        1.153        0.205      137.479       23.082        0.028      336.252        7.429      861.448
06/20/2013  06:08:00     -114.666      -70.218       -8.777       43.699       34.434       21.082     1909.571     1185.696      444.460        1.085        0.177      134.458       28.048        0.044      336.321        7.543      861.446
06/20/2013  06:09:00      -89.926      -59.810       -8.070       40.357       27.097       16.938     1628.652      734.254      286.899        0.719        0.132      108.000       17.235        0.025      336.352        7.597      861.454
06/20/2013  06:10:00      -61.818      -89.944       -6.230       25.640       19.226       17.928      657.413      369.644      321.408        0.665        0.067      109.139       15.007        0.019      336.309        7.524      861.457
06/20/2013  06:11:00      -58.229      -61.842       -4.102       31.406       24.672       23.352      986.323      608.711      545.336        0.469        0.107       84.942       22.444        0.070      336.392        7.662      861.463
06/20/2013  06:12:00      -48.519      -20.326       -5.295       25.886       23.522       19.577      670.102      553.299      383.251        0.220        0.080       52.605       17.256        0.108      336.486        7.820      861.479
06/20/2013  06:13:00      -45.799      -49.853      -11.650       25.316       18.364       15.199      640.924      337.241      231.024        0.296        0.060       67.697       10.249        0.023      336.448        7.755      861.472
06/20/2013  06:14:00      -42.049      -30.040       -3.721       27.696       16.766       12.754      767.049      281.086      162.674        0.195        0.061       51.677       14.526        0.079      336.539        7.909      861.462
06/20/2013  06:15:00      -45.072      -35.220       -3.909       18.491       15.774       16.605      341.933      248.834      275.716        0.208        0.043       57.201       10.293        0.032      336.565        7.953      861.462
06/20/2013  06:16:00      -49.390      -34.770       -3.543       24.854       20.730       13.650      617.738      429.714      186.313        0.245        0.062       60.401       12.366        0.042      336.615        8.036      861.456
06/20/2013  06:17:00      -24.257      -38.588       -0.583       30.252       25.880       22.388      915.159      669.791      501.227        0.208        0.104       45.579       16.949        0.138      336.648        8.091      861.463
06/20/2013  06:18:00      -60.700      -38.796       -5.559       18.876       17.434       12.830      356.289      303.934      164.606        0.302        0.041       72.039        9.052        0.016      336.640        8.079      861.455
06/20/2013  06:19:00      -47.521      -13.385        5.095       20.391       17.256       14.549      415.809      297.772      211.670        0.169        0.046       49.370       11.618        0.055      336.626        8.055      861.469
06/20/2013  06:20:00      -44.536       -8.217        5.976       21.030       19.026       12.913      442.279      362.006      166.739        0.153        0.049       45.288        9.855        0.047      336.606        8.024      861.473
06/20/2013  06:21:00      -35.176      -25.723        2.635       22.733       16.944       11.971      516.791      287.110      143.295        0.143        0.047       43.578       10.597        0.059      336.767        8.291      861.492
06/20/2013  06:22:00      -63.689      -32.136       -3.053       24.395       20.032       11.121      595.117      401.265      123.676        0.311        0.056       71.337       10.023        0.020      336.714        8.202      861.487
06/20/2013  06:23:00      -41.164      -61.712        6.651       29.553       35.147       15.116      873.370     1235.315      228.502        0.394        0.117       74.181       17.969        0.059      336.713        8.202      861.507
06/20/2013  06:24:00      -62.976      -62.650       -1.329       35.435       22.207       20.358     1255.615      493.159      414.450        0.503        0.108       88.831       21.329        0.058      336.718        8.210      861.516
06/20/2013  06:25:00      -87.589      -61.888       -7.732       33.473       19.434       22.067     1120.423      377.669      486.971        0.677        0.099      107.247       11.547        0.012      336.659        8.111      861.523
06/20/2013  06:26:00      -53.256      -65.342       -2.975       33.905       27.462       20.277     1149.549      754.163      411.151        0.471        0.116       84.296       16.710        0.039      336.744        8.253      861.530
06/20/2013  06:27:00      -64.379      -91.852        2.980       47.029       47.539       24.001     2211.739     2259.924      576.049        0.882        0.252      112.167       27.961        0.062      336.685        8.155      861.535
06/20/2013  06:28:00      -83.554     -106.763       -7.681       47.663       44.474       24.105     2271.723     1977.969      581.068        1.163        0.242      135.571       24.307        0.032      336.628        8.061      861.534
06/20/2013  06:29:00     -110.016     -128.289       -6.511       35.219       28.413       23.150     1240.362      807.301      535.944        1.559        0.129      169.002       23.901        0.020      336.590        7.995      861.539
06/20/2013  06:30:00     -133.602     -107.169      -21.220       24.082       27.452       18.406      579.933      753.611      338.796        1.573        0.084      171.274       12.172        0.005      336.647        8.090      861.544
06/20/2013  06:31:00      -83.420      -89.218       -2.126       51.988       47.360       33.104     2702.797     2242.943     1095.895        1.048        0.302      122.143       23.024        0.036      336.619        8.043      861.545
06/20/2013  06:32:00     -100.470      -84.345       -1.893       70.469       43.758       39.075     4965.934     1914.767     1526.849        1.281        0.420      131.181       26.909        0.042      336.665        8.120      861.560
06/20/2013  06:33:00      -70.920      -82.178        7.848       62.757       50.406       34.157     3938.434     2540.731     1166.679        0.974        0.382      108.549       32.094        0.087      336.701        8.181      861.566
06/20/2013  06:34:00      -88.561      -51.673      -10.751       52.084       40.307       27.323     2712.746     1624.625      746.571        0.786        0.254      102.534       23.917        0.054      336.765        8.287      861.586
06/20/2013  06:35:00      -62.158      -68.530        3.922       55.163       61.565       33.815     3042.937     3790.308     1143.452        0.827        0.399       92.520       30.711        0.110      336.757        8.274      861.595
06/20/2013  06:36:00      -68.748      -62.000        2.779       63.974       47.639       29.677     4092.629     2269.429      880.724        0.791        0.362       92.575       27.273        0.087      336.725        8.221      861.610
06/20/2013  06:37:00     -119.725      -99.860      -17.102       51.875       41.727       30.812     2691.045     1741.110      949.369        1.499        0.269      155.904       25.376        0.026      336.754        8.269      861.624
06/20/2013  06:38:00      -78.090      -93.914        0.661       69.999       54.562       35.705     4899.854     2977.046     1274.848        1.203        0.458      122.139       32.369        0.070      336.752        8.265      861.630
06/20/2013  06:39:00      -14.365      -65.400       10.503       40.076       51.593       32.578     1606.065     2661.838     1061.345        0.496        0.266       66.959       20.466        0.093      336.829        8.394      861.637
06/20/2013  06:40:00      -44.728      -93.730       12.035       42.418       41.207       34.954     1799.311     1697.983     1221.766        0.782        0.236      103.856       15.080        0.021      336.800        8.345      861.637
06/20/2013  06:41:00      -22.347      -63.608       11.790       34.144       32.910       24.387     1165.838     1083.041      594.719        0.376        0.142       67.419       16.425        0.059      336.939        8.578      861.634
06/20/2013  06:42:00     -119.859     -110.312      -17.291       40.228       44.384       21.924     1618.312     1969.979      480.646        1.545        0.203      162.896        6.114        0.001      336.778        8.307      861.639
06/20/2013  06:43:00      -76.792      -54.139       -6.322       41.238       25.235       21.852     1700.547      636.789      477.524        0.584        0.141       93.958       15.933        0.029      336.818        8.376      861.638
06/20/2013  06:44:00      -75.649      -56.936       -9.205       30.641       22.786       23.620      938.890      519.222      557.892        0.553        0.101       94.682       15.958        0.028      336.816        8.371      861.632
06/20/2013  06:45:00      -59.367      -77.972      -10.224       21.894       23.778       19.546      479.346      565.408      382.049        0.557        0.071       98.000       12.048        0.015      336.825        8.387      861.640
06/20/2013  06:46:00      -69.270      -72.546       -6.154       22.087       29.293       13.159      487.821      858.084      173.157        0.581        0.076      100.306        6.728        0.004      336.944        8.584      861.639
06/20/2013  06:47:00      -39.871      -96.265       -0.616       14.354       20.941       13.661      206.027      438.537      186.621        0.584        0.042      104.195       11.090        0.011      336.934        8.567      861.646
06/20/2013  06:48:00      -22.516      -72.859        1.719        9.155       15.461       10.683       83.806      239.029      114.135        0.313        0.022       76.258        6.173        0.007      337.013        8.700      861.648
06/20/2013  06:49:00      -61.234       -9.912       -2.289       37.427       23.417       12.757     1400.800      548.361      162.732        0.298        0.106       62.031       12.362        0.040      337.073        8.800      861.650
06/20/2013  06:50:00      -72.523       -4.854        0.344       31.588       36.818       22.589      997.816     1355.558      510.258        0.407        0.143       72.686       16.326        0.050      337.127        8.891      861.644
06/20/2013  06:51:00      -83.264      -12.761       -0.948       34.287       30.996       16.202     1175.602      960.748      262.517        0.475        0.120       84.236       16.756        0.040      337.092        8.832      861.632
06/20/2013  06:52:00      -69.203      -18.812        0.989       38.293       34.817       14.183     1466.366     1212.213      201.152        0.401        0.144       71.714       15.193        0.045      337.225        9.056      861.633
06/20/2013  06:53:00      -76.006      -30.495       -3.930       40.533       24.742       18.197     1642.946      612.175      331.145        0.465        0.129       81.896       20.647        0.064      337.173        8.968      861.627
06/20/2013  06:54:00       -8.407      -44.053       11.463       28.899       27.002       22.194      835.136      729.110      492.563        0.210        0.103       44.848       20.530        0.210      337.380        9.315      861.629
06/20/2013  06:55:00      -49.207      -48.754        7.524       37.576       38.455       21.966     1411.968     1478.764      482.507        0.411        0.169       69.269       20.541        0.088      337.374        9.304      861.632
06/20/2013  06:56:00      -46.032      -45.664        3.191       33.758       27.303       18.152     1139.599      745.474      329.493        0.321        0.111       64.839       18.114        0.078      337.281        9.149      861.632
06/20/2013  06:57:00      -46.026      -41.967        8.946       41.005       30.079       24.767     1681.440      904.762      613.428        0.358        0.160       62.287       22.096        0.126      337.288        9.161      861.638
06/20/2013  06:58:00      -72.360      -33.663       -2.386       19.821       28.262       14.975      392.867      798.740      224.253        0.390        0.071       79.807       14.541        0.033      337.285        9.154      861.643
06/20/2013  06:59:00      -65.913      -64.076      -12.266       32.346       24.455       20.089     1046.234      598.030      403.562        0.532        0.102       91.925       20.250        0.049      337.351        9.269      861.643
06/20/2013  07:00:00      -49.055      -62.435       -0.765       28.335       29.197       17.090      802.871      852.475      292.053        0.413        0.097       79.401       17.418        0.048      337.301        9.183      861.637
06/20/2013  07:01:00      -37.666      -50.060        3.216       34.709       38.052       24.650     1204.708     1447.928      607.605        0.360        0.163       62.648       25.227        0.162      337.417        9.377      861.632
06/20/2013  07:02:00      -61.354      -48.513        2.832       29.560       34.629       18.708      873.792     1199.188      349.979        0.427        0.121       78.216       15.781        0.041      337.397        9.342      861.638
06/20/2013  07:03:00      -63.381      -59.330       -2.603       27.834       17.764       13.243      774.741      315.560      175.371        0.440        0.063       86.817       10.298        0.014      337.343        9.252      861.632
06/20/2013  07:04:00      -67.210      -40.987       -3.060       36.279       16.254       15.172     1316.174      264.188      230.200        0.401        0.091       78.722       17.086        0.047      337.423        9.386      861.624
06/20/2013  07:05:00      -37.367      -75.500       -5.740       22.843       23.056       17.421      521.806      531.559      303.476        0.424        0.068       84.241       13.682        0.026      337.410        9.365      861.621
06/20/2013  07:06:00      -19.922      -73.572       -0.745       15.353       29.139       16.791      235.715      849.068      281.932        0.359        0.068       76.221       11.262        0.022      337.488        9.496      861.624
06/20/2013  07:07:00      -31.930      -79.593        1.193       16.837       25.193       14.861      283.468      634.706      220.846        0.425        0.057       85.759       11.511        0.018      337.514        9.539      861.617
06/20/2013  07:08:00      -53.104      -83.715       -0.886       25.530       24.388       11.646      651.756      594.780      135.619        0.561        0.069       99.138       13.727        0.019      337.526        9.558      861.616
06/20/2013  07:09:00      -54.590      -30.752        2.767       21.358       21.879       12.193      456.147      478.674      148.664        0.251        0.054       62.656        7.962        0.016      337.552        9.604      861.608
06/20/2013  07:10:00      -20.387      -37.470        9.283       26.344       26.194       13.867      694.025      686.107      192.290        0.174        0.079       42.657       17.039        0.160      337.740        9.919      861.604
06/20/2013  07:11:00      -27.282       -9.058       13.686       32.632       21.028       21.700     1064.865      442.163      470.872        0.150        0.099       28.746       23.422        0.664      338.233       10.746      861.604
06/20/2013  07:12:00      -24.983        1.743       14.328       22.574       17.319       18.180      509.591      299.937      330.494        0.099        0.057       25.044       15.972        0.407      338.565       11.305      861.598
06/20/2013  07:13:00      -30.198       -6.345        2.259       20.144       13.590       12.644      405.779      184.684      159.874        0.085        0.038       30.857       10.885        0.124      337.972       10.309      861.596
06/20/2013  07:14:00        7.461      -50.898        0.646       22.740       42.950       20.777      517.127     1844.696      431.691        0.272        0.140       51.442       21.740        0.179      338.159       10.620      861.601
06/20/2013  07:15:00      -24.454       18.652       27.535       18.884       24.336       28.755      356.587      592.224      826.832        0.174        0.089       30.756       21.528        0.490      338.234       10.748      861.596
06/20/2013  07:16:00       -6.869       12.432       18.077       12.279       12.858       12.023      150.779      165.327      144.564        0.049        0.023       14.203        4.772        0.113      338.483       11.165      861.587
06/20/2013  07:17:00      -31.686       -6.453       10.524       21.997       25.045       19.557      483.853      627.262      382.462        0.132        0.075       32.336       14.057        0.189      338.108       10.536      861.577
06/20/2013  07:18:00      -13.478       -8.722       12.482       23.973       22.275       14.903      574.691      496.172      222.103        0.085        0.065       16.054       11.765        0.537      338.379       10.990      861.571
06/20/2013  07:19:00      -60.566      -45.614       -0.927       29.227       24.934       17.249      854.241      621.690      297.544        0.376        0.089       75.821       13.172        0.030      337.902       10.190      861.568
06/20/2013  07:20:00      -62.993      -57.882       -6.547       22.187       31.845       18.623      492.285     1014.089      346.822        0.461        0.093       85.548       13.725        0.026      337.846       10.097      861.563
06/20/2013  07:21:00      -56.737      -43.515        3.298       30.977       26.214       16.078      959.554      687.179      258.500        0.351        0.095       71.503       14.500        0.041      337.934       10.243      861.555
06/20/2013  07:22:00      -45.498      -37.954        7.182       37.768       17.619       14.446     1426.454      310.447      208.685        0.275        0.097       59.250       15.908        0.072      338.011       10.375      861.546
06/20/2013  07:23:00      -52.013      -28.820       -2.797       29.173       22.206       15.783      851.059      493.098      249.099        0.257        0.080       59.464       12.143        0.042      337.986       10.331      861.535
06/20/2013  07:24:00      -46.020      -18.387        8.861       27.128       24.397       23.900      735.954      595.193      571.198        0.222        0.095       49.557       19.607        0.157      338.232       10.744      861.529
06/20/2013  07:25:00      -33.248      -51.495        2.158       31.633       28.891       18.814     1000.657      834.695      353.979        0.298        0.109       61.296       19.485        0.101      338.063       10.458      861.525
06/20/2013  07:26:00      -37.089      -54.273       -3.586       19.378       19.239       16.120      375.524      370.129      259.841        0.267        0.050       65.736       12.153        0.034      337.975       10.311      861.528
06/20/2013  07:27:00      -44.890      -21.742       -0.174       20.381       22.257       16.789      415.405      495.354      281.858        0.184        0.060       49.879       11.188        0.050      338.046       10.431      861.532
06/20/2013  07:28:00      -35.816      -10.307        1.635       23.845       19.922       20.436      568.563      396.902      417.630        0.139        0.069       37.270       15.845        0.181      338.181       10.658      861.535
06/20/2013  07:29:00      -47.622      -50.574        3.954       38.892       32.368       20.635     1512.607     1047.691      425.791        0.391        0.149       69.467       25.707        0.137      338.210       10.707      861.549
06/20/2013  07:30:00      -54.267      -54.243       -4.196       29.546       20.141       17.420      872.995      405.667      303.451        0.374        0.079       76.729       13.929        0.033      338.034       10.410      861.559
06/20/2013  07:31:00      -40.832      -40.304        8.416       38.179       34.677       21.969     1457.608     1202.483      482.638        0.325        0.157       57.373       23.329        0.165      338.114       10.546      861.561
06/20/2013  07:32:00      -29.695      -99.388       -8.070       23.115       40.695       18.673      534.289     1656.064      348.699        0.668        0.127      103.729       14.192        0.019      338.035       10.416      861.565
06/20/2013  07:33:00      -55.897      -44.617       -2.217       31.044       18.909       15.217      963.717      357.548      231.547        0.334        0.078       71.520       16.103        0.051      338.143       10.593      861.561
06/20/2013  07:34:00      -33.277      -23.055       -6.116       16.495       14.909       10.776      272.078      222.287      116.119        0.114        0.031       40.483        7.493        0.034      338.211       10.708      861.564
06/20/2013  07:35:00      -28.316      -16.325        8.249       17.269       17.926       11.948      298.211      321.345      142.750        0.095        0.038       32.685        9.087        0.077      338.357       10.952      861.562
06/20/2013  07:36:00      -17.054      -25.273       10.623       32.296       26.873       27.987     1043.048      722.164      783.265        0.179        0.127       30.489       12.460        0.167      338.687       11.508      861.547
06/20/2013  07:37:00       31.697       29.204       63.238       34.263       42.288       32.529     1173.979     1788.254     1058.148        0.494        0.201       43.100       32.595        0.572      338.711       11.549      861.537
06/20/2013  07:38:00       12.974       26.515       26.170       30.924       27.855       25.082      956.280      775.923      629.117        0.196        0.118       29.519       15.037        0.259      338.618       11.393      861.534
06/20/2013  07:39:00      -41.774      -38.963        6.684       22.933       31.897       19.251      525.917     1017.436      370.592        0.261        0.096       57.125       14.371        0.063      338.435       11.084      861.535
06/20/2013  07:40:00      -86.706       -3.599       -0.888       31.130       27.272       17.170      969.085      743.740      294.797        0.477        0.100       86.780       13.002        0.022      338.298       10.855      861.534
06/20/2013  07:41:00      -69.812        6.644        6.041       21.755       18.722       18.419      473.295      350.523      339.258        0.306        0.058       70.127       10.035        0.020      338.297       10.851      861.521
06/20/2013  07:42:00      -25.402       14.686       17.826       22.803       12.851       18.076      519.976      165.148      326.757        0.110        0.051       29.341        7.088        0.058      338.870       11.817      861.507
06/20/2013  07:43:00      -16.694       -0.803        4.219       12.316       14.824       10.434      151.696      219.749      108.864        0.039        0.024       16.714        7.428        0.198      338.735       11.588      861.497
06/20/2013  07:44:00      -18.248       10.806        8.032       16.421       23.073       23.208      269.659      532.360      538.591        0.093        0.067       21.208       15.304        0.521      339.071       12.154      861.483
06/20/2013  07:45:00      -25.168       12.437        1.455       12.833       19.180       19.975      164.682      367.870      399.020        0.086        0.047       28.073        8.324        0.088      338.783       11.670      861.469
06/20/2013  07:46:00        0.227       20.341       16.372       21.444       18.907       21.087      459.825      357.468      444.666        0.097        0.063       20.342       10.302        0.257      339.348       12.620      861.461
06/20/2013  07:47:00       -7.532        8.269       23.483       27.339       25.388       15.537      747.446      644.563      241.413        0.115        0.082       11.185       14.155        1.601      338.986       12.011      861.452
06/20/2013  07:48:00      -13.736      -18.591       37.091       17.121       26.902       18.085      293.134      723.699      327.058        0.163        0.067       23.115       11.683        0.255      339.346       12.617      861.449
06/20/2013  07:49:00       17.384      -11.162       38.079       34.751       42.923       30.169     1207.642     1842.385      910.169        0.292        0.198       20.659       28.120        1.853      339.066       12.145      861.457
06/20/2013  07:50:00       11.271      -38.703       37.509       17.351       27.003       14.512      301.067      729.169      210.594        0.214        0.062       40.310       11.201        0.077      339.030       12.083      861.463
06/20/2013  07:51:00       26.095      -44.611       16.311       40.536       38.395       36.182     1643.170     1474.173     1309.139        0.368        0.221       51.683       20.475        0.157      339.180       12.338      861.468
06/20/2013  07:52:00       25.709       14.524       63.009       31.731       21.263       17.471     1006.887      452.102      305.232        0.330        0.088       29.528       12.618        0.183      339.355       12.631      861.466
06/20/2013  07:53:00       13.507       41.690       58.543       19.618       32.055       13.311      384.861     1027.541      177.192        0.347        0.079       43.823       12.297        0.079      339.336       12.599      861.463
06/20/2013  07:54:00       44.121       56.567       51.671       36.713       36.928       45.557     1347.877     1363.689     2075.396        0.630        0.239       71.739       32.568        0.206      338.903       11.871      861.457
06/20/2013  07:55:00       82.923       24.450       13.041       37.489       30.437       30.966     1405.457      926.427      958.878        0.547        0.165       86.452       19.679        0.052      338.794       11.688      861.451
06/20/2013  07:56:00       59.135       46.605       27.014       49.979       45.893       41.701     2497.870     2106.193     1738.983        0.637        0.317       75.293       39.669        0.278      339.110       12.219      861.442
06/20/2013  07:57:00      130.285       75.974       18.710       56.672       54.611       38.577     3211.770     2982.309     1488.155        1.539        0.384      150.818       34.315        0.052      338.935       11.924      861.438
06/20/2013  07:58:00      123.801       90.880        5.281       34.711       38.003       23.248     1204.859     1444.260      540.487        1.340        0.159      153.577       21.578        0.020      338.584       11.335      861.430
06/20/2013  07:59:00       92.263       67.962       13.488       47.197       26.768       30.414     2227.544      716.530      925.000        0.859        0.193      114.591       24.951        0.047      338.887       11.845      861.424
06/20/2013  08:00:00        6.613       42.648       62.412       26.605       32.113       26.085      707.840     1031.258      680.451        0.409        0.121       43.157       19.223        0.198      339.593       13.033      861.423
06/20/2013  08:01:00       51.994      -14.670        7.755       36.847       49.675       33.529     1357.675     2467.634     1124.225        0.396        0.247       54.024       19.979        0.137      338.873       11.821      861.422
06/20/2013  08:02:00       53.874       -0.333       47.487       51.913       49.043       33.140     2694.971     2405.212     1098.262        0.568        0.310       53.875       35.800        0.442      339.244       12.445      861.412
06/20/2013  08:03:00       28.756       21.128       59.252       40.069       47.521       40.258     1605.550     2258.242     1620.741        0.513        0.274       35.683       37.012        1.076      339.355       12.633      861.394
06/20/2013  08:04:00       28.897       43.515       74.703       43.926       42.114       34.833     1929.503     1773.557     1213.362        0.661        0.246       52.236       35.126        0.452      339.118       12.233      861.385
06/20/2013  08:05:00       52.765       -8.080       34.309       45.123       48.984       43.509     2036.072     2399.429     1893.048        0.518        0.316       53.380       44.251        0.687      339.055       12.127      861.385
06/20/2013  08:06:00        4.920       46.234        8.995       22.578       47.584       25.029      509.752     2264.262      626.466        0.282        0.170       46.495       24.021        0.267      339.184       12.344      861.392
06/20/2013  08:07:00       -7.607        6.794        5.847       15.846       18.129       17.419      251.110      328.659      303.412        0.051        0.044       10.199        9.044        0.786      339.772       13.335      861.399
06/20/2013  08:08:00      -46.427       30.610       -3.299       27.546       23.454       18.196      758.780      550.078      331.097        0.237        0.082       55.610       15.961        0.082      339.012       12.054      861.405
06/20/2013  08:09:00      -15.834        6.980       17.261       22.540       25.909       21.336      508.047      671.274      455.206        0.112        0.082       17.304       21.872        1.598      339.465       12.819      861.413
06/20/2013  08:10:00        6.141       14.333       28.518       10.838       23.920       11.346      117.462      572.178      128.738        0.094        0.041       15.594        4.516        0.084      340.126       13.931      861.421
06/20/2013  08:11:00        5.002       10.592       38.287       18.799       20.936       13.214      353.410      438.320      174.603        0.128        0.048       11.714        7.378        0.397      340.131       13.941      861.433
06/20/2013  08:12:00       63.727       45.016       29.544       47.972       37.614       27.908     2301.330     1414.819      778.858        0.573        0.225       78.023       19.791        0.064      339.646       13.122      861.425
06/20/2013  08:13:00       83.800       68.939       -8.819       76.313       52.972       43.060     5823.655     2806.069     1854.182        1.117        0.524      108.512       46.599        0.184      339.297       12.534      861.436
06/20/2013  08:14:00       49.616      112.876        4.056       44.869       67.986       45.374     2013.258     4622.058     2058.758        1.195        0.435      123.300       39.759        0.104      339.298       12.536      861.437
06/20/2013  08:15:00       34.633       -3.904       10.284       27.043       34.278       37.586      731.328     1174.960     1412.698        0.232        0.166       34.852       22.774        0.427      339.301       12.541      861.426
06/20/2013  08:16:00       85.102       56.966       25.902       41.385       25.695       36.033     1712.727      660.239     1298.370        0.741        0.184      102.409       10.159        0.010      339.177       12.332      861.405
06/20/2013  08:17:00       36.098       43.214       34.051       35.216       37.551       40.464     1240.190     1410.115     1637.318        0.431        0.214       56.308       28.415        0.255      339.587       13.023      861.396
06/20/2013  08:18:00        1.809       17.178       30.109       32.543       23.913       26.772     1059.028      571.823      716.714        0.178        0.117       17.273       17.066        0.976      339.896       13.545      861.386
06/20/2013  08:19:00       45.077       40.181       31.116       56.155       33.319       41.016     3153.357     1110.145     1682.288        0.528        0.297       60.386       17.331        0.082      339.965       13.661      861.391
06/20/2013  08:20:00      114.258       43.557       51.743       66.794       43.959       44.240     4461.399     1932.393     1957.148        1.299        0.418      122.279       34.365        0.079      339.388       12.688      861.377
06/20/2013  08:21:00       32.970       56.427       65.249       38.448       42.360       39.337     1478.248     1794.376     1547.432        0.667        0.241       65.353       20.333        0.097      339.662       13.149      861.361
06/20/2013  08:22:00       63.432       56.136       25.507       49.245       37.978       41.881     2425.115     1442.362     1754.039        0.672        0.281       84.705       17.032        0.040      339.442       12.779      861.340
06/20/2013  08:23:00      132.663      105.659       59.020       75.598       61.459       55.853     5715.052     3777.241     3119.602        2.243        0.631      169.598       43.216        0.065      339.348       12.617      861.329
06/20/2013  08:24:00       99.421       67.259       53.090       82.081       50.914       52.169     6737.321     2592.273     2721.553        1.464        0.603      120.035       41.677        0.121      339.394       12.697      861.329
06/20/2013  08:25:00      113.230       78.303        9.001       50.074       22.532       39.670     2507.361      507.686     1573.735        1.181        0.229      137.668       25.001        0.033      339.042       12.105      861.330
06/20/2013  08:26:00       71.651       73.348        5.065       57.971       31.307       34.639     3360.655      980.145     1199.848        0.804        0.277      102.537       15.371        0.022      339.117       12.231      861.329
06/20/2013  08:27:00       -6.072       44.466        0.457       33.396       42.699       34.699     1115.297     1823.203     1204.003        0.308        0.207       44.879       19.413        0.187      339.425       12.751      861.312
06/20/2013  08:28:00       75.931       56.159       30.999       54.619       36.744       29.142     2983.285     1350.152      849.250        0.753        0.259       94.442       15.333        0.026      339.399       12.706      861.304
06/20/2013  08:29:00       28.257      -32.103       40.714       40.115       50.319       33.154     1609.197     2532.022     1099.189        0.436        0.262       42.768       12.086        0.080      339.843       13.455      861.306
06/20/2013  08:30:00       40.226       82.307       86.433       73.681       47.200       50.107     5428.867     2227.829     2510.689        1.301        0.508       91.611       46.648        0.259      339.858       13.480      861.296
06/20/2013  08:31:00       62.089       59.001       74.440       53.139       56.181       46.619     2823.705     3156.335     2173.342        1.051        0.408       85.652       40.351        0.222      339.520       12.909      861.299
06/20/2013  08:32:00       88.746       87.360       53.302       55.194       30.576       38.769     3046.416      934.899     1503.031        1.192        0.274      124.530       27.423        0.048      339.311       12.557      861.284
06/20/2013  08:33:00       66.410       59.159        7.234       31.504       15.866       21.610      992.515      251.729      467.012        0.484        0.086       88.939       20.988        0.056      339.002       12.037      861.262
06/20/2013  08:34:00        6.767       34.663       10.016       23.240       25.945       22.910      540.117      673.154      524.875        0.154        0.087       35.317       18.705        0.281      339.839       13.448      861.249
06/20/2013  08:35:00       -6.820       18.967       -6.098       22.432       30.609       20.674      503.185      936.932      427.428        0.116        0.093       20.156       20.216        1.006      339.472       12.831      861.230
06/20/2013  08:36:00        1.305       36.696        6.414       20.937       37.877       28.139      438.365     1434.697      791.828        0.203        0.133       36.719       21.342        0.338      339.653       13.135      861.229
06/20/2013  08:37:00       19.652       52.903       10.652       32.014       40.877       27.749     1024.887     1670.892      770.023        0.338        0.173       56.435       27.750        0.242      339.867       13.494      861.215
06/20/2013  08:38:00       16.418       62.263        1.922       42.530       31.150       30.581     1808.769      970.348      935.219        0.393        0.186       64.391       24.983        0.151      339.889       13.531      861.206
06/20/2013  08:39:00      -32.792      134.220        7.226       31.225       41.249       38.716      974.991     1701.454     1498.945        1.166        0.209      138.167       24.702        0.032      339.901       13.551      861.181
06/20/2013  08:40:00       59.009       86.220       51.817       71.814       56.149       41.370     5157.277     3152.752     1711.518        1.181        0.501      104.479       30.701        0.086      340.515       14.589      861.177
06/20/2013  08:41:00       49.134       37.376       23.432       41.185       33.437       32.638     1696.227     1118.040     1065.256        0.412        0.194       61.734       17.015        0.076      339.625       13.087      861.170
06/20/2013  08:42:00        3.348       51.573        8.860       41.188       40.775       32.780     1696.418     1662.574     1074.554        0.359        0.222       51.682       32.895        0.405      339.783       13.355      861.160
06/20/2013  08:43:00       33.595       41.853       49.114       52.044       59.595       38.203     2708.589     3551.520     1459.437        0.650        0.386       53.668       27.600        0.264      340.095       13.880      861.141
06/20/2013  08:44:00      169.688      119.285       17.062       83.604       65.259       48.002     6989.656     4258.678     2304.224        2.843        0.678      207.420       31.422        0.023      339.461       12.807      861.128
06/20/2013  08:45:00      159.455      104.206        2.216       66.455       61.813       48.004     4416.308     3820.809     2304.350        2.341        0.527      190.486       32.601        0.029      339.501       12.874      861.107
06/20/2013  08:46:00      159.616       94.303       27.781       56.619       52.598       46.489     3205.671     2766.582     2161.238        2.164        0.407      185.392       24.278        0.017      339.766       13.324      861.103
06/20/2013  08:47:00      110.486       78.219       47.026       89.278       64.000       42.556     7970.490     4095.983     1811.002        1.720        0.694      135.371       44.305        0.107      339.948       13.632      861.102
06/20/2013  08:48:00       66.841       77.538       80.597       65.241       68.645       49.825     4256.386     4712.175     2482.514        1.421        0.573      102.372       44.650        0.190      340.054       13.809      861.092
06/20/2013  08:49:00      115.842       54.041       11.890       66.264       55.361       47.588     4390.896     3064.804     2264.660        1.310        0.486      127.827       15.141        0.014      340.046       13.797      861.083
06/20/2013  08:50:00      110.354       89.141       27.655       71.016       51.401       42.959     5043.326     2642.064     1845.475        1.521        0.477      141.860       42.931        0.092      339.747       13.292      861.065
06/20/2013  08:51:00       -0.731       13.088       48.784       32.576       48.903       29.214     1061.225     2391.548      853.451        0.343        0.215       13.108       22.944        3.064      340.416       14.421      861.036
06/20/2013  08:52:00       34.829       41.341       20.945       49.883       52.966       29.908     2488.334     2805.358      894.487        0.477        0.309       54.057       17.883        0.109      340.347       14.306      861.028
06/20/2013  08:53:00       10.257       53.246       42.127       41.735       39.293       41.418     1741.806     1543.937     1715.425        0.486        0.250       54.225       10.542        0.038      340.435       14.454      861.007
06/20/2013  08:54:00      105.291       90.013       25.787       76.169       45.897       43.982     5801.723     2106.573     1934.379        1.485        0.492      138.523       36.013        0.068      340.080       13.853      860.997
06/20/2013  08:55:00      154.963       89.767       37.769       86.249       93.026       55.368     7438.859     8653.894     3065.587        2.632        0.958      179.085       47.861        0.071      339.804       13.385      860.970
06/20/2013  08:56:00       82.329      107.478      101.154       73.066       62.348       54.742     5338.642     3887.264     2996.654        2.039        0.611      135.387       31.965        0.056      340.131       13.939      860.953
06/20/2013  08:57:00       38.677       24.557       56.337       59.138       84.525       53.465     3497.325     7144.442     2858.544        0.938        0.675       45.814       58.017        1.604      340.099       13.886      860.955
06/20/2013  08:58:00       62.068       94.846       91.651       62.691       54.210       44.258     3930.146     2938.732     1958.749        1.504        0.441      113.350       41.314        0.133      339.905       13.558      860.961
06/20/2013  08:59:00       87.047      102.652      107.318       81.162       98.520       74.784     6587.205     9706.133     5592.679        2.575        1.094      134.591       68.883        0.262      339.892       13.535      860.957
06/20/2013  09:00:00       86.412       51.473       45.893       52.247       34.686       39.994     2729.697     1203.109     1599.488        0.888        0.277      100.581        9.261        0.008      339.788       13.362      860.969
06/20/2013  09:01:00       32.940       40.663       14.338       28.911       23.909       29.408      835.845      571.654      864.843        0.261        0.114       52.331       15.909        0.092      339.710       13.230      860.974
06/20/2013  09:02:00       28.092      -49.561        1.218       53.468       64.461       40.060     2858.851     4155.240     1604.831        0.593        0.431       56.969       39.323        0.476      340.168       14.002      860.974
06/20/2013  09:03:00       49.392      -64.076       21.213       56.867       97.796       59.529     3233.903     9564.094     3543.695        1.167        0.817       80.903       65.930        0.664      340.297       14.221      860.990
06/20/2013  09:04:00      148.506       99.598       28.872       56.287       41.473       48.945     3168.192     1720.043     2395.597        2.004        0.364      178.813       40.393        0.051      339.557       12.972      860.997
06/20/2013  09:05:00       91.325       55.147       25.078       46.817       44.541       43.040     2191.875     1983.936     1852.406        0.902        0.301      106.684       37.888        0.126      339.565       12.986      861.000
06/20/2013  09:06:00       35.964        6.943       30.920       29.597       55.517       24.667      875.968     3082.121      608.467        0.343        0.228       36.628       15.451        0.178      339.923       13.589      860.987
06/20/2013  09:07:00       26.412       68.990      -12.883       22.604       45.750       22.210      510.956     2093.096      493.276        0.436        0.155       73.873       14.992        0.041      339.939       13.616      860.974
06/20/2013  09:08:00       24.224       28.863       -2.165       27.694       31.278       26.267      766.977      978.332      689.941        0.193        0.122       37.681       14.195        0.142      340.248       14.139      860.985
06/20/2013  09:09:00       56.867       31.580       26.222       44.019       56.015       42.077     1937.671     3137.700     1770.449        0.588        0.342       65.047       31.988        0.242      340.502       14.568      860.994
06/20/2013  09:10:00       69.628       78.423       90.868       81.662       67.923       68.712     6668.726     4613.485     4721.303        1.763        0.800      104.872       42.846        0.167      340.277       14.187      860.989
06/20/2013  09:11:00      102.863       63.392      103.031       68.695       73.684       58.401     4718.971     5429.292     3410.722        1.938        0.678      120.827       54.943        0.207      339.800       13.380      860.991
06/20/2013  09:12:00       79.624       62.347       76.193       67.508       87.065       46.312     4557.341     7580.260     2144.804        1.515        0.714      101.129       42.721        0.178      340.009       13.733      860.988
06/20/2013  09:13:00       31.595      -30.111       23.723       50.504       62.886       32.241     2550.608     3954.643     1039.508        0.500        0.377       43.645       20.777        0.227      340.293       14.215      860.970
06/20/2013  09:14:00      113.358      105.936       79.127       77.131       66.336       67.369     5949.144     4400.505     4538.546        2.261        0.744      155.153       40.221        0.067      340.160       13.987      860.970
06/20/2013  09:15:00      159.472      135.562       66.365       64.577       44.526       56.079     4170.225     1982.548     3144.828        2.875        0.465      209.304       45.721        0.048      339.642       13.111      860.960
06/20/2013  09:16:00       74.646      116.201      -11.876       44.945       44.750       41.768     2020.085     2002.532     1744.526        1.249        0.288      138.111       28.277        0.042      339.642       13.115      860.966
06/20/2013  09:17:00       -2.349      115.602       -9.611       38.485       79.879       39.535     1481.099     6380.602     1563.044        1.144        0.471      115.626       46.227        0.160      340.133       13.943      860.948
06/20/2013  09:18:00        5.966       41.323        5.705       34.057       47.263       29.191     1159.905     2233.749      852.132        0.301        0.212       41.751       24.640        0.348      340.511       14.583      860.947
06/20/2013  09:19:00        6.525        0.039       19.104       48.779       37.934       27.152     2379.435     1439.017      737.214        0.248        0.228        6.525       30.881       22.395      340.780       15.038      860.928
06/20/2013  09:20:00      -11.092      -21.746       28.762       26.619       27.766       20.054      708.547      770.973      402.157        0.165        0.094       24.411       17.847        0.534      341.050       15.495      860.924
06/20/2013  09:21:00       33.143      -22.617       63.677       70.488      102.927       78.839     4968.493    10593.973     6215.623        1.372        1.089       40.125       80.754        4.050      340.821       15.106      860.924
06/20/2013  09:22:00      112.573      118.121       83.388       84.427       74.972       73.448     7127.839     5620.782     5394.621        2.586        0.907      163.172       68.622        0.177      340.159       13.986      860.916
06/20/2013  09:23:00       85.651       55.468       15.749       59.655       41.904       31.323     3558.695     1755.903      981.148        0.848        0.315      102.043       27.947        0.075      340.007       13.730      860.922
06/20/2013  09:24:00      117.301       72.061       26.255       80.526       66.721       44.700     6484.385     4451.757     1998.049        1.629        0.647      137.667       13.781        0.010      340.363       14.331      860.893
06/20/2013  09:25:00      106.805       57.637       45.961      101.726       68.856       43.533    10348.124     4741.191     1895.116        1.691        0.849      121.365       35.065        0.083      340.652       14.818      860.888
06/20/2013  09:26:00       93.575       -7.029       54.206       74.404       96.954       47.874     5535.958     9400.141     2291.875        1.448        0.861       93.839       51.318        0.299      340.493       14.551      860.870
06/20/2013  09:27:00       43.583       78.658       51.399       42.784       41.826       52.021     1830.447     1749.417     2706.230        0.851        0.314       89.926       38.096        0.179      340.146       13.966      860.855
06/20/2013  09:28:00      177.744       99.779       76.389      126.380       65.912       65.302    15971.822     4344.456     4264.396        3.598        1.229      203.835       68.744        0.114      340.463       14.497      860.813
06/20/2013  09:29:00      104.925       84.336       33.550       82.649       58.451       35.400     6830.896     3416.519     1253.169        1.537        0.575      134.617       26.119        0.038      340.243       14.128      860.816
06/20/2013  09:30:00        8.577       -2.110       60.843       35.919       67.883       34.270     1290.153     4608.092     1174.433        0.542        0.354        8.833       40.388       20.907      340.584       14.707      860.799
06/20/2013  09:31:00       32.953       17.091       47.349       33.656       41.926       29.639     1132.740     1757.768      878.489        0.369        0.188       37.121       20.083        0.293      340.666       14.843      860.770
06/20/2013  09:32:00       49.305       63.013       33.373       54.407       35.987       40.331     2960.069     1295.057     1626.575        0.670        0.294       80.010       36.317        0.206      340.837       15.135      860.755
06/20/2013  09:33:00       72.057       91.102       78.714       75.595       64.557       61.755     5714.620     4167.563     3813.669        1.669        0.685      116.155       45.429        0.153      340.561       14.667      860.723
06/20/2013  09:34:00       45.905       74.217       -4.956       78.349       64.520       34.889     6138.560     4162.798     1217.260        0.958        0.576       87.266       40.952        0.220      340.129       13.937      860.724
06/20/2013  09:35:00       10.643      127.879      -10.693       41.297       73.920       41.571     1705.423     5464.230     1728.163        1.274        0.445      128.321       39.251        0.094      340.440       14.462      860.697
06/20/2013  09:36:00      -33.103       83.226       -8.214       41.755       48.974       27.450     1743.520     2398.414      753.502        0.649        0.245       89.567       23.637        0.070      340.327       14.272      860.693
06/20/2013  09:37:00      -36.991       72.247       17.655       32.427       53.335       38.349     1051.492     2844.641     1470.669        0.613        0.268       81.166       33.496        0.170      340.912       15.261      860.680
06/20/2013  09:38:00        5.058      120.524        2.921       65.457       87.533       41.986     4284.683     7662.036     1762.818        1.413        0.685      120.630       44.382        0.135      340.599       14.730      860.659
06/20/2013  09:39:00       30.620       44.328       33.158       44.270       55.314       41.321     1959.791     3059.607     1707.451        0.536        0.336       53.875       36.094        0.449      340.811       15.090      860.650
06/20/2013  09:40:00       35.437       54.499       17.323       65.507       46.174       26.636     4291.141     2132.068      709.482        0.583        0.357       65.007       22.561        0.120      340.857       15.167      860.635
06/20/2013  09:41:00       93.489       60.655       18.701       58.816       44.876       37.266     3459.322     2013.831     1388.766        0.981        0.343      111.442       32.057        0.083      340.684       14.875      860.624
06/20/2013  09:42:00      179.732      129.516        3.256       42.018       38.034       37.156     1765.479     1446.562     1380.552        2.684        0.230      221.535       17.151        0.006      340.314       14.245      860.613
06/20/2013  09:43:00       47.192       48.019       11.643       55.274       35.628       39.091     3055.207     1269.386     1528.081        0.526        0.293       67.327       22.641        0.113      341.044       15.484      860.599
06/20/2013  09:44:00       12.963       16.402       24.705       56.606       68.123       37.026     3204.265     4640.697     1370.962        0.513        0.461       20.906       23.541        1.268      341.314       15.941      860.594
06/20/2013  09:45:00       90.840       10.601       72.652       99.108       99.518       82.887     9822.329     9903.919     6870.214        2.011        1.330       91.457       76.557        0.701      341.145       15.654      860.607
06/20/2013  09:46:00       43.285       33.528       55.534       51.746       54.004       34.527     2677.680     2916.392     1192.092        0.643        0.339       54.751       21.018        0.147      340.762       15.007      860.601
06/20/2013  09:47:00      -37.374      -30.743        5.033       53.159       42.266       31.743     2825.900     1786.416     1007.594        0.399        0.281       48.393       31.716        0.430      341.029       15.459      860.611
06/20/2013  09:48:00      -45.666     -101.149        8.633       63.208      117.736       58.493     3995.233    13861.848     3421.463        1.683        1.064      110.980       66.901        0.363      340.940       15.307      860.599
06/20/2013  09:49:00       -3.226     -177.458      -12.065       66.568       95.439       42.599     4431.283     9108.577     1814.657        2.350        0.768      177.487       21.585        0.015      340.469       14.509      860.597
06/20/2013  09:50:00        6.917     -108.070       -3.249       75.702       83.586       54.705     5730.846     6986.543     2992.689        1.372        0.786      108.291       41.826        0.149      341.037       15.473      860.599
06/20/2013  09:51:00     -113.602     -121.362       -6.830      100.367       86.057       62.531    10073.537     7405.873     3910.070        2.453        1.069      166.236       56.027        0.114      340.657       14.825      860.605
06/20/2013  09:52:00     -118.061     -114.115      -10.535       57.957       62.535       31.326     3358.987     3910.606      981.346        1.766        0.413      164.196       24.859        0.023      340.249       14.139      860.620
06/20/2013  09:53:00     -144.417      -93.290      -13.608       48.275       56.297       29.167     2330.437     3169.379      850.734        1.805        0.318      171.928       21.870        0.016      340.150       13.971      860.584
06/20/2013  09:54:00      -66.601      -20.342       12.465       37.481       65.998       27.805     1404.828     4355.763      773.104        0.577        0.327       69.638       37.753        0.294      340.586       14.710      860.562
06/20/2013  09:55:00       -3.521       11.080       24.059       38.028       38.951       31.915     1446.141     1517.205     1018.598        0.235        0.199       11.626        3.645        0.098      341.122       15.616      860.555
06/20/2013  09:56:00        7.512     -117.192        8.828       55.124       77.610       42.564     3038.705     6023.293     1811.663        1.237        0.544      117.433       33.492        0.081      340.818       15.101      860.549
06/20/2013  09:57:00       30.786      -66.174        6.947       57.053      104.339       62.490     3255.072    10886.701     3904.975        1.171        0.902       72.985       59.709        0.669      340.876       15.200      860.528
06/20/2013  09:58:00       86.939       52.093       55.298       91.820       93.246       56.800     8430.974     8694.829     3226.291        1.684        1.018      101.351       40.077        0.156      340.977       15.369      860.535
06/20/2013  09:59:00       62.383     -128.927       -6.989       49.199       41.192       42.608     2420.497     1696.784     1815.427        1.325        0.297      143.227        8.141        0.003      340.308       14.239      860.535
06/20/2013  10:00:00        8.002      -91.278      -15.636       25.377       17.844       21.221      644.005      318.419      450.336        0.503        0.071       91.628       10.608        0.013      340.227       14.103      860.529
06/20/2013  10:01:00       75.730       38.818        9.832       47.090       56.417       39.793     2217.478     3182.903     1583.459        0.716        0.349       85.099       19.681        0.053      340.846       15.149      860.510
06/20/2013  10:02:00       31.303       22.203       38.728       43.129       42.606       30.379     1860.150     1815.259      922.854        0.378        0.230       38.378       14.120        0.135      341.428       16.134      860.481
06/20/2013  10:03:00        8.299       42.891       98.204       49.260       60.987       43.896     2426.531     3719.376     1926.829        0.981        0.404       43.687       44.022        1.015      341.289       15.900      860.466
06/20/2013  10:04:00       52.174      -19.976       44.669       94.803      105.294       73.626     8987.528    11086.800     5420.797        1.530        1.275       55.868       78.628        1.981      341.095       15.569      860.452
06/20/2013  10:05:00       62.808       42.116       95.381       67.762       61.859       51.177     4591.640     3826.588     2619.095        1.292        0.552       75.622       43.074        0.324      341.275       15.875      860.448
06/20/2013  10:06:00      118.659       32.425       49.882       86.503       94.400       54.584     7482.704     8911.436     2979.445        1.849        0.969      123.009       52.194        0.180      340.778       15.033      860.436
06/20/2013  10:07:00       93.291      109.522      113.182       96.115       58.783       61.309     9238.129     3455.463     3758.818        2.498        0.823      143.869       52.475        0.133      340.860       15.170      860.425
06/20/2013  10:08:00       38.492      -35.438        0.784       81.989       60.735       32.230     6722.131     3688.724     1038.753        0.709        0.572       52.321       18.959        0.131      340.651       14.818      860.425
06/20/2013  10:09:00       33.316      -28.417       17.099       51.148       78.708       44.621     2616.133     6194.905     1991.016        0.650        0.540       43.789       49.731        1.290      340.827       15.117      860.424
06/20/2013  10:10:00       -0.234      -46.118       21.646       86.001       58.651       42.755     7396.163     3439.940     1827.967        0.763        0.633       46.118       40.514        0.772      341.075       15.535      860.393
06/20/2013  10:11:00     -117.532      -22.301       11.228       45.069       61.087       37.658     2031.248     3731.662     1418.142        1.081        0.359      119.629       39.343        0.108      340.695       14.893      860.385
06/20/2013  10:12:00      -64.464      -29.150       -1.970       49.440       43.018       29.578     2444.273     1850.540      874.837        0.509        0.258       70.748       28.900        0.167      340.868       15.186      860.375
06/20/2013  10:13:00      -31.228      -56.673        1.037       46.908       38.998       23.182     2200.384     1520.807      537.389        0.422        0.213       64.707       11.125        0.030      340.636       14.793      860.364
06/20/2013  10:14:00      -86.308      -53.027       16.801       82.188       66.000       44.020     6754.875     4356.027     1937.762        1.179        0.652      101.296       43.921        0.188      340.937       15.302      860.348
06/20/2013  10:15:00       -9.511      -31.319       34.492       60.065       72.025       38.454     3607.813     5187.554     1478.723        0.627        0.514       32.732       31.706        0.938      341.396       16.080      860.335
06/20/2013  10:16:00      -34.430      -23.920       12.293       47.011       34.705       26.725     2210.039     1204.430      714.221        0.302        0.206       41.924       25.558        0.372      341.439       16.154      860.330
06/20/2013  10:17:00      -43.974      -26.881        3.670       35.941       30.884       22.701     1291.727      953.818      515.336        0.271        0.138       51.539       23.432        0.207      340.947       15.319      860.318
06/20/2013  10:18:00      -24.245       45.749       26.947       48.876       37.550       35.250     2388.817     1410.008     1242.567        0.422        0.252       51.776       28.277        0.298      341.709       16.611      860.310
06/20/2013  10:19:00      -34.089       42.442        2.433       46.677       46.463       29.564     2178.702     2158.821      874.044        0.409        0.261       54.437       28.212        0.269      341.728       16.644      860.303
06/20/2013  10:20:00       44.488      -76.635      -10.029       76.147      102.265       49.722     5798.405    10458.186     2472.291        1.334        0.936       88.612       42.769        0.233      341.714       16.619      860.286
06/20/2013  10:21:00       86.745      -87.159       -0.323       81.479       83.096       50.445     6638.793     6904.918     2544.737        1.560        0.804      122.969       54.342        0.195      341.363       16.025      860.291
06/20/2013  10:22:00       78.325       68.906       81.182       65.757       53.426       38.556     4323.947     2854.323     1486.601        1.307        0.433      104.321       24.385        0.055      341.283       15.887      860.274
06/20/2013  10:23:00       62.879       59.925       79.186       58.585       57.608       38.923     3432.181     3318.634     1514.991        1.104        0.413       86.861       34.360        0.156      340.904       15.245      860.262
06/20/2013  10:24:00        0.820       -1.094       -8.879       16.659       49.932       23.680      277.506     2493.181      560.748        0.171        0.167        1.367       25.221      340.183      340.827       15.117      860.234
06/20/2013  10:25:00       37.715      -17.538       21.370       46.921       50.600       43.459     2201.620     2560.315     1888.673        0.442        0.333       41.593       43.431        1.090      341.090       15.562      860.212
06/20/2013  10:26:00      153.152       45.908       40.053       72.254      103.370       49.802     5220.662    10685.285     2480.248        2.277        0.919      159.884       32.158        0.040      341.225       15.789      860.205
06/20/2013  10:27:00      231.125      155.430       74.936      109.814       78.818       81.547    12059.080     6212.340     6649.877        5.405        1.246      278.528       37.116        0.018      341.049       15.489      860.181
06/20/2013  10:28:00      210.804      120.327       95.111      143.062       97.824       94.318    20466.790     9569.477     8895.874        5.344        1.947      242.728       84.626        0.122      341.058       15.506      860.149
06/20/2013  10:29:00      130.550       68.135       18.219      101.894       92.226       76.568    10382.407     8505.613     5862.649        2.338        1.238      147.260       34.709        0.056      341.163       15.685      860.169
06/20/2013  10:30:00      163.930       95.723       46.818       89.841       80.042       57.379     8071.440     6406.767     3292.300        2.800        0.889      189.832       27.795        0.021      341.309       15.930      860.151
06/20/2013  10:31:00      149.229       88.641       11.027       91.369       79.858       49.872     8348.247     6377.294     2487.196        2.373        0.861      173.570       35.395        0.042      341.296       15.908      860.134
06/20/2013  10:32:00      163.754      131.924       -1.532       99.718       75.563       62.040     9943.766     5709.737     3848.915        3.186        0.975      210.284       42.377        0.041      341.164       15.685      860.135
06/20/2013  10:33:00      121.337      108.254        7.710       69.690       49.799       56.426     4856.721     2479.971     3183.941        1.851        0.526      162.609       37.016        0.052      341.234       15.804      860.120
06/20/2013  10:34:00      148.680      106.419       16.143       42.819       45.918       38.797     1833.473     2108.439     1505.212        1.957        0.272      182.841       23.736        0.017      341.190       15.731      860.124
06/20/2013  10:35:00       73.017       44.201       16.064       53.943       38.320       46.119     2909.840     1468.415     2126.964        0.702        0.325       85.354       40.933        0.230      341.200       15.748      860.114
06/20/2013  10:36:00       -1.316       52.244       25.241       41.531       46.909       27.589     1724.810     2200.497      761.163        0.403        0.234       52.260       27.314        0.273      341.587       16.403      860.098
06/20/2013  10:37:00       82.966       41.840       14.899       52.004       42.148       38.996     2704.437     1776.434     1520.727        0.743        0.300       92.919       28.303        0.093      341.133       15.634      860.101
06/20/2013  10:38:00      114.677       39.167       33.446       82.397       55.266       49.135     6789.235     3054.360     2414.208        1.403        0.613      121.181       35.012        0.083      341.542       16.327      860.086
06/20/2013  10:39:00      145.794     -114.183       -5.294       86.400       82.922       46.110     7464.918     6876.058     2126.149        2.539        0.823      185.186       45.036        0.059      341.392       16.070      860.085
06/20/2013  10:40:00       62.698      -46.081       17.253       77.908       91.257       38.119     6069.582     8327.894     1453.047        1.110        0.793       77.811       57.093        0.538      341.429       16.136      860.071
06/20/2013  10:41:00       20.347      -50.835        2.435       43.123       53.819       32.716     1859.614     2896.449     1070.356        0.441        0.291       54.756       32.276        0.347      341.934       16.994      860.050
06/20/2013  10:42:00       35.812      -36.501       21.946       46.537       96.558       54.150     2165.668     9323.542     2932.178        0.876        0.721       51.135       61.527        1.448      342.074       17.229      860.045
06/20/2013  10:43:00      125.238       64.955       67.486       92.193       79.615       68.250     8499.473     6338.565     4658.130        2.197        0.975      141.081       48.552        0.118      341.614       16.446      860.041
06/20/2013  10:44:00       82.936       67.697       51.011       68.269       57.209       42.573     4660.602     3272.878     1812.462        1.190        0.487      107.057       27.050        0.064      341.236       15.808      860.030
06/20/2013  10:45:00       85.888       61.591       38.737       51.594       47.026       41.989     2661.963     2211.419     1763.093        0.965        0.332      105.690       26.504        0.063      341.697       16.591      860.029
06/20/2013  10:46:00       30.816       25.022       47.245       53.693       49.303       47.903     2882.954     2430.805     2294.677        0.571        0.380       39.696       17.398        0.192      342.285       17.589      860.025
06/20/2013  10:47:00       82.281       69.224       71.900       95.848       98.421       56.861     9186.890     9686.711     3233.220        1.942        1.105      107.527       44.400        0.171      342.150       17.356      860.023
06/20/2013  10:48:00       54.028       -5.268       49.314       78.281      112.836       67.283     6127.889    12731.924     4527.016        1.438        1.169       54.284       64.144        1.396      342.039       17.169      860.027
06/20/2013  10:49:00      133.870      125.307      118.149      135.284       93.170       88.671    18301.844     8680.628     7862.477        4.121        1.742      183.366       51.506        0.079      341.725       16.636      859.999
06/20/2013  10:50:00      147.935      137.185      109.445      143.600      103.896      103.862    20620.866    10794.384    10787.266        4.743        2.110      201.753       86.888        0.185      341.532       16.308      860.015
06/20/2013  10:51:00      195.757      150.771      126.437      151.967      118.108       85.615    23094.088    13949.529     7329.876        6.070        2.219      247.088       78.763        0.102      341.316       15.940      860.032
06/20/2013  10:52:00      101.529      109.120      124.253       95.852       95.514       74.195     9187.569     9122.954     5504.923        3.073        1.191      149.048       59.874        0.161      341.584       16.395      860.054
06/20/2013  10:53:00      219.103      144.195       30.868       66.167       59.822       60.815     4378.052     3578.719     3698.502        4.070        0.583      262.295       19.529        0.006      341.171       15.695      860.089
06/20/2013  10:54:00      154.360      117.442       17.915      102.895       76.670       46.443    10587.446     5878.288     2156.984        2.828        0.931      193.958       25.012        0.017      341.195       15.739      860.087
06/20/2013  10:55:00       50.180       83.110        3.182       45.791       51.724       42.244     2096.796     2675.339     1784.514        0.799        0.328       97.084       36.023        0.138      341.408       16.100      860.067
06/20/2013  10:56:00       86.128       57.881       26.029       65.560       53.718       47.067     4298.124     2885.647     2215.346        1.042        0.470      103.771       26.579        0.066      341.579       16.390      860.065
06/20/2013  10:57:00      120.298       29.308       50.769       76.364      114.469       55.406     5831.417    13103.064     3069.822        1.995        1.100      123.817       62.302        0.253      341.381       16.053      860.060
06/20/2013  10:58:00      140.940      -57.717       39.384       99.794       94.481       67.632     9958.899     8926.621     4574.073        2.410        1.173      152.301       56.040        0.135      341.809       16.778      860.023
06/20/2013  10:59:00       81.397      -69.500       65.602       99.397      149.129       98.961     9879.696    22239.449     9793.292        2.883        2.096      107.031      108.111        1.020      341.940       17.001      860.029
06/20/2013  11:00:00       97.386       -0.510       70.681       87.626      103.758       65.034     7678.393    10765.781     4229.433        1.857        1.134       97.387       65.921        0.458      341.698       16.589      860.078
06/20/2013  11:01:00      -27.867       23.143      -11.298       62.505       46.238       32.077     3906.834     2137.996     1028.909        0.426        0.354       36.224       36.814        1.033      341.257       15.844      860.084
06/20/2013  11:02:00       84.371     -109.801       11.283       77.924      104.515       69.021     6072.206    10923.303     4763.848        2.053        1.088      138.473       74.201        0.287      341.578       16.386      860.093
06/20/2013  11:03:00       29.649       27.948       76.225       47.122       62.736       39.988     2220.441     3935.772     1599.037        0.761        0.388       40.745       42.733        1.100      341.698       16.591      860.102
06/20/2013  11:04:00       51.677       46.023       45.476       52.899       30.038       36.365     2798.338      902.269     1322.383        0.594        0.251       69.200       26.299        0.144      341.459       16.186      860.084
06/20/2013  11:05:00       41.104     -100.222       -4.252       54.195       67.056       35.660     2937.104     4496.454     1271.644        1.023        0.435      108.324       23.733        0.048      341.550       16.341      860.074
06/20/2013  11:06:00       28.878       37.996       56.845       53.986       60.454       45.114     2914.476     3654.694     2035.294        0.706        0.430       47.724       33.576        0.495      341.935       16.994      860.076
06/20/2013  11:07:00       10.998       40.396       34.454       52.903       32.953       27.168     2798.718     1085.903      738.127        0.378        0.231       41.867       15.965        0.145      342.347       17.693      860.073
06/20/2013  11:08:00      113.712       98.143      113.667       91.435       84.756       74.544     8360.445     7183.532     5556.812        2.829        1.055      150.208       62.620        0.174      341.710       16.610      860.065
06/20/2013  11:09:00      232.896      156.312       30.130       76.406       52.775       68.221     5837.919     2785.209     4654.139        4.643        0.664      280.489       40.540        0.021      341.414       16.107      860.058
06/20/2013  11:10:00      194.237      128.962       22.483       80.224       66.422       47.083     6435.872     4411.893     2216.837        3.396        0.653      233.151       37.332        0.026      341.650       16.507      860.053
06/20/2013  11:11:00       87.172       77.725       66.152       99.429       59.791       52.239     9886.072     3574.982     2728.952        1.710        0.810      116.791       46.174        0.156      342.293       17.600      860.053
06/20/2013  11:12:00       20.222       17.997       63.898       55.026       54.667       46.880     3027.881     2988.443     2197.754        0.651        0.411       27.071       36.677        1.836      342.654       18.216      860.058
06/20/2013  11:13:00       61.957      -26.509       23.134       54.156       53.971       46.971     2932.865     2912.873     2206.299        0.656        0.403       67.390       44.742        0.441      341.832       16.819      860.062
06/20/2013  11:14:00       32.818      -41.661        1.879       29.850       37.848       30.730      891.015     1432.458      944.347        0.304        0.163       53.034       25.654        0.234      341.925       16.976      860.062
06/20/2013  11:15:00       40.850        3.508       30.863       26.241       27.050       24.944      688.590      731.680      622.218        0.234        0.102       41.000       17.688        0.186      342.125       17.317      860.041
06/20/2013  11:16:00      -15.567        3.111       28.351       28.369       18.234       24.920      804.801      332.482      620.991        0.141        0.088       15.875       16.351        1.061      342.504       17.962      860.028
06/20/2013  11:17:00        7.190       14.775       50.393       25.426       35.727       27.095      646.467     1276.412      734.132        0.273        0.133       16.431       14.691        0.799      342.930       18.685      860.030
06/20/2013  11:18:00      128.331      109.663       22.499       65.106       54.680       42.458     4238.784     2989.878     1802.722        1.901        0.452      168.804       35.583        0.044      341.864       16.872      860.017
06/20/2013  11:19:00       67.074       56.761       22.394       55.310       38.274       42.829     3059.172     1464.868     1834.291        0.729        0.318       87.868       21.486        0.060      342.285       17.589      859.980
06/20/2013  11:20:00       20.565       26.030        3.856       46.300       52.963       36.634     2143.700     2805.041     1342.027        0.370        0.315       33.174       24.302        0.537      342.234       17.501      859.967
06/20/2013  11:21:00      100.858     -180.539       -2.895       73.582       52.743       47.462     5414.250     2781.783     2252.688        2.661        0.522      206.801       35.764        0.030      341.637       16.484      859.960
06/20/2013  11:22:00       73.168      -60.979       40.619       46.561      104.346       52.120     2167.962    10888.142     2716.525        1.324        0.789       95.247       56.262        0.349      342.234       17.503      859.940
06/20/2013  11:23:00       20.247       41.811       19.179       26.458       31.562       24.399      700.022      996.154      595.295        0.241        0.115       46.456       16.231        0.122      342.340       17.680      859.952
06/20/2013  11:24:00      104.991        5.834        7.890       62.178       59.931       50.978     3866.161     3591.733     2598.723        1.059        0.503      105.153       31.594        0.090      342.351       17.701      859.944
06/20/2013  11:25:00       44.019       68.866        5.838       40.423       51.211       38.545     1634.059     2622.544     1485.687        0.623        0.287       81.732       33.621        0.169      342.328       17.662      859.922
06/20/2013  11:26:00       28.623       -0.982       37.717       26.543       34.030       29.165      704.524     1158.065      850.569        0.248        0.136       28.640       23.667        0.683      342.591       18.107      859.910
06/20/2013  11:27:00       70.837       86.226       73.982       58.374       43.510       38.295     3407.517     1893.095     1466.474        1.235        0.338      111.592       19.142        0.029      342.622       18.160      859.883
06/20/2013  11:28:00       70.770     -107.294       14.133      117.324      107.562       67.559    13764.950    11569.480     4564.267        2.330        1.495      128.532       60.027        0.218      342.302       17.615      859.882
06/20/2013  11:29:00       64.104      -98.494       18.110       75.550      117.251       63.068     5707.870    13747.830     3977.527        1.878        1.172      117.518       51.264        0.190      342.565       18.064      859.863
06/20/2013  11:30:00       74.744      -77.314       40.729       99.318      223.663       95.914     9864.071    50025.174     9199.587        4.114        3.454      107.536      134.177        1.557      342.168       17.385      859.860
06/20/2013  11:31:00      191.369     -217.159      -54.314       84.998      123.763       54.478     7224.706    15317.252     2967.894        5.611        1.275      289.448       52.194        0.033      341.836       16.822      859.883
06/20/2013  11:32:00       -6.627      -73.480        6.463       75.770       75.813       51.844     5741.078     5747.642     2687.788        0.983        0.709       73.778       48.428        0.431      342.425       17.826      859.874
06/20/2013  11:33:00       31.501      -27.111       41.943       62.787       82.418       46.594     3942.264     6792.699     2170.999        0.819        0.645       41.561       50.313        1.466      342.603       18.128      859.886
06/20/2013  11:34:00      -19.480       38.207       47.513       43.354       37.868       32.667     1879.548     1434.000     1067.123        0.424        0.219       42.887       32.225        0.565      342.636       18.184      859.872
06/20/2013  11:35:00     -109.049       29.209       -7.281       51.147       28.815       29.735     2616.055      830.288      884.162        0.856        0.217      112.893       26.662        0.056      342.001       17.104      859.852
06/20/2013  11:36:00      -27.980       27.341       -3.750       22.515       26.771       27.714      506.931      716.682      768.091        0.177        0.100       39.121       18.227        0.217      342.107       17.286      859.853
06/20/2013  11:37:00      -10.252       74.781        3.513       28.295       45.857       28.222      800.604     2102.857      796.477        0.470        0.185       75.481       24.266        0.103      342.365       17.724      859.828
06/20/2013  11:38:00     -119.693       69.802       -7.222       60.950       50.996       36.884     3714.942     2600.592     1360.442        1.346        0.384      138.559       34.910        0.063      342.242       17.515      859.820
06/20/2013  11:39:00     -152.016       80.481      -10.470      142.468       53.361       38.619    20297.264     2847.374     1491.465        2.716        1.232      172.006       56.624        0.108      342.441       17.852      859.807
06/20/2013  11:40:00     -164.981       10.306      -19.391       72.074       51.828       28.665     5194.721     2686.157      821.659        1.820        0.435      165.303       32.155        0.038      342.098       17.269      859.790
06/20/2013  11:41:00     -104.731       38.522       -4.104       67.454       70.374       42.008     4550.103     4952.440     1764.651        1.187        0.563      111.591       28.202        0.064      342.712       18.313      859.773
06/20/2013  11:42:00     -178.071      -90.380       -4.800      108.915       96.746       51.564    11862.508     9359.718     2658.810        3.189        1.194      199.694       59.215        0.088      342.388       17.761      859.770
06/20/2013  11:43:00     -249.089      -47.477       -3.040      122.174       82.108       50.446    14926.554     6741.795     2544.791        4.426        1.211      253.573       57.722        0.052      342.084       17.244      859.773
06/20/2013  11:44:00     -262.041     -108.814       -0.349      138.672       92.010       52.179    19229.999     8465.871     2722.605        5.546        1.521      283.736       62.308        0.048      342.011       17.118      859.768
06/20/2013  11:45:00     -221.617      -73.331      -18.656      107.935       96.603       65.796    11650.020     9332.133     4329.166        4.007        1.266      233.435       63.639        0.074      342.164       17.380      859.760
06/20/2013  11:46:00      -91.778       -6.369        9.139       91.268       34.531       35.490     8329.929     1192.401     1259.563        0.966        0.539       91.998       45.182        0.241      342.488       17.933      859.740
06/20/2013  11:47:00     -243.294      -75.659        2.372      128.078       96.820       55.804    16403.859     9374.176     3114.082        4.690        1.445      254.787       64.765        0.065      342.301       17.613      859.716
06/20/2013  11:48:00     -273.293      -47.075       -7.536       82.177       60.669       38.988     6753.042     3680.742     1520.096        4.446        0.598      277.317       39.529        0.020      341.771       16.712      859.696
06/20/2013  11:49:00     -200.628      -43.064        6.247       80.171       56.818       40.099     6427.426     3228.241     1607.920        2.670        0.563      205.198       46.169        0.051      342.195       17.432      859.676
06/20/2013  11:50:00     -154.002      -44.725        8.052      105.408       67.423       45.197    11110.865     4545.906     2042.745        2.174        0.885      160.365       50.444        0.099      342.449       17.864      859.661
06/20/2013  11:51:00      -96.599       -5.350        3.018       70.265       61.754       37.673     4937.116     3813.605     1419.284        0.977        0.509       96.747       41.112        0.181      342.914       18.659      859.641
06/20/2013  11:52:00      -38.628       58.711       21.998       56.570       48.740       36.680     3200.134     2375.604     1345.407        0.617        0.346       70.279       32.326        0.212      343.060       18.906      859.632
06/20/2013  11:53:00      -55.624        0.382       23.019       64.230       40.627       28.843     4125.437     1650.529      831.937        0.511        0.330       55.625       25.569        0.211      342.644       18.199      859.636
06/20/2013  11:54:00       22.179      -29.015       21.753       45.053       72.277       39.020     2029.753     5223.990     1522.536        0.529        0.439       36.521       39.542        1.172      342.984       18.776      859.622
06/20/2013  11:55:00      -10.881      -64.190       10.801       37.133       79.806       35.430     1378.869     6369.020     1255.258        0.668        0.450       65.106       42.735        0.431      342.530       18.003      859.596
06/20/2013  11:56:00       39.251       42.484       32.582       59.857       38.901       39.794     3582.828     1513.295     1583.524        0.554        0.334       57.841       42.389        0.537      343.275       19.273      859.590
06/20/2013  11:57:00       78.592       76.322       32.836       97.721       74.013       56.697     9549.369     5477.893     3214.564        1.566        0.912      109.552       35.509        0.105      342.835       18.522      859.589
06/20/2013  11:58:00       47.490       37.128       22.083       85.466       53.660       44.784     7304.472     2879.387     2005.635        0.815        0.609       60.281       24.295        0.162      343.018       18.832      859.569
06/20/2013  11:59:00       22.569      -38.180       17.182       82.538       92.143       47.706     6812.565     8490.293     2275.843        0.992        0.879       44.351       19.946        0.202      343.114       18.998      859.550
06/20/2013  12:00:00       92.140       68.658      104.738      117.948      120.217       99.905    13911.792    14452.172     9980.952        3.125        1.917      114.907       92.748        0.652      342.724       18.332      859.528
06/20/2013  12:01:00      219.275      220.941      145.603      160.509       99.049      105.636    25763.084     9810.669    11158.909        8.241        2.337      311.282       82.826        0.071      342.385       17.755      859.520
06/20/2013  12:02:00      197.167      132.849       27.737       73.347       55.662       52.534     5379.788     3098.231     2759.788        3.426        0.562      237.747       25.620        0.012      342.077       17.232      859.541
06/20/2013  12:03:00      113.424       54.144       28.520       77.210       73.322       43.556     5961.378     5376.188     1897.105        1.492        0.662      125.684       32.865        0.068      342.433       17.838      859.531
06/20/2013  12:04:00        8.699       35.257       56.275       51.599       67.550       54.554     2662.414     4562.959     2976.136        0.734        0.510       36.314       45.120        1.544      342.956       18.730      859.514
06/20/2013  12:05:00      240.171      191.453       91.551      117.189       69.629       74.717    13733.377     4848.197     5582.570        6.344        1.208      307.142       70.832        0.053      342.406       17.789      859.492
06/20/2013  12:06:00      244.278      171.437       34.073       72.082       63.389       69.815     5195.798     4018.105     4874.142        5.215        0.704      298.433       38.791        0.017      342.342       17.682      859.498
06/20/2013  12:07:00      141.406      152.917       99.460      143.036       78.840       86.063    20459.422     6215.726     7406.861        4.367        1.704      208.277       85.261        0.168      342.668       18.236      859.483
06/20/2013  12:08:00      114.486       93.151       62.517       85.528       63.086       71.740     7315.007     3979.876     5146.611        2.106        0.822      147.595       36.350        0.061      342.526       17.996      859.493
06/20/2013  12:09:00       -1.175       85.370       -6.715      103.376       73.465       45.376    10686.666     5397.145     2059.017        1.274        0.907       85.378       52.944        0.385      342.385       17.757      859.485
06/20/2013  12:10:00      -13.569       11.748        6.459       53.787       43.876       34.662     2893.086     1925.092     1201.457        0.319        0.301       17.948       33.158        3.413      342.825       18.507      859.448
06/20/2013  12:11:00       46.839      116.741        0.822       48.023       62.999       49.430     2306.163     3968.829     2443.288        1.227        0.436      125.787       41.184        0.107      342.774       18.420      859.442
06/20/2013  12:12:00      210.794      126.919       69.199      157.389       89.252       83.006    24771.296     7965.896     6890.038        5.247        1.981      246.054       80.174        0.106      342.740       18.358      859.422
06/20/2013  12:13:00       82.827      116.893      136.171      119.158       97.115       84.775    14198.700     9431.405     7186.728        3.494        1.541      143.263       84.125        0.345      342.855       18.556      859.381
06/20/2013  12:14:00      184.488      131.124        5.625      132.545       73.327       57.339    17568.240     5376.792     3287.756        3.874        1.312      226.338       22.136        0.010      342.293       17.601      859.406
06/20/2013  12:15:00       84.511       95.083       67.412       81.145       47.730       47.792     6584.444     2278.189     2284.060        1.593        0.557      127.212       30.145        0.056      342.672       18.245      859.414
06/20/2013  12:16:00       56.877       27.202        8.585       40.945       61.292       32.306     1676.501     3756.678     1043.675        0.526        0.324       63.047       19.002        0.091      342.747       18.372      859.402
06/20/2013  12:17:00       -0.326       83.028       10.351       50.935       81.583       42.168     2594.414     6655.801     1778.174        0.901        0.551       83.029       47.301        0.325      343.043       18.877      859.396
06/20/2013  12:18:00      -24.255      204.221      -17.239       54.633       83.393       36.259     2984.761     6954.442     1314.698        2.692        0.563      205.656       37.013        0.032      342.693       18.280      859.403
06/20/2013  12:19:00       11.707      196.807      -25.560       78.591       83.164       53.504     6176.538     6916.247     2862.689        2.774        0.798      197.155       38.532        0.038      342.694       18.282      859.389
06/20/2013  12:20:00       70.267       85.070       28.539      124.308       57.337       47.216    15452.498     3287.529     2229.333        1.698        1.048      110.338       47.175        0.183      343.108       18.987      859.352
06/20/2013  12:21:00      170.609       83.504       45.760       86.107       71.461       62.528     7414.423     5106.616     3909.779        2.730        0.822      189.949       51.204        0.073      342.828       18.509      859.341
06/20/2013  12:22:00      111.986       49.461       17.817       95.776       65.992       55.059     9172.961     4354.945     3031.535        1.593        0.828      122.422       35.121        0.082      342.631       18.174      859.339
06/20/2013  12:23:00     -105.643      -41.390       -9.195       63.388       74.067       41.300     4018.064     5485.936     1705.657        1.208        0.560      113.462       13.521        0.014      342.497       17.948      859.320
06/20/2013  12:24:00       19.031       15.044       41.534       29.162       31.865       24.523      850.417     1015.381      601.355        0.239        0.123       24.259       14.125        0.339      343.645       19.903      859.302
06/20/2013  12:25:00       -9.431       31.482       13.736       45.529       39.039       30.433     2072.897     1524.067      926.183        0.290        0.226       32.864       19.972        0.369      343.071       18.926      859.302
06/20/2013  12:26:00        2.328       58.561        4.172       31.645       61.901       27.639     1001.436     3831.713      763.892        0.452        0.280       58.607       32.035        0.299      343.367       19.430      859.291
06/20/2013  12:27:00       17.500       32.824       27.609       45.343       35.313       26.992     2055.954     1247.020      728.581        0.309        0.202       37.198       19.911        0.287      344.127       20.725      859.286
06/20/2013  12:28:00       47.744      165.874       -5.185       64.246      122.651       55.518     4127.603    15043.297     3082.230        2.603        1.113      172.608       62.274        0.130      343.300       19.313      859.293
06/20/2013  12:29:00       24.448      181.902      -20.601       48.490       50.955       33.755     2351.261     2596.389     1139.408        2.010        0.304      183.537       34.315        0.035      342.743       18.366      859.289
06/20/2013  12:30:00       60.114       93.098        3.600       50.112       56.303       52.396     2511.175     3170.028     2745.373        1.036        0.421      110.820       36.713        0.110      343.076       18.933      859.289
06/20/2013  12:31:00       22.859      108.442        8.229       62.427       63.459       41.189     3897.169     4027.051     1696.572        1.098        0.481      110.825       38.692        0.122      342.955       18.727      859.283
06/20/2013  12:32:00       25.187       53.452       16.938       46.676       41.201       37.786     2178.691     1697.525     1427.819        0.454        0.265       59.088       28.726        0.236      343.479       19.621      859.265
06/20/2013  12:33:00       13.771       25.414       16.940       46.757       38.316       25.197     2186.192     1468.090      634.877        0.270        0.214       28.905       15.501        0.288      343.508       19.669      859.246
06/20/2013  12:34:00       70.622       48.720        1.919       44.515       36.637       32.858     1981.593     1342.266     1079.661        0.588        0.220       85.797       21.544        0.063      343.440       19.553      859.227
06/20/2013  12:35:00       -5.829       32.254       21.426       72.391       32.846       44.182     5240.441     1078.836     1952.006        0.490        0.414       32.777        8.194        0.062      343.702       20.000      859.216
06/20/2013  12:36:00      -16.444       13.136       23.294       23.960       28.755       22.483      574.086      826.841      505.489        0.145        0.095       21.046       15.236        0.524      344.276       20.981      859.212
06/20/2013  12:37:00       65.681       66.420       43.373       74.287       44.946       53.902     5518.608     2020.155     2905.408        1.052        0.522       93.411       51.825        0.308      343.898       20.335      859.188
06/20/2013  12:38:00       65.369      -34.887       30.380       72.981       77.286       71.086     5326.175     5973.165     5053.210        1.138        0.818       74.095       69.275        0.874      343.034       18.860      859.174
06/20/2013  12:39:00       75.061       31.005       62.085       40.439       47.165       37.241     1635.294     2224.511     1386.884        0.785        0.262       81.212       22.734        0.078      343.458       19.585      859.154
06/20/2013  12:40:00      139.712     -171.903      -33.385       74.369       65.496       50.300     5530.701     4289.782     2530.092        3.127        0.618      221.518       36.123        0.027      342.940       18.698      859.137
06/20/2013  12:41:00       33.755      -85.789       24.390       55.016      104.036       48.148     3026.810    10823.413     2318.215        1.263        0.808       92.190       43.473        0.222      343.164       19.083      859.108
06/20/2013  12:42:00       25.763      -44.083       30.964       33.541       54.840       30.090     1124.971     3007.446      905.393        0.430        0.252       51.059       32.898        0.415      343.531       19.710      859.090
06/20/2013  12:43:00       84.094       58.744       27.190       69.998       50.388       35.576     4899.720     2538.919     1265.656        0.998        0.435      102.580       35.714        0.121      343.236       19.205      859.089
06/20/2013  12:44:00       64.283       14.433        7.650       32.005       42.203       31.290     1024.296     1781.106      979.081        0.409        0.189       65.883       20.413        0.096      343.164       19.082      859.075
06/20/2013  12:45:00       77.336      -58.053        3.024       98.475       90.128       53.550     9697.315     8123.078     2867.609        1.502        1.034       96.701       58.769        0.369      343.370       19.432      859.066
06/20/2013  12:46:00      148.411     -148.419       15.712      126.849      134.240       82.727    16090.550    18020.507     6843.715        4.262        2.048      209.891       96.651        0.212      343.351       19.399      859.039
06/20/2013  12:47:00       68.600     -155.170       27.376      101.161      154.090       69.991    10233.576    23743.720     4898.672        3.420        1.944      169.658       87.439        0.266      343.501       19.656      859.037
06/20/2013  12:48:00      192.907     -213.016      -17.265      110.212      160.103      100.185    12146.611    25633.057    10036.987        6.534        2.391      287.382      111.505        0.151      343.242       19.214      859.031
06/20/2013  12:49:00      116.242      -68.872       19.612       59.847      106.608       84.330     3581.672    11365.249     7111.527        2.034        1.103      135.113       80.553        0.355      343.245       19.218      859.077
06/20/2013  12:50:00       61.086     -143.230      -18.149       70.683       77.889       51.110     4996.071     6066.665     2612.249        1.912        0.684      155.712       29.002        0.035      342.899       18.630      859.098
06/20/2013  12:51:00      -17.352       11.475       24.787       63.404       35.735       42.952     4020.082     1276.963     1844.861        0.409        0.357       20.803       39.871        3.673      343.282       19.285      859.071
06/20/2013  12:52:00       71.366      -82.002       17.070       71.754       96.081       62.086     5148.596     9231.482     3854.721        1.517        0.912      108.707       62.255        0.328      343.078       18.937      859.064
06/20/2013  12:53:00       21.656       60.070       12.599       56.581       72.911       40.419     3201.387     5316.026     1633.691        0.719        0.508       63.854       42.852        0.450      343.331       19.367      859.041
06/20/2013  12:54:00      121.810       21.262       79.302      111.986       89.246       75.660    12540.891     7964.795     5724.395        2.390        1.312      123.651       83.690        0.458      343.150       19.058      859.024
06/20/2013  12:55:00      128.373      -68.491       25.918      110.332      120.690       85.587    12173.041    14566.035     7325.151        2.795        1.703      145.501       73.445        0.255      343.414       19.508      858.990
06/20/2013  12:56:00      175.819     -309.102      -31.628      129.833      154.736       87.513    16856.567    23943.306     7658.516        8.795        2.423      355.607      105.250        0.088      342.954       18.723      858.975
06/20/2013  12:57:00      119.269     -138.415        6.515      108.566      157.543       65.216    11786.680    24819.662     4253.093        3.713        2.043      182.712       92.787        0.258      343.238       19.206      858.984
06/20/2013  12:58:00      108.030     -159.960        4.709       94.566      151.174       77.624     8942.671    22853.544     6025.480        3.754        1.891      193.023       94.615        0.240      343.366       19.424      858.970
06/20/2013  12:59:00      138.232     -136.611       12.447       90.696      127.810       78.018     8225.680    16335.327     6086.778        3.428        1.532      194.347       85.654        0.194      343.559       19.752      858.966
06/20/2013  13:00:00      112.208     -153.851        7.257       95.640      155.845       87.625     9147.087    24287.758     7678.095        3.871        2.056      190.422       92.419        0.236      343.791       20.148      858.970
06/20/2013  13:01:00      122.054      -58.077       39.766       97.743      144.811       76.077     9553.721    20970.312     5787.653        2.807        1.816      135.167      102.348        0.573      343.260       19.244      858.976
06/20/2013  13:02:00      114.969     -119.344       24.588      103.936      106.833       61.179    10802.659    11413.234     3742.897        2.701        1.298      165.713       67.483        0.166      343.525       19.697      858.959
06/20/2013  13:03:00       69.718       -5.226       49.188       99.268      133.443       67.032     9854.222    17806.991     4493.304        1.972        1.608       69.914       65.695        0.883      343.942       20.409      858.947
06/20/2013  13:04:00       43.582       -3.721       67.075       77.871      119.287       71.211     6063.828    14229.310     5070.953        1.588        1.268       43.741       82.167        3.529      343.347       19.395      858.942
06/20/2013  13:05:00       62.656       70.615       17.962       96.153       82.044       43.492     9245.391     6731.189     1891.520        1.355        0.893       94.405       25.689        0.074      343.768       20.112      858.916
06/20/2013  13:06:00      212.737      160.628       66.841      103.281       82.127       66.813    10666.941     6744.840     4463.946        4.870        1.094      266.568       29.698        0.012      343.697       19.986      858.895
06/20/2013  13:07:00      139.463      111.446       39.765       83.261       72.734       69.776     6932.447     5290.197     4868.670        2.527        0.855      178.522       37.226        0.043      343.757       20.091      858.876
06/20/2013  13:08:00      152.593       88.061        6.369       76.410       66.702       53.341     5838.416     4449.101     2845.271        2.210        0.657      176.180       36.988        0.044      343.880       20.302      858.859
06/20/2013  13:09:00      115.440       97.612       24.762      101.447       61.203       59.864    10291.467     3745.759     3583.706        2.054        0.881      151.177       43.001        0.081      343.878       20.297      858.845
06/20/2013  13:10:00      121.179       57.204       24.360       79.042       57.552       45.928     6247.572     3312.196     2109.406        1.511        0.583      134.002       20.537        0.023      343.638       19.890      858.845
06/20/2013  13:11:00       66.167       62.140       35.781       37.114       33.803       46.921     1377.418     1142.645     2201.609        0.712        0.236       90.771       29.316        0.104      343.616       19.854      858.861
06/20/2013  13:12:00       77.920     -115.443       31.379      102.852      136.053       69.827    10578.533    18510.512     4875.787        2.717        1.698      139.280       83.661        0.361      343.825       20.208      858.847
06/20/2013  13:13:00       88.803      -37.800       27.910       82.710       88.648       65.972     6840.972     7858.482     4352.300        1.457        0.953       96.513       55.701        0.333      343.793       20.154      858.829
06/20/2013  13:14:00       74.446     -167.939       17.094       85.255      161.875       85.001     7268.499    26203.653     7225.163        3.736        2.035      183.700       98.924        0.290      343.586       19.800      858.813
06/20/2013  13:15:00       91.874     -158.638        9.613       68.912       86.088       56.585     4748.822     7411.132     3201.825        2.453        0.768      183.322       53.619        0.086      343.531       19.706      858.828
06/20/2013  13:16:00       80.829      -74.812       40.618       95.303      116.598       75.786     9082.590    13595.133     5743.536        2.110        1.421      110.137       74.708        0.460      343.832       20.222      858.811
06/20/2013  13:17:00      175.374     -197.246       -3.721       98.662      124.895       53.078     9734.261    15598.658     2817.231        4.891        1.408      263.936       56.091        0.045      343.560       19.755      858.811
06/20/2013  13:18:00      141.079     -165.121      -41.812       76.826       81.223       50.286     5902.189     6597.192     2528.671        3.197        0.751      217.183       38.360        0.031      343.622       19.860      858.813
06/20/2013  13:19:00      145.732     -144.125      -36.883       84.270       79.852       57.224     7101.467     6376.344     3274.545        3.006        0.838      204.963       51.024        0.062      343.364       19.420      858.814
06/20/2013  13:20:00       58.694       17.065       79.356       79.254      103.726       71.693     6281.197    10759.171     5139.825        1.610        1.109       61.125       60.080        0.966      343.781       20.134      858.814
06/20/2013  13:21:00       46.390      114.119       31.912       77.209       68.433       57.624     5961.218     4683.095     3320.536        1.508        0.698      123.188       42.136        0.117      343.432       19.539      858.798
06/20/2013  13:22:00       53.645       75.721       -2.176       38.960       40.962       32.376     1517.876     1677.846     1048.205        0.643        0.212       92.798       19.759        0.045      343.513       19.678      858.790
06/20/2013  13:23:00       29.169       85.341       -5.418       37.149       53.093       40.603     1380.039     2818.851     1648.598        0.700        0.292       90.188       22.505        0.062      343.502       19.660      858.763
06/20/2013  13:24:00       52.399       50.683        3.909       66.704       43.470       32.102     4449.370     1889.671     1030.555        0.635        0.368       72.900       16.048        0.048      343.724       20.037      858.747
06/20/2013  13:25:00       30.480       74.486        8.575       67.513       47.503       43.201     4558.044     2256.552     1866.313        0.761        0.434       80.481       32.686        0.165      344.064       20.619      858.744
06/20/2013  13:26:00     -130.740       48.365      -16.669       71.035       82.618       36.971     5045.916     6825.816     1366.887        1.647        0.662      139.399       31.108        0.050      344.272       20.972      858.732
06/20/2013  13:27:00     -166.508     -142.602      -23.898       71.037       77.308       38.051     5046.255     5976.579     1447.848        3.055        0.624      219.227       33.924        0.024      343.422       19.520      858.729
06/20/2013  13:28:00     -131.714      -68.067       -3.702       63.605       51.789       31.762     4045.619     2682.133     1008.852        1.486        0.387      148.262       32.758        0.049      343.693       19.983      858.718
06/20/2013  13:29:00      -53.411       16.199       10.721       79.615       37.021       31.590     6338.470     1370.576      997.955        0.597        0.435       55.813       45.381        0.661      344.057       20.607      858.722
06/20/2013  13:30:00        6.542       59.556        1.451       34.333       37.786       32.171     1178.769     1427.753     1034.959        0.362        0.182       59.914       27.932        0.217      343.970       20.459      858.736
06/20/2013  13:31:00       19.006      -34.346       28.040       46.552      112.803       41.017     2167.110    12724.511     1682.398        0.945        0.829       39.254       41.738        1.131      344.170       20.799      858.735
06/20/2013  13:32:00      -27.771       37.384       -5.819       64.688       56.127       30.351     4184.601     3150.241      921.213        0.523        0.413       46.570       30.817        0.438      344.170       20.800      858.724
06/20/2013  13:33:00     -122.978      -18.329       -3.961       90.192       65.556       46.388     8134.647     4297.594     2151.844        1.503        0.729      124.336       47.124        0.144      343.884       20.310      858.715
06/20/2013  13:34:00       15.331      -44.213       28.023       61.152       68.490       44.191     3739.560     4690.889     1952.861        0.668        0.519       46.795       33.684        0.518      344.378       21.153      858.703
06/20/2013  13:35:00       -6.526       55.556      -27.871      104.408       83.299       37.493    10901.006     6938.685     1405.702        1.157        0.962       55.938       37.493        0.449      343.865       20.277      858.677
06/20/2013  13:36:00      -64.964       41.490        5.729       99.660       99.476       73.051     9932.130     9895.459     5336.489        1.556        1.258       77.083       48.130        0.390      344.106       20.689      858.639
06/20/2013  13:37:00       85.632      142.834       69.444      177.628      125.439       90.615    31551.577    15734.919     8211.088        4.402        2.775      166.536       52.746        0.100      344.537       21.423      858.567
06/20/2013  13:38:00      186.949      116.127       55.798       87.892       67.773       63.074     7725.048     4593.228     3978.377        3.392        0.815      220.081       47.186        0.046      343.828       20.212      858.616
06/20/2013  13:39:00      204.931      123.185       10.990       45.984       56.353       36.987     2114.489     3175.675     1368.018        3.197        0.333      239.105       20.694        0.007      343.435       19.541      858.620
06/20/2013  13:40:00      -23.574       -7.160        4.410       76.493       41.799       46.029     5851.145     1747.159     2118.655        0.517        0.486       24.637       46.877        3.620      343.722       20.035      858.597
06/20/2013  13:41:00        7.286       76.175       13.280       49.004       93.763       34.089     2401.368     8791.475     1162.048        0.919        0.618       76.523       40.141        0.275      343.884       20.310      858.599
06/20/2013  13:42:00       57.922      176.622      -22.910       60.134       59.474       41.681     3616.153     3537.194     1737.321        2.198        0.445      185.877       40.566        0.048      343.816       20.193      858.581
06/20/2013  13:43:00       47.265       19.465       41.925       61.873       64.482       40.441     3828.268     4157.914     1635.483        0.699        0.481       51.117       35.347        0.478      344.404       21.199      858.583
06/20/2013  13:44:00       74.739      -13.369       30.901       97.025       70.027       53.129     9413.782     4903.824     2822.680        1.193        0.857       75.925       40.859        0.290      344.301       21.022      858.571
06/20/2013  13:45:00       99.657        4.071       70.507       99.014      131.167       75.860     9803.866    17204.793     5754.760        2.384        1.638       99.740       89.601        0.807      343.772       20.117      858.591
06/20/2013  13:46:00      113.643     -100.503       39.197       84.634       87.024       66.239     7162.886     7573.097     4387.624        2.183        0.956      151.708       65.008        0.184      344.073       20.631      858.604
06/20/2013  13:47:00       73.896     -159.588      -20.994       56.553       64.961       40.341     3198.268     4219.936     1627.361        2.021        0.452      175.866       31.635        0.032      344.081       20.646      858.611
06/20/2013  13:48:00       56.981      -64.311       51.466       78.716       77.136       61.334     6196.148     5949.974     3761.836        1.297        0.795       85.923       34.576        0.162      344.199       20.848      858.618
06/20/2013  13:49:00      -54.757      -44.754       -4.161       66.798      137.120       41.869     4461.936    18801.777     1753.044        1.501        1.251       70.720       54.668        0.598      344.150       20.766      858.628
06/20/2013  13:50:00      -56.318       67.945       -1.923       48.769       45.348       42.204     2378.443     2056.462     1781.190        0.700        0.311       88.250       38.891        0.194      344.782       21.846      858.612
06/20/2013  13:51:00     -138.088       97.640      -18.543      132.843       94.643       57.498    17647.353     8957.372     3306.021        2.942        1.496      169.121       47.279        0.078      344.454       21.281      858.554
06/20/2013  13:52:00       74.710      150.530       13.424      143.519      113.217       95.768    20597.564    12818.120     9171.573        3.550        2.129      168.050       54.012        0.103      344.609       21.547      858.534
06/20/2013  13:53:00       50.521      258.976      -44.041       74.193      142.288       52.819     5504.612    20245.793     2789.800        5.004        1.427      263.858       60.793        0.053      343.742       20.066      858.571
06/20/2013  13:54:00       72.121       55.973       -5.572       55.749       73.553       39.615     3107.933     5410.002     1569.337        0.922        0.504       91.293       27.329        0.090      343.991       20.492      858.568
06/20/2013  13:55:00      -54.029       82.397        4.208       81.171       99.762       67.332     6588.710     9952.461     4533.642        1.540        1.054       98.532       34.574        0.123      344.185       20.825      858.537
06/20/2013  13:56:00       39.254       20.857       22.495       74.213       58.099       57.189     5507.501     3375.475     3270.611        0.732        0.608       44.451       45.437        1.045      344.302       21.025      858.541
06/20/2013  13:57:00       54.083      -48.616       19.574       80.903      107.759       45.363     6545.285    11611.955     2057.826        1.294        1.011       72.722       47.615        0.429      344.194       20.840      858.541
06/20/2013  13:58:00       18.762       46.811       52.126       41.274       73.584       52.625     1703.558     5414.614     2769.389        0.757        0.494       50.431       43.834        0.756      344.370       21.141      858.525
06/20/2013  13:59:00       75.845       45.191       82.936       77.031       78.027       49.465     5933.769     6088.156     2446.804        1.457        0.723       88.288       47.176        0.286      343.753       20.086      858.521
06/20/2013  14:00:00       74.955       61.625       16.626       42.044       49.927       40.928     1767.725     2492.707     1675.066        0.781        0.297       97.036       14.432        0.022      344.113       20.703      858.510
06/20/2013  14:01:00      -22.096       77.943       -0.956       92.443       54.827       32.940     8545.703     3006.034     1085.033        0.960        0.632       81.015       38.821        0.230      344.335       21.081      858.518
06/20/2013  14:02:00      -83.795       36.946       16.103       55.602       54.022       35.797     3091.628     2918.341     1281.420        0.797        0.365       91.578       35.780        0.153      344.467       21.305      858.516
06/20/2013  14:03:00      -25.974       45.531       21.026       33.173       76.511       39.570     1100.467     5853.986     1565.795        0.585        0.426       52.418       23.061        0.194      345.026       22.262      858.472
06/20/2013  14:04:00      -33.271      173.499        0.193       53.627       74.970       49.614     2875.879     5620.561     2461.522        2.108        0.548      176.660       28.373        0.026      344.562       21.467      858.477
06/20/2013  14:05:00       -7.024      133.812        1.393       35.645       89.516       43.758     1270.554     8013.095     1914.763        1.458        0.560      133.996       46.988        0.123      344.534       21.421      858.469
06/20/2013  14:06:00      -33.197       83.372       24.945       44.327       46.772       42.551     1964.893     2187.658     1810.583        0.732        0.298       89.738       37.457        0.174      344.790       21.860      858.445
06/20/2013  14:07:00       39.394      102.661        9.504       60.105       55.968       45.743     3612.620     3132.448     2092.417        1.051        0.442      109.960       28.418        0.067      344.242       20.922      858.396
06/20/2013  14:08:00       70.947      120.291      -10.342       77.206      104.110       52.005     5960.696    10838.859     2704.507        1.955        0.975      139.655       58.647        0.176      344.420       21.223      858.390
06/20/2013  14:09:00      101.552       78.588       13.526       63.339       74.701       45.587     4011.878     5580.240     2078.130        1.417        0.584      128.409       37.487        0.085      343.995       20.498      858.366
06/20/2013  14:10:00       20.980       57.247       17.663       96.155       63.720       47.768     9245.810     4060.251     2281.824        0.981        0.779       60.970       37.407        0.376      344.361       21.125      858.363
06/20/2013  14:11:00      113.841      105.037       -2.303       86.747       48.309       49.203     7525.072     2333.738     2420.961        1.814        0.614      154.896       30.929        0.040      344.158       20.778      858.351
06/20/2013  14:12:00      185.328      137.471       28.758      115.598       67.286       66.230    13363.013     4527.446     4386.366        3.817        1.114      230.748       26.080        0.013      344.354       21.111      858.337
06/20/2013  14:13:00      192.069      144.378       18.988      111.874       86.615       74.314    12515.902     7502.084     5522.504        4.181        1.277      240.282       37.336        0.024      344.191       20.833      858.374
06/20/2013  14:14:00      121.096      141.850        8.889      128.155       72.743       61.625    16423.744     5291.513     3797.620        3.018        1.276      186.509       43.347        0.054      344.125       20.722      858.363
06/20/2013  14:15:00      258.302      179.880       12.143      113.703       90.566       77.646    12928.274     8202.288     6028.868        6.319        1.358      314.765       64.104        0.041      343.911       20.353      858.367
06/20/2013  14:16:00       67.427      128.179       -0.284       80.547       81.140       49.011     6487.841     6583.779     2402.059        1.822        0.774      144.832       43.136        0.089      344.236       20.910      858.371
06/20/2013  14:17:00      102.836       74.443        0.096       77.098       58.773       42.821     5944.094     3454.283     1833.666        1.367        0.562      126.952       34.267        0.073      344.000       20.509      858.366
06/20/2013  14:18:00      180.374      145.023       22.151       65.989       48.360       51.433     4354.600     2338.671     2645.311        3.170        0.467      231.445       32.670        0.020      343.966       20.446      858.354
06/20/2013  14:19:00      231.969      135.204       27.402      127.066       86.125       66.397    16145.668     7417.597     4408.579        5.040        1.399      268.495       31.816        0.014      344.032       20.561      858.347
06/20/2013  14:20:00      198.464      119.368       16.922       72.999       64.228       59.820     5328.796     4125.184     3578.448        3.348        0.652      231.596       37.311        0.026      343.927       20.379      858.365
06/20/2013  14:21:00      176.730      139.771       11.163       81.076       60.707       54.973     6573.357     3685.341     3022.001        3.208        0.664      225.320       43.020        0.036      343.789       20.145      858.367
06/20/2013  14:22:00       92.645       91.942       44.122       54.843       49.637       45.621     3007.779     2463.804     2081.233        1.327        0.378      130.524       18.585        0.020      344.108       20.693      858.368
06/20/2013  14:23:00       41.387       47.788       33.426       41.538       31.065       44.751     1725.446      965.060     2002.619        0.490        0.235       63.219       34.678        0.301      343.992       20.497      858.350
06/20/2013  14:24:00       94.761       86.373       26.287       46.664       45.816       35.338     2177.507     2099.068     1248.743        1.133        0.276      128.218       10.900        0.007      343.879       20.301      858.336
06/20/2013  14:25:00      -60.227       57.546        2.294       51.719       60.677       32.004     2674.900     3681.743     1024.232        0.716        0.369       83.299       36.140        0.188      344.162       20.784      858.327
06/20/2013  14:26:00       -9.647       19.785        8.562       70.212       22.911       27.866     4929.692      524.922      776.504        0.339        0.312       22.012       30.281        1.892      344.508       21.377      858.304
06/20/2013  14:27:00       75.324       76.508       38.086       68.427       51.660       73.244     4682.207     2668.790     5364.649        1.284        0.636      107.364       66.185        0.380      344.410       21.209      858.302
06/20/2013  14:28:00      185.989      100.038       32.306      150.414       92.330       72.591    22624.474     8524.860     5269.462        4.102        1.821      211.186       38.479        0.033      344.334       21.078      858.287
06/20/2013  14:29:00      226.916      152.663       13.643       87.424       72.143       62.826     7642.929     5204.562     3947.089        4.589        0.840      273.490       29.420        0.012      344.036       20.568      858.269
06/20/2013  14:30:00      218.856      144.439        8.414      103.476       74.491       54.004    10707.367     5548.949     2916.445        4.400        0.959      262.223       23.785        0.008      343.970       20.453      858.259
06/20/2013  14:31:00        5.943      174.322      -25.091       69.802       67.566       37.794     4872.269     4565.098     1428.355        2.096        0.543      174.423       35.675        0.042      344.108       20.692      858.253
06/20/2013  14:32:00      136.023       97.593       15.964      111.903       88.298       68.661    12522.273     7796.571     4714.400        2.665        1.252      167.412       46.504        0.077      344.303       21.026      858.221
06/20/2013  14:33:00       84.022      112.631        2.485       95.363       57.123       47.258     9094.076     3262.996     2233.275        1.717        0.730      140.519       31.730        0.051      344.491       21.346      858.210
06/20/2013  14:34:00       69.340       79.030       18.073       62.053       42.896       43.318     3850.624     1840.081     1876.488        0.947        0.378      105.137       26.922        0.066      344.862       21.981      858.206
06/20/2013  14:35:00       73.804       90.558       74.546       80.680       61.420       57.904     6509.262     3772.362     3352.921        1.642        0.682      116.823       38.715        0.110      344.703       21.711      858.195
06/20/2013  14:36:00       61.158      120.326        2.678       57.615       60.139       43.145     3319.542     3616.746     1861.530        1.351        0.440      134.976       39.059        0.084      344.170       20.798      858.191
06/20/2013  14:37:00      160.921      107.641       39.724       79.516       72.707       47.978     6322.763     5286.358     2301.864        2.648        0.696      193.603       40.710        0.044      344.258       20.946      858.195
06/20/2013  14:38:00      103.459      130.290       64.833       78.220       49.313       81.967     6118.342     2431.738     6718.508        2.357        0.763      166.371       65.036        0.153      344.236       20.911      858.185
06/20/2013  14:39:00       95.149       97.014       90.934       82.875       68.734       68.504     6868.315     4724.326     4692.780        2.151        0.814      135.886       45.448        0.112      344.497       21.357      858.168
06/20/2013  14:40:00      109.557       77.362       49.019       65.770       75.826       46.678     4325.735     5749.587     2178.813        1.632        0.613      134.118       43.031        0.103      344.384       21.164      858.189
06/20/2013  14:41:00       99.841        2.101       32.530       75.887       52.855       52.062     5758.889     2793.698     2710.403        1.114        0.563       99.863       35.840        0.129      344.518       21.394      858.197
06/20/2013  14:42:00       71.030      -71.772       32.183       52.962       69.272       38.974     2804.942     4798.622     1518.950        1.018        0.456      100.978       41.269        0.167      344.525       21.407      858.172
06/20/2013  14:43:00       54.426       43.273       12.896       37.000       36.085       36.553     1369.019     1302.158     1336.129        0.450        0.200       69.532       24.041        0.120      344.830       21.928      858.161
06/20/2013  14:44:00       67.074       79.998        3.438       59.272       54.423       41.962     3513.152     2961.847     1760.842        0.957        0.412      104.396       30.865        0.087      344.794       21.865      858.146
06/20/2013  14:45:00      -13.383      172.388      -18.631       78.655       88.247       43.129     6186.561     7787.500     1860.117        2.304        0.792      172.907       45.489        0.069      344.440       21.258      858.153
06/20/2013  14:46:00      -36.930       61.768       17.620       59.245       68.565       40.751     3509.937     4701.149     1660.607        0.768        0.494       71.966       49.029        0.464      344.696       21.698      858.163
06/20/2013  14:47:00       78.642       68.844       16.015       55.633       39.629       44.843     3095.018     1570.468     2010.877        0.893        0.334      104.518       13.871        0.018      344.632       21.588      858.155
06/20/2013  14:48:00       -0.091      159.517      -18.499       57.256       85.671       33.715     3278.262     7339.565     1136.706        1.877        0.588      159.517       34.251        0.046      344.450       21.276      858.140
06/20/2013  14:49:00       96.212      121.734        3.715       97.485      107.647       74.399     9503.349    11587.827     5535.177        2.535        1.331      155.164       57.464        0.137      344.766       21.817      858.140
06/20/2013  14:50:00       91.536       58.480       19.119      104.744       72.622       65.009    10971.283     5274.003     4226.116        1.631        1.024      108.622       25.640        0.056      344.932       22.103      858.135
06/20/2013  14:51:00       94.514      257.024      -21.298      106.231      133.155       96.021    11284.997    17730.337     9219.961        5.683        1.912      273.851       87.059        0.101      344.347       21.098      858.156
06/20/2013  14:52:00      -14.311      278.582      -41.778       60.536       76.008       45.414     3664.641     5777.230     2062.415        4.553        0.575      278.950       37.451        0.018      343.972       20.457      858.208
06/20/2013  14:53:00       34.187       54.434      -19.612       47.407       69.753       36.611     2247.446     4865.413     1340.388        0.648        0.423       64.279       34.913        0.295      344.057       20.606      858.214
06/20/2013  14:54:00       70.270       29.592        8.351       60.782       69.605       44.510     3694.419     4844.922     1981.157        0.820        0.526       76.247       42.214        0.307      344.282       20.991      858.194
06/20/2013  14:55:00      115.555      -82.647      -20.312       67.118       92.966       35.734     4504.874     8642.759     1276.946        1.751        0.721      142.069       12.965        0.008      344.154       20.770      858.189
06/20/2013  14:56:00      -48.756       53.166      -19.062       57.193       33.380       27.966     3270.997     1114.253      782.115        0.537        0.258       72.137       17.052        0.056      344.196       20.844      858.162
06/20/2013  14:57:00       42.034       38.433       12.423       38.324       42.093       31.734     1468.760     1771.820     1007.048        0.382        0.212       56.956       20.273        0.127      344.392       21.179      858.146
06/20/2013  14:58:00       65.161      -24.129       60.718       84.094       88.862       69.195     7071.877     7896.540     4787.900        1.413        0.988       69.485       77.824        1.254      344.968       22.162      858.143
06/20/2013  14:59:00      102.748      -66.004       88.036      103.824      168.794       94.801    10779.428    28491.337     8987.219        3.545        2.413      122.121       96.878        0.629      344.964       22.156      858.125
06/20/2013  15:00:00       39.202      -61.215       49.326       65.140      165.904       96.958     4243.268    27523.975     9400.803        2.443        2.058       72.692      118.830        2.672      344.896       22.038      858.151
06/20/2013  15:01:00       57.236      -75.150       -1.802       51.826       86.968       52.200     2685.939     7563.388     2724.803        1.095        0.649       94.464       46.726        0.245      345.016       22.246      858.140
06/20/2013  15:02:00       94.265     -134.375       -3.043       78.585      104.399       51.983     6175.658    10899.252     2702.241        2.336        0.989      164.141       68.997        0.177      344.637       21.594      858.133
06/20/2013  15:03:00       52.068       56.583       36.782       68.162       62.182       68.982     4646.000     3866.598     4758.519        1.027        0.664       76.894       46.465        0.365      344.496       21.355      858.129
06/20/2013  15:04:00       57.786       65.281       42.181       77.299       43.851       44.333     5975.147     1922.953     1965.447        0.962        0.493       87.182       13.966        0.026      344.683       21.674      858.102
06/20/2013  15:05:00      119.486      105.660       97.621       79.114       64.755       80.856     6259.020     4193.158     6537.658        2.598        0.849      159.502       56.710        0.126      344.595       21.524      858.090
06/20/2013  15:06:00       86.284      -49.416       43.807       73.777       88.772       61.108     5443.033     7880.471     3734.151        1.443        0.853       99.433       55.615        0.313      344.700       21.705      858.100
06/20/2013  15:07:00      129.589       40.334       27.249       83.891      111.638       50.736     7037.712    12463.010     2574.126        2.061        1.104      135.721       46.840        0.119      344.847       21.954      858.102
06/20/2013  15:08:00      236.722      148.755       31.235       76.651       73.558       62.113     5875.401     5410.833     3858.045        4.714        0.757      279.581       40.629        0.021      344.392       21.176      858.122
06/20/2013  15:09:00       79.504       99.363       11.677       82.215       43.114       34.452     6759.264     1858.795     1186.939        1.307        0.490      127.256       31.021        0.059      344.377       21.152      858.138
06/20/2013  15:10:00     -104.791       90.012      -27.045       48.900       66.817       38.029     2391.192     4464.488     1446.213        1.406        0.415      138.142       31.610        0.052      344.351       21.109      858.135
06/20/2013  15:11:00     -173.183      -29.422      -34.691       49.442       40.538       27.046     2444.538     1643.310      731.488        1.844        0.241      175.664       18.276        0.011      344.136       20.738      858.129
06/20/2013  15:12:00     -220.927      -53.420      -34.251       62.741       48.370       37.181     3936.465     2339.677     1382.438        3.025        0.383      227.294       32.341        0.020      344.553       21.448      858.116
06/20/2013  15:13:00     -109.389       62.587       13.640       73.528       60.387       39.069     5406.383     3646.576     1526.375        1.332        0.529      126.028       33.109        0.069      344.862       21.981      858.113
06/20/2013  15:14:00     -167.358     -116.950       -9.599       57.520       65.597       26.719     3308.577     4302.931      713.912        2.505        0.416      204.172       28.589        0.020      344.410       21.206      858.124
06/20/2013  15:15:00      -80.332     -111.539       -1.167       92.665       60.633       40.177     8586.870     3676.316     1614.183        1.638        0.694      137.457       44.129        0.103      344.653       21.624      858.126
06/20/2013  15:16:00      -42.563      -74.743       -4.266       69.390       59.847       35.060     4814.932     3581.691     1229.169        0.852        0.481       86.013       28.785        0.112      344.807       21.887      858.110
06/20/2013  15:17:00      -10.343      -23.416       10.978       44.251       38.566       35.699     1958.186     1487.363     1274.446        0.275        0.236       25.599       29.439        1.323      344.756       21.800      858.093
06/20/2013  15:18:00      -12.517       16.382      -10.206       46.935       32.334       19.948     2202.888     1045.473      397.918        0.209        0.182       20.617       19.027        0.852      344.805       21.885      858.067
06/20/2013  15:19:00      -56.655       -3.132       -7.475       39.566       24.117       27.910     1565.434      581.618      778.984        0.310        0.146       56.741       22.866        0.162      344.834       21.935      858.046
06/20/2013  15:20:00        2.463       16.645       17.389       28.539       28.098       28.448      814.501      789.480      809.279        0.150        0.121       16.826       19.195        1.301      345.182       22.530      858.033
06/20/2013  15:21:00      -45.220       78.070       -6.970       79.787       48.557       36.031     6365.972     2357.752     1298.221        0.910        0.501       90.220       38.248        0.180      344.644       21.608      858.007
06/20/2013  15:22:00      -61.686       80.364      -25.125       43.438       47.957       20.482     1886.838     2299.846      419.515        0.775        0.230      101.310       16.857        0.028      344.328       21.068      857.998
06/20/2013  15:23:00      -17.414       39.484        8.584       40.428       54.842       30.202     1634.415     3007.685      912.162        0.374        0.278       43.154       22.173        0.264      344.751       21.791      857.975
06/20/2013  15:24:00      -22.137       56.136        1.731       25.996       23.227       19.284      675.790      539.485      371.890        0.262        0.079       60.343        7.668        0.016      344.604       21.542      857.960
06/20/2013  15:25:00      -38.186      108.965       -9.918       44.050       75.502       30.567     1940.365     5700.577      934.352        1.100        0.429      115.462       30.093        0.068      344.661       21.638      857.960
06/20/2013  15:26:00     -110.582        3.516      -13.405       58.853       41.056       28.790     3463.659     1685.603      828.845        0.920        0.299      110.638       23.563        0.045      344.750       21.790      857.951
06/20/2013  15:27:00      -50.032      -13.541       -1.873       25.728       29.686       22.131      661.925      881.288      489.763        0.236        0.102       51.833       12.908        0.062      344.849       21.961      857.933
06/20/2013  15:28:00       42.582       32.415       17.624       56.626       63.016       40.344     3206.449     3970.958     1627.660        0.599        0.440       53.516       29.090        0.295      344.984       22.191      857.910
06/20/2013  15:29:00       21.057      120.463        3.661       90.826       46.838       40.656     8249.413     2193.832     1652.910        1.353        0.605      122.290       21.925        0.032      344.866       21.988      857.903
06/20/2013  15:30:00       16.592       24.183       28.300       56.674       36.632       38.295     3211.921     1341.919     1466.535        0.384        0.301       29.328       23.271        0.630      345.231       22.613      857.904
06/20/2013  15:31:00      -39.329       70.805       11.930       43.662       53.545       35.595     1906.404     2867.063     1267.032        0.637        0.302       80.994       31.061        0.147      345.407       22.915      857.922
06/20/2013  15:32:00     -114.590       43.409       -8.429       61.050       48.267       32.153     3727.147     2329.675     1033.825        1.109        0.355      122.537       17.169        0.020      345.651       23.334      857.938
06/20/2013  15:33:00      -54.471      -19.879        3.241       85.452       53.008       46.520     7302.079     2809.821     2164.123        0.782        0.614       57.985       29.281        0.255      345.497       23.070      857.926
06/20/2013  15:34:00      -93.741       33.804      -10.122      113.914      101.588       54.064    12976.457    10320.030     2922.888        1.812        1.311       99.650       56.929        0.326      345.266       22.674      857.897
06/20/2013  15:35:00     -183.359     -112.069        3.149       98.480       93.382       52.969     9698.233     8720.265     2805.666        3.370        1.061      214.895       48.155        0.050      345.428       22.950      857.880
06/20/2013  15:36:00     -254.652     -168.988        7.930      159.849      144.038       80.874    25551.624    20746.963     6540.640        7.314        2.642      305.622       91.139        0.089      345.135       22.447      857.886
06/20/2013  15:37:00     -230.560     -196.101       16.966      184.779      132.844       87.653    34143.223    17647.563     7683.097        7.568        2.974      302.678      105.442        0.121      345.099       22.386      857.863
06/20/2013  15:38:00      -19.799        5.213       39.995       67.271       84.893       52.820     4525.414     7206.805     2789.941        0.827        0.726       20.474       43.809        4.578      345.668       23.362      857.865
06/20/2013  15:39:00      -44.535       53.046       12.651       76.008       74.936       54.599     5777.264     5615.345     2981.055        0.966        0.719       69.262       40.694        0.345      345.623       23.285      857.887
06/20/2013  15:40:00      -55.723      149.463      -14.821       84.968      105.922       50.912     7219.624    11219.551     2592.019        2.334        1.052      159.512       45.165        0.080      345.079       22.350      857.884
06/20/2013  15:41:00     -131.098      -13.340       -5.198      108.001      147.298       41.738    11664.261    21696.706     1742.050        2.624        1.755      131.775       37.911        0.083      345.281       22.697      857.890
06/20/2013  15:42:00     -117.323      -38.677      -10.420       91.360       93.430       51.068     8346.586     8729.117     2607.954        1.752        0.984      123.534       32.822        0.071      345.235       22.619      857.943
06/20/2013  15:43:00       -5.103     -101.334        9.113       77.586       72.755       37.755     6019.522     5293.356     1425.412        1.156        0.637      101.463       43.295        0.182      345.249       22.644      857.929
06/20/2013  15:44:00     -303.393     -124.127      -16.360       96.609       98.688       57.924     9333.384     9739.245     3355.199        6.507        1.121      327.803       47.643        0.021      345.113       22.409      857.916
06/20/2013  15:45:00     -354.903      -94.304      -25.053      193.868      131.402       64.725    37584.778    17266.385     4189.262        9.725        2.952      367.218       86.183        0.055      345.180       22.523      857.927
06/20/2013  15:46:00     -356.443     -241.090      -10.060      182.654      138.585       92.522    33362.476    19205.770     8560.228       12.319        3.056      430.321       98.217        0.052      345.060       22.318      857.898
06/20/2013  15:47:00     -280.420      -80.567       -6.806      161.126      166.078       69.352    25961.660    27582.061     4809.680        7.175        2.918      291.765       83.544        0.082      345.249       22.641      857.927
06/20/2013  15:48:00     -253.251       69.405      -42.778      109.420       96.169       51.313    11972.760     9248.543     2633.034        4.731        1.193      262.589       54.175        0.043      345.350       22.814      857.938
06/20/2013  15:49:00     -208.685       -4.119      -19.519      164.125       86.308       50.557    26936.891     7449.024     2556.050        4.044        1.847      208.726       56.692        0.074      345.361       22.833      857.932
06/20/2013  15:50:00     -225.730      -57.033      -10.771      137.229       63.952       53.706    18831.816     4089.917     2884.300        4.006        1.290      232.824       67.513        0.084      344.910       22.062      857.933
06/20/2013  15:51:00     -167.269        0.396      -15.896      101.914      116.522       50.793    10386.369    13577.340     2579.947        2.738        1.327      167.270       33.474        0.040      345.204       22.565      857.929
06/20/2013  15:52:00     -285.241      -88.330        9.065      178.856      159.156       82.997    31989.369    25330.535     6888.455        7.672        3.210      298.605       95.724        0.103      345.373       22.854      857.960
06/20/2013  15:53:00     -240.306       -5.455       -7.393      155.430      124.173       80.257    24158.526    15419.003     6441.125        5.192        2.301      240.368       74.482        0.096      345.491       23.057      857.990
06/20/2013  15:54:00     -293.409      -85.522      -27.911      167.604      141.220       56.186    28091.137    19943.033     3156.899        7.268        2.560      305.619       72.098        0.056      345.106       22.396      858.001
06/20/2013  15:55:00     -146.024      -56.578       -0.397      102.199       90.421       44.507    10444.630     8175.872     1980.838        2.256        1.030      156.601       31.752        0.041      345.221       22.595      857.996
06/20/2013  15:56:00     -293.149     -313.836       11.466      192.432      167.671       99.776    37029.948    28113.476     9955.207       12.981        3.755      429.452      108.853        0.064      345.060       22.317      857.994
06/20/2013  15:57:00     -251.147     -185.640      -15.517      153.178      157.130       56.986    23463.545    24689.810     3247.438        7.458        2.570      312.309       56.613        0.033      344.738       21.767      858.052
06/20/2013  15:58:00       -8.992      -15.870       22.731       75.566       69.844       42.756     5710.247     4878.141     1828.039        0.663        0.621       18.241       42.166        5.344      345.151       22.477      857.993
06/20/2013  15:59:00      -88.464      -98.758       31.641      121.522       95.297       65.768    14767.501     9081.529     4325.447        2.337        1.409      132.586       75.929        0.328      345.239       22.626      858.036
06/20/2013  16:00:00     -163.293     -134.193        7.386      129.198       93.776       56.327    16692.023     8793.899     3172.783        3.669        1.433      211.359       50.201        0.056      345.317       22.759      858.053
06/20/2013  16:01:00     -328.292     -157.136       -6.549      158.628      157.780       69.889    25162.754    24894.643     4884.429        9.372        2.747      363.961       71.282        0.038      345.145       22.464      858.078
06/20/2013  16:02:00     -335.218     -247.277       -4.928      232.105      168.444       87.671    53872.698    28373.245     7686.263       13.172        4.497      416.554      108.596        0.068      345.160       22.489      858.075
06/20/2013  16:03:00     -376.577      -78.024      -28.728      158.436      143.401       76.765    25101.850    20563.740     5892.884       10.013        2.578      384.575       69.486        0.033      345.170       22.505      858.105
06/20/2013  16:04:00     -216.568      -62.269        0.643      152.179      105.640       70.051    23158.442    11159.892     4907.094        4.499        1.961      225.342       64.874        0.083      345.265       22.669      858.135
06/20/2013  16:05:00     -343.308     -100.311      -10.828      184.159      106.622       55.070    33914.717    11368.171     3032.690        8.817        2.416      357.663       68.337        0.037      345.221       22.594      858.150
06/20/2013  16:06:00     -240.860        0.120       -7.614      138.179      126.300       59.577    19093.457    15951.688     3549.457        4.833        1.930      240.860       67.143        0.078      345.348       22.813      858.155
06/20/2013  16:07:00     -234.856       42.875      -15.748      102.298       72.701       35.848    10464.797     5285.507     1285.061        3.714        0.852      238.738       37.010        0.024      344.817       21.902      858.151
06/20/2013  16:08:00     -129.034      -34.912       -4.204       83.871       49.319       34.757     7034.382     2432.413     1208.051        1.428        0.534      133.673       40.951        0.094      344.858       21.974      858.126
06/20/2013  16:09:00      -65.840       25.779      -16.836       34.486       45.605       31.812     1189.277     2079.816     1012.007        0.478        0.214       70.707       23.522        0.111      344.954       22.140      858.112
06/20/2013  16:10:00     -133.497      -43.334       -3.565      108.339       71.965       35.628    11737.432     5178.916     1269.384        1.895        0.909      140.354       40.480        0.083      345.283       22.703      858.102
06/20/2013  16:11:00     -289.229      -91.513      -12.127      121.636       78.642       58.717    14795.244     6184.516     3447.665        5.830        1.221      303.361       58.405        0.037      345.155       22.482      858.116
06/20/2013  16:12:00      -46.627      -96.188       25.722      126.325       86.555       34.979    15958.121     7491.837     1223.526        1.838        1.234      106.893       38.820        0.132      345.261       22.664      858.104
06/20/2013  16:13:00      -94.897     -175.648        6.025      105.187      111.420       58.876    11064.339    12414.470     3466.416        3.341        1.347      199.644       57.823        0.084      345.226       22.603      858.080
06/20/2013  16:14:00     -251.385     -132.132       -6.774      159.561      118.493       72.007    25459.852    14040.522     5185.031        6.268        2.234      283.995       83.244        0.086      345.401       22.902      858.057
06/20/2013  16:15:00     -332.307        9.649       -9.889      195.693      164.934       76.108    38295.707    27203.324     5792.413        9.094        3.565      332.447       94.678        0.081      345.253       22.648      858.097
06/20/2013  16:16:00     -297.053     -187.772      -14.001      213.463      156.487       79.967    45566.560    24488.172     6394.666       10.006        3.822      351.424       93.890        0.071      345.167       22.502      858.113
06/20/2013  16:17:00     -303.052      -73.358       14.045      289.276      151.747      100.594    83680.688    23027.070    10119.097       10.710        5.841      311.804      128.003        0.169      345.290       22.713      858.112
06/20/2013  16:18:00     -403.129      -39.710      -34.219      169.941      152.472       72.038    28879.960    23247.596     5189.512       11.128        2.866      405.080       81.427        0.040      345.114       22.410      858.137
06/20/2013  16:19:00     -283.340      -33.584       -2.744      216.422       91.523       65.495    46838.505     8376.387     4289.596        7.045        2.975      285.323       83.107        0.085      345.481       23.040      858.144
06/20/2013  16:20:00     -254.780     -115.529       -2.121      146.805      128.555       70.780    21551.724    16526.426     5009.833        6.067        2.154      279.749       58.762        0.044      345.448       22.983      858.145
06/20/2013  16:21:00     -271.188     -167.581        5.193      161.734      152.817       86.555    26157.958    23352.950     7491.702        7.932        2.850      318.789       87.320        0.075      344.911       22.063      858.128
06/20/2013  16:22:00     -378.305       16.051      -19.342      245.969      212.530       91.765    60500.840    45168.810     8420.776       12.890        5.705      378.645       98.888        0.068      345.197       22.553      858.155
06/20/2013  16:23:00     -456.090        8.669      -29.828      215.411      122.786       71.428    46402.014    15076.498     5102.009       13.777        3.329      456.173       87.319        0.037      345.171       22.509      858.170
06/20/2013  16:24:00     -437.495      -57.440      -33.206      174.783      129.038       72.861    30549.179    16650.913     5308.677       12.415        2.625      441.250       81.076        0.034      344.946       22.123      858.148
06/20/2013  16:25:00     -352.551      -55.126      -29.340      108.697      104.584       58.847    11815.092    10937.831     3463.023        7.720        1.311      356.835       58.845        0.027      345.001       22.216      858.135
06/20/2013  16:26:00     -202.166      -72.661       -3.926      114.040      107.293       54.046    13005.032    11511.799     2920.937        3.680        1.372      214.827       50.836        0.056      345.183       22.528      858.135
06/20/2013  16:27:00     -258.411      -91.427       -7.021      170.379      117.157       61.216    29028.973    13725.806     3747.373        6.083        2.325      274.108       67.829        0.061      345.159       22.488      858.146
06/20/2013  16:28:00     -102.319      -77.825        5.690       78.446       85.198       59.210     6153.748     7258.679     3505.791        1.673        0.846      128.553       56.271        0.192      345.308       22.745      858.138
06/20/2013  16:29:00      -47.923      -70.688       42.136      135.044       94.102       55.535    18236.969     8855.134     3084.088        1.962        1.509       85.401       78.440        0.844      345.328       22.778      858.130
06/20/2013  16:30:00     -329.033     -137.739      -25.561      192.640      127.400       58.659    37110.270    16230.743     3440.890        9.232        2.839      356.700       84.301        0.056      345.101       22.389      858.095
06/20/2013  16:31:00     -296.950     -141.768       -9.894      136.784      119.462       68.560    18709.754    14271.270     4700.439        7.302        1.884      329.056       73.931        0.050      345.124       22.428      858.088
06/20/2013  16:32:00     -155.309      -39.497       23.757      159.090      115.099       79.068    25309.660    13247.776     6251.698        3.552        2.240      160.252       91.166        0.324      345.371       22.852      858.061
06/20/2013  16:33:00     -456.386      -12.761      -28.193      201.657      140.321       73.394    40665.728    19689.898     5386.714       13.748        3.287      456.565       89.837        0.039      345.319       22.760      858.108
06/20/2013  16:34:00     -448.377       -7.907      -38.583      156.821       97.417       64.817    24592.878     9490.160     4201.208       12.043        1.914      448.446       68.370        0.023      344.969       22.162      858.087
06/20/2013  16:35:00     -471.846     -168.937      -38.808      139.292      112.005       68.359    19402.188    12545.012     4672.907       14.465        1.831      501.177       61.351        0.015      345.132       22.439      858.072
06/20/2013  16:36:00     -320.363      -47.877      -17.297      183.465      107.654       59.534    33659.230    11589.372     3544.286        7.700        2.440      323.921       61.597        0.036      345.551       23.160      858.138
06/20/2013  16:37:00     -314.344      -83.903      -16.063      127.030      109.419       57.369    16136.597    11972.605     3291.203        6.875        1.570      325.349       51.032        0.025      345.581       23.211      858.164
06/20/2013  16:38:00     -214.248     -115.157        7.113      231.636      141.229       84.832    53655.018    19945.662     7196.432        6.999        4.040      243.236       81.760        0.113      345.393       22.889      858.167
06/20/2013  16:39:00     -272.572      -60.375      -36.149      177.867      130.971       67.858    31636.834    17153.378     4604.657        6.631        2.670      279.179       74.452        0.071      345.477       23.033      858.152
06/20/2013  16:40:00     -456.170      -72.768       -7.680      215.891      165.267       90.025    46609.026    27313.035     8104.463       14.772        4.101      461.938       88.118        0.036      345.343       22.802      858.147
06/20/2013  16:41:00     -495.616     -112.118      -22.455      219.124      150.112       97.974    48015.183    22533.467     9598.930       16.941        4.007      508.139      113.847        0.050      345.025       22.259      858.202
06/20/2013  16:42:00     -390.744     -204.398      -18.875      162.791      131.118       79.395    26500.780    17191.860     6303.598       12.240        2.500      440.975       71.910        0.027      344.798       21.869      858.206
06/20/2013  16:43:00     -214.248     -151.702        1.949      121.493      100.116       61.432    14760.664    10023.250     3773.860        4.873        1.428      262.517       63.097        0.058      344.808       21.886      858.202
06/20/2013  16:44:00     -350.043     -177.428       -7.703      137.912      104.397       69.920    19019.616    10898.695     4888.834        9.443        1.740      392.443       71.452        0.033      344.936       22.105      858.199
06/20/2013  16:45:00     -245.488      -94.274       -3.505      136.011      119.321       54.161    18498.882    14237.402     2933.447        5.241        1.783      262.968       61.990        0.056      345.356       22.825      858.205
06/20/2013  16:46:00     -198.772      -47.951        4.142      121.660      133.097       73.734    14801.145    17714.850     5436.762        3.988        1.898      204.474       70.774        0.120      345.565       23.183      858.250
06/20/2013  16:47:00     -247.313      -15.030        3.639      256.439      114.482       84.229    65761.087    13106.055     7094.594        7.367        4.298      247.769       85.314        0.119      345.480       23.039      858.244
06/20/2013  16:48:00     -409.649      -67.398      -10.166      215.138      145.189       68.297    46284.411    21079.767     4664.506       12.223        3.601      415.156       88.073        0.045      345.047       22.296      858.251
06/20/2013  16:49:00     -158.679     -150.440        8.310      154.051      112.876       51.103    23731.630    12741.029     2611.537        4.347        1.954      218.658       46.507        0.045      344.886       22.020      858.260
06/20/2013  16:50:00      -95.562      -54.206       18.695      104.801       50.999       51.042    10983.171     2600.888     2605.317        1.430        0.809      109.865       53.242        0.235      345.239       22.627      858.229
06/20/2013  16:51:00     -107.771      -90.140       13.345      139.595      103.845       74.276    19486.817    10783.708     5516.933        2.785        1.789      140.498       75.862        0.292      345.125       22.431      858.211
06/20/2013  16:52:00     -184.753      -80.468      -12.452      229.740      101.644       81.351    52780.645    10331.536     6618.034        5.523        3.487      201.516      107.471        0.284      345.058       22.314      858.245
06/20/2013  16:53:00     -244.293     -119.893       -6.204      183.962      130.041       68.732    33842.193    16910.600     4724.095        6.477        2.774      272.128       74.800        0.076      345.019       22.248      858.279
06/20/2013  16:54:00     -224.788      -93.835        6.671      157.265       99.127       62.590    24732.351     9826.130     3917.456        4.892        1.924      243.587       66.646        0.075      345.030       22.266      858.261
06/20/2013  16:55:00     -281.959      -92.781       -3.304      138.233      122.508       60.032    19108.341    15008.149     3603.900        6.291        1.886      296.832       66.518        0.050      344.678       21.663      858.250
06/20/2013  16:56:00     -147.187      -79.186       -4.084       83.664       61.531       30.260     6999.617     3786.021      915.691        1.982        0.585      167.136       34.897        0.044      344.742       21.775      858.256
06/20/2013  16:57:00      -99.030      -46.938       -2.798       92.089       75.848       45.255     8480.298     5752.854     2047.994        1.415        0.814      109.591       47.942        0.191      345.096       22.382      858.260
06/20/2013  16:58:00     -276.317      -85.681       -0.817      189.839      126.951       70.460    36039.018    16116.509     4964.649        7.040        2.856      289.296       88.504        0.094      345.108       22.399      858.278
06/20/2013  16:59:00     -319.858      -96.029      -13.614      163.617      139.747       65.470    26770.454    19529.352     4286.262        8.114        2.529      333.962       72.757        0.047      344.734       21.759      858.311
06/20/2013  17:00:00     -317.956      -87.571      -17.823      105.766       75.512       49.693    11186.441     5701.988     2469.405        6.422        0.968      329.795       51.687        0.025      344.626       21.575      858.322
06/20/2013  17:01:00     -120.455      -74.373       11.176      151.052       97.359       50.297    22816.650     9478.719     2529.757        2.749        1.741      141.565       70.779        0.250      344.919       22.078      858.327
06/20/2013  17:02:00     -197.449      -58.237       -8.989      108.331       76.346       44.929    11735.672     5828.654     2018.657        3.102        0.979      205.859       46.834        0.052      344.790       21.855      858.321
06/20/2013  17:03:00      -97.698     -160.138        7.236      102.952       96.622       44.742    10599.183     9335.785     2001.806        2.858        1.097      187.588       49.043        0.068      345.027       22.262      858.299
06/20/2013  17:04:00     -124.633      -91.545       13.916      122.722       80.328       56.426    15060.578     6452.541     3183.854        2.440        1.235      154.641       62.673        0.164      345.079       22.351      858.295
06/20/2013  17:05:00     -198.369     -137.806        3.690      126.473      120.422       64.195    15995.508    14501.525     4121.061        4.648        1.731      241.538       58.637        0.059      345.028       22.265      858.298
06/20/2013  17:06:00     -116.118      -88.050       -3.145      110.416      125.720       53.500    12191.613    15805.637     2862.235        2.605        1.543      145.726       45.131        0.096      345.216       22.586      858.316
06/20/2013  17:07:00     -198.561      -38.205        3.089      168.654      145.058       66.120    28444.263    21041.936     4371.917        4.737        2.693      202.203       77.717        0.148      345.225       22.602      858.309
06/20/2013  17:08:00     -307.205      -16.569       -3.235      147.809      128.645       63.070    21847.499    16549.576     3977.826        6.851        2.119      307.651       67.884        0.049      344.848       21.953      858.293
06/20/2013  17:09:00     -138.777      -31.022       29.989      139.069      105.182       69.104    19340.290    11063.357     4775.366        2.814        1.759      142.202       75.075        0.279      344.978       22.178      858.263
06/20/2013  17:10:00     -256.178      -63.355       -9.021      178.511      120.378       70.271    31866.101    14490.750     4937.986        6.050        2.565      263.896       90.410        0.117      344.907       22.057      858.261
06/20/2013  17:11:00     -244.869      -70.324       26.184      156.283      148.543       72.877    24424.378    22064.978     5311.043        5.869        2.590      254.767       80.408        0.100      345.117       22.414      858.269
06/20/2013  17:12:00     -244.209     -110.468       -1.470      153.689      144.657       80.144    23620.255    20925.641     6423.004        6.140        2.548      268.032       79.709        0.088      345.122       22.424      858.328
06/20/2013  17:13:00     -343.277     -185.284       -4.297      187.110      177.438       85.822    35010.001    31484.254     7365.406       11.301        3.693      390.089       94.383        0.059      344.807       21.884      858.317
06/20/2013  17:14:00     -288.513     -109.316       22.175      178.538      156.454       81.053    31875.742    24477.749     6569.616        7.929        3.146      308.528       94.618        0.094      344.886       22.020      858.298
06/20/2013  17:15:00     -253.884     -161.710        6.689      161.722      147.460       71.453    26153.921    21744.477     5105.480        7.182        2.650      301.010       75.469        0.063      344.794       21.862      858.320
06/20/2013  17:16:00     -238.444     -168.191       11.130      213.466      146.023       91.376    45567.739    21322.686     8349.552        8.024        3.762      291.794      104.759        0.129      344.763       21.811      858.285
06/20/2013  17:17:00     -158.615     -145.519       12.586      133.950      108.873       57.191    17942.633    11853.396     3270.832        3.977        1.653      215.254       62.359        0.084      344.889       22.025      858.287
06/20/2013  17:18:00     -140.454     -132.009        7.446      163.684       96.891       71.075    26792.368     9387.880     5051.600        3.921        2.062      192.753       44.502        0.053      344.936       22.105      858.301
06/20/2013  17:19:00     -157.656     -223.830       -8.203      130.565      152.958       66.832    17047.227    23396.268     4466.481        5.996        2.245      273.779       68.891        0.063      344.890       22.026      858.319
06/20/2013  17:20:00     -124.090     -236.637       -2.757      162.918      210.055       86.291    26542.346    44123.013     7446.134        7.474        3.906      267.199       72.215        0.073      344.911       22.064      858.305
06/20/2013  17:21:00     -337.376     -315.904       -5.645      207.351      198.794      107.685    42994.581    39518.915    11595.982       15.386        4.705      462.188       84.015        0.033      344.792       21.858      858.303
06/20/2013  17:22:00     -229.446     -199.895       12.359      156.868      121.178       66.679    24607.649    14684.137     4446.145        6.824        2.187      304.308       63.220        0.043      344.808       21.888      858.308
06/20/2013  17:23:00     -185.576     -251.252        3.631      131.691      131.789       73.393    17342.558    17368.336     5386.525        6.883        2.005      312.356       60.160        0.037      344.849       21.955      858.315
06/20/2013  17:24:00     -304.611     -229.692       -4.340      183.119      129.493       81.325    33532.398    16768.342     6613.739       10.123        2.846      381.505       87.430        0.053      344.813       21.895      858.294
06/20/2013  17:25:00     -195.392     -246.955       10.664      158.704      177.924       84.681    25187.110    31656.872     7170.793        8.163        3.201      314.904       84.640        0.072      344.923       22.083      858.279
06/20/2013  17:26:00     -460.281     -306.239       -0.811      252.405      175.049       93.954    63708.282    30642.304     8827.344       20.439        5.159      552.848      108.673        0.039      344.817       21.902      858.281
06/20/2013  17:27:00     -427.338     -269.603      -17.326      208.560      150.548       92.436    43497.301    22664.624     8544.475       16.514        3.735      505.276      106.484        0.044      344.938       22.110      858.297
06/20/2013  17:28:00     -220.342     -222.523       10.063      152.554      127.724       73.035    23272.628    16313.363     5334.066        7.154        2.246      313.157       68.523        0.048      345.106       22.396      858.324
06/20/2013  17:29:00     -293.985     -259.934        3.609      202.416      167.975       93.697    40972.194    28215.488     8779.188       11.597        3.898      392.419      104.437        0.071      345.071       22.336      858.349
06/20/2013  17:30:00     -487.751     -326.140       -5.282      268.067      210.771      121.722    71860.177    44424.523    14816.344       23.767        6.555      586.743      135.773        0.054      344.772       21.825      858.351
06/20/2013  17:31:00     -450.364     -335.108       -9.752      234.875      179.220      100.391    55166.489    32119.963    10078.281       20.627        4.868      561.360      109.532        0.038      344.591       21.515      858.343
06/20/2013  17:32:00     -292.024     -182.441        5.543      192.242      155.677       81.155    36956.948    24235.415     6586.140        9.317        3.389      344.330       96.704        0.079      344.749       21.786      858.354
06/20/2013  17:33:00     -270.120     -259.903       -6.154      162.192      133.399       65.669    26306.350    17795.381     4312.414        9.447        2.421      374.852       63.484        0.029      344.679       21.667      858.358
06/20/2013  17:34:00     -296.410     -207.548      -14.756      180.043      158.929       79.434    32415.527    25258.413     6309.710        9.756        3.199      361.850       97.762        0.073      344.631       21.584      858.320
06/20/2013  17:35:00     -367.624     -223.893       -5.498      228.801      175.254      104.072    52349.858    30713.886    10830.995       13.958        4.695      430.436      113.657        0.070      344.732       21.756      858.325
06/20/2013  17:36:00     -351.313      -24.349       -0.667      202.615      153.356       81.664    41052.734    23518.046     6668.951        9.761        3.562      352.156       75.536        0.046      344.649       21.615      858.355
06/20/2013  17:37:00     -386.411      -95.779      -12.372      292.577      156.524       95.664    85601.077    24499.809     9151.591       13.892        5.963      398.104      119.777        0.091      344.638       21.595      858.332
06/20/2013  17:38:00     -409.018     -156.065      -17.596      238.451      170.864       98.446    56858.663    29194.515     9691.535       14.383        4.787      437.780      119.193        0.074      344.642       21.602      858.366
06/20/2013  17:39:00     -168.783      -68.328       -3.568      174.693      118.852       78.279    30517.604    14125.778     6127.592        4.196        2.539      182.089       85.124        0.219      344.790       21.856      858.358
06/20/2013  17:40:00     -426.027      -41.056       -9.356      262.731      162.480       92.484    69027.696    26399.899     8553.369       14.361        5.199      428.000      127.214        0.088      344.591       21.514      858.339
06/20/2013  17:41:00     -307.649      -77.743       -6.823      124.334      113.531       65.602    15458.886    12889.228     4303.620        6.669        1.633      317.319       56.059        0.031      344.629       21.579      858.378
06/20/2013  17:42:00     -262.344     -171.408      -15.861      162.710       94.919       66.820    26474.496     9009.626     4464.929        6.920        1.997      313.377       80.319        0.066      344.608       21.544      858.362
06/20/2013  17:43:00     -287.641     -167.708      -16.141      146.612       98.050       73.285    21495.061     9613.752     5370.721        7.379        1.824      332.961       82.877        0.062      344.641       21.601      858.351
06/20/2013  17:44:00     -441.259     -245.077      -21.925      235.488      179.946       80.515    55454.829    32380.659     6482.609       17.477        4.716      504.749      102.002        0.041      344.560       21.463      858.344
06/20/2013  17:45:00     -407.867     -142.415      -10.138      194.571      131.807       76.350    37857.761    17373.008     5829.289       12.389        3.053      432.016       79.948        0.034      344.610       21.547      858.343
06/20/2013  17:46:00     -344.138     -165.456        4.513      226.734      151.111       72.977    51408.378    22834.666     5325.623       11.268        3.978      381.846       71.723        0.035      344.748       21.783      858.336
06/20/2013  17:47:00     -373.967     -256.735      -16.588      184.940      207.092       85.450    34202.705    42887.251     7301.750       14.520        4.220      453.612      105.211        0.054      344.563       21.468      858.319
06/20/2013  17:48:00     -241.811     -235.869       -5.337      182.218      137.012       75.538    33203.553    18772.177     5706.002        8.590        2.884      337.797       92.069        0.074      344.632       21.584      858.340
06/20/2013  17:49:00     -302.088     -258.728      -10.367      129.109      125.585       73.811    16669.058    15771.610     5448.067        9.809        1.894      397.741       77.141        0.038      344.572       21.482      858.317
06/20/2013  17:50:00     -179.877     -269.168        0.401      150.698      187.960       69.621    22709.927    35329.011     4847.018        8.383        3.144      323.740       61.788        0.036      344.585       21.504      858.305
06/20/2013  17:51:00     -353.689     -233.078       -8.631      194.690      211.469       91.500    37904.175    44719.315     8372.192       13.523        4.550      423.582      108.581        0.066      344.693       21.690      858.313
06/20/2013  17:52:00     -254.657      -39.501      -11.946      190.427      128.008       78.659    36262.379    16386.060     6187.253        6.268        2.942      257.702       90.150        0.122      344.819       21.904      858.316
06/20/2013  17:53:00     -395.778      -77.930      -32.796      278.067      150.174       85.012    77321.257    22552.081     7227.025       13.542        5.355      403.378      131.884        0.107      344.833       21.930      858.342
06/20/2013  17:54:00     -484.339     -155.849      -46.970      198.347      151.749       82.719    39341.406    23027.779     6842.408       16.513        3.461      508.796       81.383        0.026      344.671       21.651      858.343
06/20/2013  17:55:00     -381.883     -163.962       10.478      254.152      156.005       95.497    64593.238    24337.441     9119.686       13.542        4.903      415.593      127.271        0.094      344.688       21.682      858.297
06/20/2013  17:56:00     -307.733      -49.376      -27.185      129.367      103.867       60.139    16735.946    10788.288     3616.736        6.450        1.557      311.670       60.989        0.038      344.836       21.934      858.341
06/20/2013  17:57:00     -249.987      -15.177      -10.130      145.772      106.258       61.985    21249.447    11290.678     3842.169        4.960        1.819      250.447       60.716        0.059      344.808       21.886      858.339
06/20/2013  17:58:00     -253.082      -78.723      -16.887      146.649      108.508       74.960    21505.799    11773.894     5619.067        5.471        1.945      265.043       34.930        0.017      344.847       21.954      858.318
06/20/2013  17:59:00     -252.817      -71.293      -14.292      133.598      126.340       72.407    17848.334    15961.830     5242.766        5.412        1.953      262.677       69.635        0.070      344.627       21.575      858.327
06/20/2013  18:00:00     -465.561      -29.781      -37.369      208.981      134.437       70.355    43673.152    18073.253     4949.800       14.285        3.335      466.512       88.360        0.036      344.637       21.594      858.336
06/20/2013  18:01:00     -336.887      -96.039      -11.232      155.115      144.505       67.560    24060.775    20881.694     4564.405        8.617        2.475      350.309       66.466        0.036      344.685       21.676      858.339
06/20/2013  18:02:00     -311.173     -148.324      -11.678      208.368      146.423       73.735    43417.424    21439.558     5436.893        9.462        3.515      344.716       83.272        0.058      344.552       21.449      858.371
06/20/2013  18:03:00      -85.532       -1.801       16.071      104.691       80.202       46.337    10960.123     6432.337     2147.077        1.355        0.977       85.551       51.043        0.356      344.677       21.664      858.409
06/20/2013  18:04:00     -133.250     -106.955       -0.985      151.182      131.080       76.588    22855.897    17181.861     5865.732        3.754        2.295      170.865       71.084        0.173      344.700       21.704      858.414
06/20/2013  18:05:00     -174.417     -154.792       19.434      161.764      121.695       79.646    26167.722    14809.562     6343.450        5.103        2.366      233.199       85.890        0.136      344.716       21.731      858.422
06/20/2013  18:06:00     -240.498     -142.149       11.570      155.609      138.219       78.171    24214.185    19104.407     6110.712        6.379        2.471      279.366       77.739        0.077      344.653       21.621      858.409
06/20/2013  18:07:00     -238.333     -144.329       -9.284      141.052      122.783       72.663    19895.570    15075.620     5279.844        5.898        2.013      278.628       70.592        0.064      344.718       21.731      858.403
06/20/2013  18:08:00     -241.293     -197.679       -2.900      210.657      161.293       70.225    44376.568    26015.457     4931.578        8.630        3.766      311.929       86.759        0.077      344.611       21.550      858.407
06/20/2013  18:09:00     -357.701     -214.864       -5.123      246.574      197.717       96.246    60798.577    39091.874     9263.298       14.163        5.458      417.273      107.975        0.067      344.510       21.375      858.422
06/20/2013  18:10:00     -304.468     -150.664       -3.456      218.373      158.398       86.495    47686.638    25089.818     7481.406        9.782        4.013      339.706      107.660        0.100      344.426       21.234      858.442
06/20/2013  18:11:00     -378.577     -119.748       -6.451      200.075      178.707       87.449    40029.811    31936.099     7647.397       11.864        3.981      397.065      101.902        0.066      344.438       21.253      858.394
06/20/2013  18:12:00     -388.122     -238.197      -15.504      171.658      217.819       76.479    29466.322    47445.126     5848.999       14.517        4.138      455.387       69.012        0.023      344.379       21.152      858.436
06/20/2013  18:13:00     -385.887     -130.846       -7.923      221.852      190.681       84.650    49218.498    36359.226     7165.610       12.940        4.637      407.467      104.211        0.065      344.389       21.170      858.402
06/20/2013  18:14:00     -264.799     -152.781       10.596      183.709      166.156       96.577    33749.106    27607.843     9327.021        8.211        3.534      305.713      102.628        0.113      344.423       21.228      858.410
06/20/2013  18:15:00     -386.852     -302.676       -7.055      209.704      154.599       94.977    43975.646    23900.852     9020.707       15.909        3.845      491.189       98.829        0.040      344.400       21.187      858.407
06/20/2013  18:16:00     -451.549     -325.312       -4.802      214.001      168.938      109.373    45796.423    28539.884    11962.482       19.801        4.315      556.529      109.357        0.039      344.313       21.040      858.431
06/20/2013  18:17:00     -440.040     -312.701      -25.778      205.407      180.413       93.844    42192.019    32548.837     8806.781       18.780        4.177      539.831      106.298        0.039      344.240       20.916      858.420
06/20/2013  18:18:00     -328.263     -150.997      -12.055      167.662      152.167       76.834    28110.710    23154.751     5903.425        9.392        2.858      361.326       83.392        0.053      344.234       20.906      858.424
06/20/2013  18:19:00     -493.308     -195.534       -8.570      229.232      168.194       89.760    52547.150    28289.201     8056.820       18.526        4.445      530.647       88.463        0.028      344.279       20.983      858.436
06/20/2013  18:20:00     -309.305     -122.493      -14.031      212.223      120.991       92.201    45038.453    14638.917     8500.959        8.951        3.409      332.677      101.494        0.093      344.349       21.102      858.457
06/20/2013  18:21:00     -552.184      -74.694      -18.668      195.213      133.890       77.361    38107.981    17926.541     5984.768       18.641        3.101      557.213       87.288        0.025      344.174       20.803      858.478
06/20/2013  18:22:00     -501.680      -71.635      -21.065      215.803      162.910       87.104    46570.946    26539.761     7587.121       16.896        4.035      506.769      116.255        0.053      344.205       20.856      858.461
06/20/2013  18:23:00     -369.271      -80.780      -23.444      124.321      125.810       64.648    15455.792    15828.051     4179.395        8.944        1.773      378.004       56.147        0.022      344.337       21.081      858.469
06/20/2013  18:24:00     -348.627     -249.243      -19.823      230.114      156.555       76.123    52952.496    24509.590     5794.671       13.364        4.163      428.559       77.569        0.033      344.395       21.180      858.451
06/20/2013  18:25:00     -387.243     -283.894      -29.136      184.882      149.929       79.537    34181.301    22478.720     6326.145       14.718        3.149      480.160       85.148        0.031      344.362       21.122      858.464
06/20/2013  18:26:00     -406.308     -310.458      -19.773      215.916      152.760      118.835    46619.926    23335.515    14121.859       17.295        4.204      511.342      120.758        0.056      344.334       21.075      858.464
06/20/2013  18:27:00     -433.198     -269.158      -15.499      194.751      151.123       88.519    37927.870    22838.056     7835.542       16.446        3.430      510.006       86.392        0.029      344.216       20.874      858.466
06/20/2013  18:28:00     -295.964     -199.951       17.087      209.231      125.859       87.756    43777.542    15840.414     7701.133        9.758        3.366      357.177       90.276        0.064      344.289       20.999      858.475
06/20/2013  18:29:00     -289.934     -227.928       -2.605      175.318      132.766       82.621    30736.468    17626.860     6826.148        9.559        2.759      368.799       71.182        0.037      344.310       21.035      858.449
06/20/2013  18:30:00     -238.987     -207.792       -2.269      183.705      173.073      103.661    33747.582    29954.186    10745.528        8.736        3.722      316.690      117.556        0.138      344.478       21.324      858.480
06/20/2013  18:31:00     -297.872     -139.782      -10.514      172.901      169.022       78.055    29894.862    28568.433     6092.558        8.645        3.228      329.039       83.516        0.064      344.433       21.245      858.498
06/20/2013  18:32:00     -335.784     -220.926       -2.966      216.585      149.350       97.002    46908.874    22305.310     9409.406       12.008        3.931      401.944      102.355        0.065      344.374       21.144      858.482
06/20/2013  18:33:00     -480.778     -225.525      -23.071      195.358      136.371       81.967    38164.632    18597.023     6718.596       17.300        3.174      531.045       60.813        0.013      344.289       21.001      858.488
06/20/2013  18:34:00     -352.169     -216.887        3.756      225.598      177.250       98.068    50894.361    31417.419     9617.298       13.149        4.596      413.598      101.218        0.060      344.251       20.934      858.504
06/20/2013  18:35:00     -404.502     -275.331       -9.914      258.582      165.745      104.798    66864.791    27471.470    10982.555       17.240        5.266      489.315      124.005        0.064      344.225       20.890      858.480
06/20/2013  18:36:00     -403.916     -271.290       -9.269      242.638      166.792      102.953    58873.208    27819.439    10599.367       16.704        4.865      486.566      128.880        0.070      344.209       20.861      858.489
06/20/2013  18:37:00     -269.165     -163.939        8.474      200.487      171.403       93.025    40195.046    29379.129     8653.709        8.880        3.911      315.160      110.570        0.123      344.207       20.858      858.518
06/20/2013  18:38:00     -330.284      -82.998      -20.357      155.758      186.484       75.201    24260.493    34776.200     5655.264        9.053        3.235      340.552       96.870        0.081      344.190       20.830      858.500
06/20/2013  18:39:00     -380.286      -80.822      -21.802      161.936      109.705       62.546    26223.364    12035.239     3911.973        9.689        2.109      388.779       67.886        0.030      344.157       20.773      858.487
06/20/2013  18:40:00     -316.056     -207.308       -5.428      176.801      166.437       86.566    31258.754    27701.155     7493.738       10.466        3.323      377.979       91.569        0.059      344.228       20.895      858.508
06/20/2013  18:41:00     -412.954     -299.809      -36.335      183.183      130.401       90.208    33556.014    17004.349     8137.515       16.021        2.935      510.310       89.357        0.031      344.221       20.884      858.513
06/20/2013  18:42:00     -229.200     -201.537       10.572      137.235      161.611       74.866    18833.491    26118.086     5604.943        7.190        2.528      305.205       76.794        0.063      344.262       20.953      858.519
06/20/2013  18:43:00     -171.220     -179.382       10.304      127.810      123.847       78.799    16335.330    15338.127     6209.349        4.973        1.894      247.980       81.998        0.109      344.297       21.013      858.524
06/20/2013  18:44:00     -321.500     -275.732       -4.893      173.180      174.993       97.188    29991.173    30622.423     9445.584       12.472        3.503      423.545      102.908        0.059      344.215       20.873      858.525
06/20/2013  18:45:00     -302.366     -184.078       -6.873      138.563      129.454       65.202    19199.735    16758.355     4251.279        8.278        2.010      353.991       66.993        0.036      344.330       21.070      858.546
06/20/2013  18:46:00     -317.410     -162.824      -32.071      206.071      138.879       71.325    42465.186    19287.371     5087.218        9.755        3.342      356.736       87.706        0.060      344.303       21.022      858.560
06/20/2013  18:47:00     -418.819     -264.142       -6.554      227.768      185.113       96.421    51878.435    34266.928     9296.941       17.031        4.772      495.157      111.968        0.051      344.127       20.723      858.524
06/20/2013  18:48:00     -361.322     -233.526      -22.156      193.385      199.472       94.469    37397.832    39789.046     8924.372       13.583        4.306      430.218      102.008        0.056      344.288       20.997      858.560
06/20/2013  18:49:00     -405.640      -87.062      -15.051      223.043      138.146       88.238    49748.107    19084.361     7786.025       12.447        3.831      414.878      101.219        0.060      344.194       20.837      858.592
06/20/2013  18:50:00     -384.693     -128.479       -8.085      166.112      139.310       75.469    27593.077    19407.189     5695.550       10.862        2.635      405.581       76.309        0.035      344.208       20.861      858.592
06/20/2013  18:51:00     -363.897      -74.673       -4.241      184.035      129.417       81.786    33869.028    16748.849     6688.936        9.765        2.865      371.479       95.194        0.066      344.247       20.927      858.606
06/20/2013  18:52:00     -515.328      -93.588      -20.504      239.458      166.132       89.616    57340.091    27599.901     8031.035       18.384        4.649      523.758      108.153        0.043      344.121       20.713      858.616
06/20/2013  18:53:00     -496.953      -82.592      -18.694      198.255      163.884       84.345    39305.007    26858.018     7114.090       16.369        3.664      503.769       97.591        0.038      344.021       20.542      858.581
06/20/2013  18:54:00     -486.013     -205.572      -33.174      165.679      156.977       84.258    27449.446    24641.807     7099.469       16.937        2.960      527.701       84.609        0.026      344.072       20.629      858.599
06/20/2013  18:55:00     -313.427     -167.637       -7.188      131.524      159.222       79.054    17298.558    25351.748     6249.576        8.764        2.445      355.441       74.945        0.044      344.156       20.772      858.636
06/20/2013  18:56:00     -245.480     -202.631       -6.249      155.931      169.055       72.990    24314.434    28579.741     5327.511        7.978        2.911      318.308       78.245        0.060      344.143       20.751      858.654
06/20/2013  18:57:00     -263.441     -204.746       12.893      183.175      171.306       99.021    33553.198    29345.770     9805.169        9.208        3.635      333.650      117.155        0.123      344.134       20.733      858.641
06/20/2013  18:58:00     -371.848     -308.700      -23.883      204.502      156.456      101.380    41821.207    24478.541    10277.856       15.534        3.829      483.287       99.273        0.042      344.122       20.713      858.647
06/20/2013  18:59:00     -309.233     -110.853       17.955      198.014      151.192       92.669    39209.425    22858.970     8587.500        8.943        3.533      328.502       92.149        0.079      344.092       20.661      858.650
06/20/2013  19:00:00     -379.877     -171.965       19.424      236.561      154.803       86.352    55960.957    23963.952     7456.706       13.080        4.369      416.987      105.429        0.064      344.109       20.693      858.643
06/20/2013  19:01:00     -322.386     -201.854       -4.610      208.808      160.998       86.245    43600.838    25920.480     7438.274       11.081        3.848      380.365       93.176        0.060      344.112       20.696      858.669
06/20/2013  19:02:00     -255.462      -87.372       -2.774      205.154      150.022       79.133    42087.987    22506.702     6262.034        7.187        3.543      269.990       86.575        0.103      344.184       20.821      858.676
06/20/2013  19:03:00     -225.057      -49.815        2.834      138.049      162.409       66.545    19057.502    26376.633     4428.292        5.149        2.493      230.504       62.178        0.073      344.220       20.880      858.702
06/20/2013  19:04:00     -159.920      -73.097        7.237      135.646       64.471       52.559    18399.831     4156.553     2762.438        2.814        1.266      175.834       68.642        0.152      344.362       21.125      858.724
06/20/2013  19:05:00     -287.647      -88.770       -0.453      234.349      201.335       92.261    54919.498    40535.949     8512.092        9.727        5.198      301.033      120.445        0.160      344.162       20.782      858.741
06/20/2013  19:06:00     -316.291       29.190      -13.486      182.610      105.578       74.237    33346.581    11146.731     5511.186        7.553        2.500      317.635       76.833        0.059      344.169       20.794      858.769
06/20/2013  19:07:00     -302.026      -15.289      -20.109      162.629      125.110       65.602    26448.280    15652.462     4303.626        6.912        2.320      302.412       62.592        0.043      344.174       20.804      858.785
06/20/2013  19:08:00     -447.730     -134.273      -17.311      205.857      139.215       83.145    42376.945    19380.913     6913.150       14.372        3.434      467.431       84.543        0.033      344.069       20.623      858.783
06/20/2013  19:09:00     -405.659      -18.874      -19.217      160.914      153.975       86.823    25893.208    23708.247     7538.209       11.120        2.857      406.097       85.139        0.044      344.080       20.642      858.809
06/20/2013  19:10:00     -527.067      -87.802      -16.087      212.570      194.999       95.405    45185.971    38024.542     9102.090       18.902        4.616      534.330       97.096        0.033      343.970       20.453      858.797
06/20/2013  19:11:00     -448.009     -102.441      -10.602      173.456      160.839       85.925    30087.016    25869.309     7383.063       13.732        3.167      459.571       83.081        0.033      344.000       20.506      858.816
06/20/2013  19:12:00     -510.328     -153.085      -27.480      168.532      150.110       84.042    28403.197    22532.936     7063.124       17.130        2.900      532.794       89.296        0.028      344.013       20.527      858.815
06/20/2013  19:13:00     -400.815      -71.189       -7.249      228.761      142.738       92.752    52331.641    20374.219     8602.933       12.353        4.065      407.088      110.053        0.073      343.997       20.499      858.816
06/20/2013  19:14:00     -213.409     -119.085      -12.858      139.985      115.988       68.082    19595.685    13453.126     4635.106        4.878        1.884      244.386       66.954        0.075      344.075       20.635      858.820
06/20/2013  19:15:00     -202.573      -99.293       15.868      146.640      144.841       77.119    21503.424    20978.796     5947.272        4.978        2.421      225.599       65.186        0.083      344.071       20.627      858.819
06/20/2013  19:16:00     -292.792      -20.666        5.011      225.827      122.253       78.271    50997.754    14945.737     6126.411        7.911        3.603      293.520       81.978        0.078      344.064       20.615      858.857
06/20/2013  19:17:00     -356.020      -98.601      -10.473      150.887      133.490       67.633    22766.966    17819.684     4574.267        9.086        2.258      369.422       76.452        0.043      344.068       20.621      858.881
06/20/2013  19:18:00     -309.886      -62.206      -22.416      191.814      168.317       81.087    36792.451    28330.625     6575.158        8.604        3.585      316.068       73.187        0.054      343.969       20.452      858.877
06/20/2013  19:19:00     -432.125       -3.017      -43.050      207.992      111.830       84.573    43260.607    12505.875     7152.649       12.574        3.146      432.136      100.113        0.054      343.933       20.391      858.891
06/20/2013  19:20:00     -183.257       -8.326        4.796      167.161      129.784       71.507    27942.671    16843.886     5113.229        4.178        2.495      183.446       85.679        0.218      344.021       20.542      858.889
06/20/2013  19:21:00     -400.697      -42.764       -9.605      186.932      125.414       81.935    34943.472    15728.672     6713.304       10.992        2.869      402.973       82.576        0.042      343.901       20.337      858.919
06/20/2013  19:22:00     -252.277     -150.560       -4.565      167.447      152.724       86.143    28038.633    23324.624     7420.534        7.255        2.939      293.789       92.558        0.099      343.939       20.399      858.902
06/20/2013  19:23:00     -227.531     -163.231      -10.589      124.028      134.712       65.106    15382.911    18147.370     4238.805        5.814        1.888      280.026       60.689        0.047      343.960       20.436      858.913
06/20/2013  19:24:00     -423.395     -162.673      -25.058      181.480      105.260       64.044    32934.902    11079.647     4101.641       12.723        2.406      453.570       67.612        0.022      343.928       20.381      858.912
06/20/2013  19:25:00     -410.886     -118.520      -21.397      171.110      146.836       76.647    29278.511    21560.674     5874.755       12.001        2.836      427.638       63.670        0.022      343.982       20.473      858.915
06/20/2013  19:26:00     -272.250      -73.906       10.720      141.942      136.075       64.865    20147.476    18516.289     4207.503        6.128        2.144      282.103       79.210        0.079      343.959       20.435      858.940
06/20/2013  19:27:00     -205.293      -44.972        6.679      137.310      105.063       57.458    18853.986    11038.271     3301.466        3.870        1.660      210.161       60.325        0.082      343.973       20.459      858.948
06/20/2013  19:28:00     -415.584     -180.790      -12.054      215.214      168.269       81.167    46317.127    28314.559     6588.111       14.336        4.061      453.205       96.480        0.045      343.923       20.374      858.974
06/20/2013  19:29:00     -327.482      -30.482       10.266      214.513      174.673       88.685    46015.727    30510.792     7865.026        9.632        4.220      328.897      104.679        0.101      343.903       20.340      858.977
06/20/2013  19:30:00     -239.095      -75.194        5.678      138.880      129.560       82.087    19287.544    16785.739     6738.220        5.282        2.141      250.640       73.879        0.087      343.949       20.417      858.983
06/20/2013  19:31:00     -259.458     -122.590       22.369      192.216      158.202       96.678    36947.144    25028.026     9346.699        7.707        3.566      286.961      102.155        0.127      343.839       20.230      858.989
06/20/2013  19:32:00     -566.998      -54.665      -26.866      167.727      214.472       95.432    28132.346    45998.356     9107.235       20.420        4.162      569.627       86.695        0.023      343.681       19.961      859.022
06/20/2013  19:33:00     -460.108      -90.452      -21.866      247.092      168.427       98.356    61054.324    28367.593     9673.834       15.971        4.955      468.915      116.599        0.062      343.706       20.003      859.010
06/20/2013  19:34:00     -313.472      -87.503      -15.829      162.979      126.997       62.937    26562.080    16128.304     3961.014        7.640        2.333      325.456       64.191        0.039      343.732       20.048      859.045
06/20/2013  19:35:00     -242.036      -55.070      -13.737      134.245      119.145       65.296    18021.609    14195.508     4263.576        4.913        1.824      248.222       75.823        0.093      343.791       20.147      859.056
06/20/2013  19:36:00     -185.658      -54.600        6.053      104.383      113.743       59.253    10895.751    12937.523     3510.896        3.241        1.367      193.521       47.048        0.059      343.829       20.214      859.041
06/20/2013  19:37:00     -336.300      -33.636      -13.506      141.596      133.304       73.061    20049.552    17770.051     5337.960        7.878        2.158      337.978       66.659        0.039      343.754       20.084      859.064
06/20/2013  19:38:00     -555.500     -148.494      -30.272      207.956      167.128       81.203    43245.638    27931.657     6593.915       20.464        3.889      575.005       90.282        0.025      343.674       19.948      859.066
06/20/2013  19:39:00     -566.853      -92.700      -21.465      247.091      172.025      100.170    61053.797    29592.445    10033.971       21.551        5.034      574.383      126.775        0.049      343.637       19.887      859.073
06/20/2013  19:40:00     -489.832     -207.023      -16.423      241.526      194.550      105.379    58334.590    37849.699    11104.808       19.516        5.364      531.784      122.144        0.053      343.633       19.879      859.093
06/20/2013  19:41:00     -429.396     -196.404      -25.852      171.968      220.932       91.995    29573.064    48811.069     8463.025       15.522        4.342      472.182       85.617        0.033      343.651       19.908      859.103
06/20/2013  19:42:00     -250.011      -95.505        0.451      146.045      116.076       62.998    21329.155    13473.694     3968.784        5.519        1.939      267.632       63.591        0.056      343.688       19.973      859.118
06/20/2013  19:43:00     -466.527      -31.278      -10.030      191.503      154.120       84.093    36673.549    23752.892     7071.636       14.310        3.375      467.575       87.973        0.035      343.617       19.851      859.133
06/20/2013  19:44:00     -268.670      -47.236        5.988      176.989      137.732       66.874    31325.103    18970.007     4472.153        6.460        2.738      272.791       68.971        0.064      343.653       19.914      859.151
06/20/2013  19:45:00     -516.516     -153.572       -1.919      231.527      160.246       94.975    53604.966    25678.912     9020.269       18.932        4.415      538.863      110.118        0.042      343.580       19.789      859.153
06/20/2013  19:46:00     -256.116     -118.202       -7.291      173.011      108.982       67.553    29932.674    11877.037     4563.354        6.299        2.319      282.076       69.165        0.060      343.604       19.830      859.174
06/20/2013  19:47:00     -340.637     -148.004      -23.245      239.017      147.561       87.835    57129.110    21774.303     7714.930       11.253        4.331      371.401       98.509        0.070      343.607       19.834      859.174
06/20/2013  19:48:00     -342.298      -33.071      -14.410      159.932      165.103       83.482    25578.208    27258.853     6969.184        8.913        2.990      343.892       78.439        0.052      343.591       19.806      859.173
06/20/2013  19:49:00     -454.506      -64.326      -26.287      158.952      125.739       78.947    25265.639    15810.368     6232.692       12.935        2.365      459.035       86.163        0.035      343.555       19.747      859.197
06/20/2013  19:50:00     -401.181      -86.991      -31.210      119.620      154.657       64.007    14309.063    23918.783     4096.924       10.590        2.116      410.505       59.877        0.021      343.550       19.737      859.196
06/20/2013  19:51:00     -432.355      -83.422      -23.968      183.580      127.272       77.359    33701.792    16198.243     5984.379       12.516        2.794      440.329       88.214        0.040      343.564       19.761      859.202
06/20/2013  19:52:00     -204.400      -99.677       -3.577      162.545      146.897       68.483    26420.847    21578.869     4689.866        5.220        2.634      227.409       71.861        0.100      343.594       19.813      859.219
06/20/2013  19:53:00     -420.862     -300.168       -6.625      243.113      202.261      119.630    59104.005    40909.594    14311.312       19.078        5.716      516.939      145.012        0.079      343.503       19.657      859.206
06/20/2013  19:54:00     -409.164     -190.429      -11.912      200.367      187.368       92.950    40146.738    35106.595     8639.780       14.384        4.195      451.307       85.257        0.036      343.475       19.609      859.206
06/20/2013  19:55:00     -277.786      -71.456        0.432      171.538      154.718       78.364    29425.187    23937.748     6140.844        7.088        2.975      286.829       86.246        0.090      343.451       19.568      859.238
06/20/2013  19:56:00     -326.232      -77.156      -21.931      200.239      144.790       80.748    40095.648    20964.071     6520.318        9.021        3.379      335.232       91.749        0.075      343.464       19.590      859.261
06/20/2013  19:57:00     -362.628      -59.257      -28.812      113.637      124.882       62.372    12913.269    15595.562     3890.208        8.411        1.620      367.438       52.890        0.021      343.459       19.580      859.274
06/20/2013  19:58:00     -243.387     -164.217        1.210      158.058      147.902       69.473    24982.317    21874.966     4826.508        6.893        2.584      293.606       71.901        0.060      343.443       19.557      859.270
06/20/2013  19:59:00     -316.790      -82.285        7.482      203.547      161.825      104.941    41431.326    26187.329    11012.685        9.289        3.932      327.302      107.177        0.107      343.425       19.524      859.264
06/20/2013  20:00:00     -340.694     -141.274       -7.653      151.103      145.476       77.091    22832.229    21163.348     5943.053        9.300        2.497      368.823       77.797        0.044      343.382       19.451      859.289
06/20/2013  20:01:00     -272.104      -80.741       11.785      228.007      146.862       79.814    51987.274    21568.437     6370.243        8.030        3.996      283.830      111.850        0.155      343.285       19.287      859.309
06/20/2013  20:02:00     -322.621      -69.303       -2.141      202.378      149.221       76.455    40956.764    22267.004     5845.344        8.897        3.453      329.980       84.872        0.066      343.345       19.388      859.309
06/20/2013  20:03:00     -372.604      -48.573       -3.404      183.807      127.705       71.470    33784.951    16308.688     5107.991        9.819        2.760      375.756       83.083        0.049      343.322       19.348      859.327
06/20/2013  20:04:00     -441.923     -168.096      -32.346      210.013      146.867       71.108    44105.256    21569.781     5056.351       14.765        3.537      472.813       78.868        0.028      343.309       19.327      859.340
06/20/2013  20:05:00     -312.622       73.959      -17.618      244.260      134.558       88.429    59662.861    18105.767     7819.720        9.453        4.279      321.252      113.302        0.124      343.281       19.279      859.355
06/20/2013  20:06:00     -158.719      -75.119       20.713      143.137      109.982       77.974    20488.279    12095.961     6079.966        3.496        1.933      175.598       89.934        0.262      343.297       19.307      859.391
06/20/2013  20:07:00     -327.598     -195.178       -0.952      205.571      178.525       97.140    42259.547    31871.020     9436.087       11.448        4.178      381.333      115.958        0.092      343.276       19.270      859.382
06/20/2013  20:08:00     -310.903     -143.960      -11.418      174.969      116.933       83.172    30614.155    13673.339     6917.557        8.435        2.560      342.615       91.489        0.071      343.252       19.227      859.398
06/20/2013  20:09:00     -273.450     -105.822       -5.492      124.708      110.358       64.373    15552.000    12178.937     4143.936        5.893        1.594      293.212       61.886        0.045      343.252       19.229      859.410
06/20/2013  20:10:00     -259.786      -62.468      -10.632      137.183      106.542       54.316    18819.187    11351.148     2950.242        5.231        1.656      267.191       66.707        0.062      343.252       19.229      859.405
06/20/2013  20:11:00     -148.937      -42.028       -8.715       93.215       55.541       40.124     8689.027     3084.801     1609.973        1.870        0.669      154.753       42.562        0.076      343.239       19.209      859.421
06/20/2013  20:12:00     -194.550        3.483       -4.742      149.077       69.617       60.084    22223.894     4846.524     3610.120        3.428        1.534      194.581       72.721        0.140      343.202       19.146      859.429
06/20/2013  20:13:00     -256.647        3.974       -6.748       94.162       96.818       57.800     8866.482     9373.752     3340.859        4.375        1.079      256.678       53.332        0.043      343.172       19.092      859.434
06/20/2013  20:14:00     -250.263      -97.293       -6.703      116.351      112.969       57.926    13537.566    12761.889     3355.459        5.089        1.483      268.510       55.028        0.042      343.180       19.105      859.429
06/20/2013  20:15:00     -275.522      -79.572      -10.103      151.841      150.495       70.885    23055.828    22648.693     5024.674        6.653        2.536      286.783       58.739        0.042      343.153       19.060      859.438
06/20/2013  20:16:00     -225.642      -48.198       -3.856      160.886      113.863       74.341    25884.350    12964.823     5526.525        4.881        2.219      230.732       90.108        0.153      343.125       19.013      859.422
06/20/2013  20:17:00     -377.084      -22.862      -21.519      136.088      112.284       64.165    18520.027    12607.692     4117.084        8.920        1.762      377.776       62.569        0.027      343.101       18.972      859.435
06/20/2013  20:18:00     -348.981      -32.514      -16.686      178.649      172.893       84.963    31915.574    29891.881     7218.656        9.606        3.451      350.492      101.370        0.084      343.109       18.985      859.432
06/20/2013  20:19:00     -210.818       -0.835       -2.589      125.106      113.154       58.764    15651.472    12803.832     3453.191        3.817        1.595      210.820       62.517        0.088      343.061       18.903      859.446
06/20/2013  20:20:00     -265.973     -100.740       11.093      213.326      160.616       79.928    45508.087    25797.487     6388.417        7.934        3.885      284.412      104.624        0.135      343.054       18.892      859.451
06/20/2013  20:21:00     -210.605      -49.952       -0.366      126.688      123.912       75.784    16049.860    15354.114     5743.289        4.199        1.857      216.448       76.498        0.125      343.079       18.935      859.434
06/20/2013  20:22:00     -245.501      -69.703      -20.031      117.272      111.563       59.376    13752.613    12446.195     3525.517        4.762        1.486      255.204       60.947        0.057      343.061       18.905      859.448
06/20/2013  20:23:00     -159.075      -87.743       11.796      153.622      123.408       56.997    23599.636    15229.601     3248.644        3.760        2.104      181.669       66.813        0.135      343.011       18.819      859.462
06/20/2013  20:24:00     -197.439      -74.972       -0.409      110.372      102.816       56.794    12181.988    10571.125     3225.567        3.529        1.299      211.194       59.623        0.080      343.037       18.864      859.464
06/20/2013  20:25:00     -205.755      -60.080       11.477      143.330      108.949       64.223    20543.404    11869.896     4124.625        4.130        1.827      214.347       63.311        0.087      343.005       18.808      859.465
06/20/2013  20:26:00     -297.905     -152.062      -24.626      159.249      118.486       69.824    25360.116    14038.900     4875.348        7.837        2.214      334.470       77.615        0.054      343.029       18.850      859.464
06/20/2013  20:27:00     -383.382      -86.439      -29.726      138.748      130.433       53.106    19250.955    17012.860     2820.298        9.720        1.954      393.005       49.383        0.016      343.027       18.845      859.461
06/20/2013  20:28:00     -208.456        7.663       -1.939       97.433       87.450       55.724     9493.286     7647.492     3105.118        3.188        1.012      208.597       53.866        0.067      342.941       18.699      859.472
06/20/2013  20:29:00     -240.317      -25.913      -10.308      141.800       97.822       64.083    20107.297     9569.064     4106.574        4.615        1.689      241.710       62.436        0.067      342.952       18.719      859.453
06/20/2013  20:30:00     -534.338     -107.214      -17.017      162.783      179.766       88.928    26498.174    32315.877     7908.124       18.200        3.336      544.988       85.791        0.025      342.924       18.671      859.445
06/20/2013  20:31:00     -520.481      -39.480      -22.143      230.437      130.102       87.921    53101.397    16926.530     7730.152       17.534        3.888      521.977      113.127        0.047      342.901       18.633      859.442
06/20/2013  20:32:00     -530.930      -94.901      -26.348      210.750      151.313       84.500    44415.401    22895.566     7140.168       18.300        3.723      539.345      102.219        0.036      342.897       18.624      859.434
06/20/2013  20:33:00     -350.049      -88.764       -1.774      192.122      165.998       72.306    36910.771    27555.295     5228.180       10.004        3.485      361.127       80.218        0.049      342.891       18.615      859.437
06/20/2013  20:34:00     -329.018      -36.149      -17.219      199.086      146.575       68.720    39635.041    21484.172     4722.462        8.784        3.292      330.998       75.178        0.052      342.852       18.550      859.457
06/20/2013  20:35:00     -579.960       -6.951      -44.134      200.849      158.203       78.852    40340.226    25028.209     6217.652       20.495        3.579      580.001       95.843        0.027      342.882       18.599      859.450
06/20/2013  20:36:00     -403.286      -51.698       -4.119      216.106      146.603       76.902    46701.623    21492.581     5913.852       11.970        3.705      406.586       85.794        0.045      342.836       18.522      859.461
06/20/2013  20:37:00     -433.082     -111.968      -37.356      180.690      150.178       82.520    32649.051    22553.415     6809.499       13.174        3.101      447.322       85.258        0.036      342.867       18.572      859.453
06/20/2013  20:38:00     -203.050      -56.696       11.708      102.831       86.384       58.480    10574.131     7462.208     3419.965        3.301        1.073      210.817       59.459        0.080      342.803       18.466      859.485
06/20/2013  20:39:00     -239.087      -52.459       -7.903      153.037       95.800       67.535    23420.237     9177.679     4560.968        4.856        1.858      244.774       78.415        0.103      342.807       18.471      859.486
06/20/2013  20:40:00     -161.483      -60.766        1.435      130.333       97.121       49.401    16986.753     9432.424     2440.433        2.931        1.443      172.538       56.377        0.107      342.761       18.395      859.499
06/20/2013  20:41:00     -226.974      -49.801       -1.430      134.217       82.337       64.164    18014.249     6779.446     4117.029        4.145        1.446      232.373       56.520        0.059      342.790       18.443      859.494
06/20/2013  20:42:00     -337.904      -44.239      -27.321      211.552      133.742       67.928    44754.218    17886.807     4614.241        9.206        3.363      340.788       71.901        0.045      342.778       18.421      859.485
06/20/2013  20:43:00     -273.271      -31.458       -1.492      197.578      111.315       76.999    39037.257    12391.071     5928.884        6.650        2.868      275.076       94.018        0.117      342.728       18.338      859.497
06/20/2013  20:44:00     -250.255     -125.264        2.573      200.266      125.195       72.907    40106.551    15673.875     5315.385        6.970        3.055      279.854       90.479        0.105      342.758       18.388      859.506
06/20/2013  20:45:00     -297.602       19.163       -8.037      126.438      109.415       60.223    15986.457    11971.677     3626.797        6.029        1.579      298.219       63.522        0.045      342.715       18.316      859.519
06/20/2013  20:46:00     -123.911      -22.533        1.875      117.150       65.322       51.416    13724.009     4266.905     2643.611        1.825        1.032      125.943       57.136        0.206      342.666       18.234      859.519
06/20/2013  20:47:00     -163.755       -8.943       -1.104       78.561       79.339       42.639     6171.763     6294.704     1818.119        2.059        0.714      163.999       42.924        0.069      342.679       18.255      859.523
06/20/2013  20:48:00     -286.600        4.292       -7.613      193.721      110.090       62.419    37527.800    12119.889     3896.152        6.787        2.677      286.633       79.243        0.076      342.632       18.173      859.521
06/20/2013  20:49:00     -317.824      -27.859      -11.575      180.189      107.256       61.347    32468.028    11503.928     3763.482        7.482        2.387      319.043       78.418        0.060      342.630       18.172      859.522
06/20/2013  20:50:00     -394.047     -139.784       -3.226      191.886      117.292       83.578    36820.074    13757.334     6985.312       11.618        2.878      418.106       94.569        0.051      342.638       18.183      859.533
06/20/2013  20:51:00     -412.026      -82.247      -27.697      154.422      164.087       79.089    23846.077    26924.508     6255.095       11.715        2.851      420.155       81.982        0.038      342.635       18.179      859.529
06/20/2013  20:52:00     -240.207      -54.219        1.152      164.729       98.394       67.210    27135.503     9681.292     4517.139        5.098        2.067      246.250       74.718        0.092      342.612       18.140      859.547
06/20/2013  20:53:00     -333.402      -82.051        1.200      235.559      127.289       76.068    55488.201    16202.542     5786.359        9.767        3.874      343.350      106.095        0.095      342.566       18.063      859.568
06/20/2013  20:54:00     -443.315     -135.153      -18.598      228.609      142.154       69.279    52261.892    20207.771     4799.637       14.619        3.863      463.459       93.989        0.041      342.585       18.095      859.580
06/20/2013  20:55:00     -283.354      -44.096        0.464      152.262      109.400       61.834    23183.693    11968.363     3823.463        6.060        1.949      286.765       58.510        0.042      342.590       18.104      859.594
06/20/2013  20:56:00     -441.289     -156.884      -16.690      147.648      123.329       63.705    21799.855    15209.935     4058.264       13.034        2.053      468.347       69.269        0.022      342.557       18.048      859.606
06/20/2013  20:57:00     -412.542      -15.270      -22.154      220.630      168.666       85.341    48677.417    28448.143     7283.052       12.765        4.220      412.825      105.635        0.065      342.536       18.013      859.631
06/20/2013  20:58:00     -251.349      -31.255        3.241      160.876      149.613       76.381    25881.045    22383.927     5834.069        5.912        2.705      253.285       86.432        0.116      342.519       17.982      859.639
06/20/2013  20:59:00     -303.571     -158.411        2.646      145.643      140.021       65.969    21211.887    19605.817     4351.917        8.120        2.258      342.417       68.143        0.040      342.506       17.962      859.653
06/20/2013  21:00:00     -531.236       -1.916      -34.520      139.994      182.684       71.653    19598.405    33373.423     5134.091       17.075        2.905      531.240       54.626        0.011      342.499       17.949      859.672
06/20/2013  21:01:00     -491.877      -21.764      -43.298      122.159      134.530       70.031    14922.896    18098.267     4904.378       14.110        1.896      492.358       63.661        0.017      342.493       17.939      859.706
06/20/2013  21:02:00     -333.496      -57.843      -23.530      188.980       93.504       56.226    35713.417     8742.914     3161.377        8.136        2.381      338.475       70.759        0.044      342.455       17.874      859.733
06/20/2013  21:03:00     -533.297      -63.746      -38.405      204.783      112.645       82.656    41936.128    12688.929     6832.096       17.569        3.073      537.093       89.181        0.028      342.447       17.859      859.751
06/20/2013  21:04:00     -309.505     -103.838       -8.838      163.928      139.863       81.215    26872.406    19561.632     6595.900        7.983        2.651      326.460       82.418        0.064      342.453       17.870      859.761
06/20/2013  21:05:00     -304.820      -81.909       -2.730      166.551      122.353       83.238    27739.351    14970.185     6928.503        7.463        2.482      315.633       63.800        0.041      342.444       17.855      859.779
06/20/2013  21:06:00     -473.195      -56.450      -31.865      202.576      135.346       76.346    41037.166    18318.616     5828.772       14.664        3.259      476.551       93.936        0.039      342.427       17.827      859.801
06/20/2013  21:07:00     -493.408      -41.911      -38.873      136.309      145.393       74.377    18580.071    21139.051     5531.977       14.598        2.263      495.185       76.358        0.024      342.413       17.802      859.823
06/20/2013  21:08:00     -398.978      -71.841      -14.662      233.329      146.198       89.173    54442.352    21373.809     7951.792       12.415        4.188      405.394      102.751        0.064      342.405       17.789      859.828
06/20/2013  21:09:00     -343.931     -127.283       -3.231      198.808      155.556       86.789    39524.698    24197.628     7532.303       10.286        3.563      366.728      103.276        0.079      342.388       17.760      859.850
06/20/2013  21:10:00     -343.366     -136.120       -3.969      166.398      171.024       89.257    27688.316    29249.250     7966.842       10.066        3.245      369.363       82.316        0.050      342.395       17.772      859.861
06/20/2013  21:11:00     -327.479      -46.317        2.629      202.253      118.118       70.702    40906.320    13951.751     4998.717        8.461        2.993      330.738       88.391        0.071      342.364       17.718      859.888
06/20/2013  21:12:00     -310.324       25.523      -24.475      130.200      131.150       69.525    16951.966    17200.409     4833.693        6.826        1.949      311.371       49.653        0.025      342.356       17.705      859.900
06/20/2013  21:13:00     -392.989      -40.502      -29.735      187.712      136.616       77.815    35235.773    18663.924     6055.116       10.845        2.998      395.071       83.992        0.045      342.360       17.712      859.916
06/20/2013  21:14:00     -388.365      -99.569      -10.827      164.104      114.031       67.703    26930.066    13003.062     4583.668       10.268        2.226      400.926       76.085        0.036      342.334       17.667      859.943
06/20/2013  21:15:00     -361.565      -95.020      -15.946      122.153      133.299       61.967    14921.261    17768.616     3839.876        8.826        1.826      373.843       50.793        0.018      342.342       17.682      859.947
06/20/2013  21:16:00     -308.919      -58.474       -4.944      201.769      183.304       93.853    40710.607    33600.457     8808.328        9.098        4.156      314.404      100.051        0.101      342.315       17.637      859.932
06/20/2013  21:17:00     -412.070     -106.822      -25.743      153.474      128.700       63.112    23554.185    16563.769     3983.075       11.298        2.205      425.691       62.487        0.022      342.325       17.653      859.950
06/20/2013  21:18:00     -327.241      -69.552      -10.322      142.845      122.389       65.973    20404.802    14979.062     4352.501        7.588        1.987      334.550       60.150        0.032      342.308       17.624      859.961
06/20/2013  21:19:00     -399.250     -108.189      -12.366      192.743      151.832       81.550    37149.732    23052.965     6650.362       11.904        3.343      413.649       91.457        0.049      342.294       17.600      859.988
06/20/2013  21:20:00     -493.360      -82.298      -35.637      221.682      154.681       86.456    49143.119    23926.301     7474.642       16.598        4.027      500.177       82.479        0.027      342.285       17.585      859.990
06/20/2013  21:21:00     -308.709      -86.946      -11.555      181.818       95.060       79.236    33057.882     9036.421     6278.399        7.567        2.419      320.719       95.304        0.088      342.283       17.581      860.010
06/20/2013  21:22:00     -365.790      -79.225        2.096      250.222      110.038       75.372    62611.029    12108.364     5680.935       11.023        4.020      374.271      105.592        0.080      342.265       17.551      860.026
06/20/2013  21:23:00     -437.095     -118.212      -14.125      167.850      148.630       85.976    28173.716    22090.950     7391.927       13.143        2.883      452.798       85.968        0.036      342.252       17.528      860.042
06/20/2013  21:24:00     -441.285      -60.978      -27.584      146.251      125.700       60.483    21389.267    15800.401     3658.163       12.002        2.042      445.478       59.953        0.018      342.249       17.523      860.057
06/20/2013  21:25:00     -229.843      -96.238       -1.824      206.336      181.479       72.001    42574.630    32934.703     5184.175        7.138        4.035      249.178       89.269        0.128      342.195       17.432      860.056
06/20/2013  21:26:00     -342.107     -128.400      -13.408      198.845      121.658       66.328    39539.518    14800.697     4399.440        9.621        2.937      365.410       79.531        0.047      342.198       17.437      860.084
06/20/2013  21:27:00     -366.340      -67.037      -15.431      176.990      136.653       79.408    31325.554    18673.972     6305.654        9.761        2.815      372.423       78.338        0.044      342.165       17.381      860.083
06/20/2013  21:28:00     -387.693      -95.362      -12.710      135.584      147.471       72.893    18383.094    21747.728     5313.364       10.249        2.272      399.249       67.903        0.029      342.144       17.345      860.084
06/20/2013  21:29:00     -399.007      -53.614      -13.402      150.066       94.394       63.057    22519.776     8910.191     3976.142        9.883        1.770      402.592       69.411        0.030      342.130       17.322      860.110
06/20/2013  21:30:00     -471.941     -106.036      -25.469      207.784      141.361       88.477    43174.203    19982.972     7828.150       15.279        3.549      483.706       88.649        0.034      342.124       17.311      860.095
06/20/2013  21:31:00     -337.454      -81.103      -12.856      223.042      171.638       89.333    49747.804    29459.654     7980.383       10.389        4.359      347.063      109.036        0.099      342.113       17.292      860.103
06/20/2013  21:32:00     -424.956      -90.037       -6.619      201.474      117.652       73.175    40591.814    13842.073     5354.577       12.425        2.989      434.390       76.249        0.031      342.093       17.259      860.120
06/20/2013  21:33:00     -388.777      -58.614      -34.259      119.105      134.756       68.768    14186.069    18159.089     4729.041        9.641        1.854      393.171       56.339        0.021      342.106       17.280      860.143
06/20/2013  21:34:00     -264.557      -63.484      -15.664      171.629      150.923       66.331    29456.404    22777.868     4399.819        6.544        2.832      272.068       65.752        0.058      342.080       17.236      860.140
06/20/2013  21:35:00     -309.104      -32.333      -19.416      188.050       90.432       71.892    35362.777     8177.885     5168.530        7.283        2.435      310.790       79.353        0.065      342.067       17.214      860.154
06/20/2013  21:36:00     -299.020       17.345       -6.139      217.279      128.912       95.178    47210.158    16618.206     9058.818        8.130        3.644      299.522      122.998        0.169      342.022       17.137      860.151
06/20/2013  21:37:00     -331.198     -100.452      -10.908      162.141      131.289       64.357    26289.834    17236.899     4141.800        8.378        2.383      346.097       65.259        0.036      342.051       17.186      860.180
06/20/2013  21:38:00     -450.159      -49.456      -18.618      194.919      148.372       69.165    37993.260    22014.355     4783.807       13.510        3.240      452.868       70.807        0.024      342.046       17.178      860.206
06/20/2013  21:39:00     -322.994      -11.333        0.773      163.899      133.884       64.992    26862.859    17924.942     4223.971        7.672        2.451      323.193       61.307        0.036      342.028       17.148      860.231
06/20/2013  21:40:00     -393.892      -55.019      -27.621      215.714      137.938       82.219    46532.591    19026.902     6760.041       11.562        3.616      397.716      106.457        0.072      342.001       17.101      860.242
06/20/2013  21:41:00     -455.773     -138.679      -16.581      208.331      159.692       92.835    43401.723    25501.506     8618.346       15.236        3.876      476.404       99.033        0.043      341.988       17.079      860.243
06/20/2013  21:42:00     -552.292     -107.301      -29.988      231.747      191.299       82.086    53706.898    36595.492     6738.064       20.722        4.852      562.619       89.601        0.025      341.988       17.078      860.259
06/20/2013  21:43:00     -403.237     -110.878       -7.691      199.967      142.529       85.264    39986.603    20314.576     7269.941       12.125        3.379      418.204       98.260        0.055      341.988       17.079      860.295
06/20/2013  21:44:00     -362.746      -76.754      -12.810      236.450      149.217       79.945    55908.523    22265.849     6391.212       11.109        4.228      370.777      101.486        0.075      341.961       17.035      860.307
06/20/2013  21:45:00     -487.067     -101.951      -21.184      179.358      160.498       88.820    32169.429    25759.642     7888.919       15.693        3.291      497.623       84.984        0.029      341.951       17.017      860.328
06/20/2013  21:46:00     -290.687      -66.199        4.174      167.535      138.221       86.303    28067.818    19105.140     7448.290        7.175        2.731      298.130       94.824        0.101      341.935       16.990      860.351
06/20/2013  21:47:00     -478.541     -163.631      -36.798      163.135      145.919       72.489    26613.179    21292.477     5254.675       15.514        2.658      505.744       66.606        0.017      341.931       16.982      860.347
06/20/2013  21:48:00     -425.101     -140.991      -16.146      159.423      148.925       73.301    25415.590    22178.564     5373.104       12.690        2.648      447.872       74.137        0.027      341.920       16.964      860.396
06/20/2013  21:49:00     -448.608      -34.284      -25.533      212.347      138.318       72.955    45091.211    19131.848     5322.435       13.630        3.477      449.916       95.498        0.045      341.902       16.932      860.423
06/20/2013  21:50:00     -398.299      -95.208      -30.040      220.478      136.960       74.350    48610.746    18758.171     5527.993       12.074        3.645      409.520       92.227        0.051      341.874       16.886      860.422
06/20/2013  21:51:00     -356.195      -51.930      -13.767      157.058      136.937       78.208    24667.334    18751.679     6116.419        8.964        2.477      359.961       79.384        0.049      341.869       16.878      860.446
06/20/2013  21:52:00     -477.491     -104.803      -30.258      177.104      137.985       78.399    31365.788    19039.816     6146.470       14.821        2.828      488.858       89.987        0.034      341.853       16.850      860.467
06/20/2013  21:53:00     -430.135     -142.048      -20.021      181.699      135.865       73.875    33014.592    18459.261     5457.568       13.125        2.847      452.983       84.264        0.035      341.848       16.842      860.478
06/20/2013  21:54:00     -395.667      -93.106      -17.997      196.348      151.132       83.054    38552.503    22840.827     6897.890       11.690        3.415      406.474       89.599        0.049      341.817       16.789      860.525
06/20/2013  21:55:00     -530.081      -85.023      -15.399      226.214      158.190       83.721    51172.785    25024.057     7009.248       18.581        4.160      536.857       95.034        0.031      341.821       16.795      860.522
06/20/2013  21:56:00     -426.010      -98.591      -10.772      190.257      167.701       88.139    36197.618    28123.739     7768.562       13.169        3.604      437.270      100.256        0.053      341.802       16.764      860.548
06/20/2013  21:57:00     -472.987      -47.834      -19.197      225.855      157.797       85.593    51010.473    24900.028     7326.182       15.479        4.162      475.399      103.242        0.047      341.803       16.766      860.566
06/20/2013  21:58:00     -429.526      -64.115      -14.969      203.972      139.549       88.044    41604.714    19473.999     7751.805       12.882        3.442      434.285      109.094        0.063      341.800       16.761      860.584
06/20/2013  21:59:00     -380.028      -29.696      -21.042      162.711      166.972       67.472    26474.718    27879.647     4552.503       10.231        2.945      381.187       67.672        0.032      341.780       16.725      860.621
06/20/2013  22:00:00     -392.028     -123.262      -19.227      203.397      166.113       85.001    41370.197    27593.542     7225.251       12.270        3.809      410.949       91.939        0.050      341.777       16.721      860.604
06/20/2013  22:01:00     -393.727     -107.310      -13.759      206.150      138.443       75.941    42497.766    19166.500     5767.081       11.707        3.372      408.089       81.766        0.040      341.764       16.698      860.610
06/20/2013  22:02:00     -474.065      -52.929      -42.783      181.262      124.904       74.750    32855.807    15600.935     5587.579       14.170        2.702      477.010       82.028        0.030      341.758       16.689      860.624
06/20/2013  22:03:00     -316.185      -96.200      -11.682      131.841      125.069       55.512    17382.091    15642.267     3081.539        7.273        1.805      330.496       51.964        0.025      341.742       16.662      860.630
06/20/2013  22:04:00     -279.662      -65.137      -13.518      154.098      119.138       59.433    23746.150    14193.835     3532.240        6.205        2.074      287.148       66.746        0.054      341.730       16.643      860.641
06/20/2013  22:05:00     -343.662      -80.147      -32.433      167.243      118.946       78.181    27970.201    14148.071     6112.260        8.690        2.412      352.884       86.524        0.060      341.750       16.674      860.653
06/20/2013  22:06:00     -525.977     -142.010      -35.662      145.095      132.673       70.591    21052.675    17602.014     4983.127       17.086        2.182      544.810       64.350        0.014      341.738       16.655      860.670
06/20/2013  22:07:00     -426.799     -108.485      -10.268      165.453      112.307       70.631    27374.654    12612.958     4988.787       11.950        2.249      440.371       79.524        0.033      341.707       16.601      860.687
06/20/2013  22:08:00     -431.546      -98.063      -19.403      207.292      145.070       77.174    42969.875    21045.350     5955.878       13.308        3.499      442.548       89.512        0.041      341.706       16.604      860.709
06/20/2013  22:09:00     -436.406     -109.205      -23.301      182.432      107.822       59.948    33281.311    11625.615     3593.728       12.570        2.425      449.862       61.953        0.019      341.708       16.604      860.704
06/20/2013  22:10:00     -343.745      -36.939      -22.450      152.666      108.664       69.426    23306.819    11807.923     4820.030        7.997        1.997      345.724       76.003        0.048      341.666       16.535      860.727
06/20/2013  22:11:00     -294.286     -110.219        3.830      180.671      142.935       75.296    32642.190    20430.300     5669.557        7.874        2.937      314.249       88.663        0.080      341.648       16.504      860.736
06/20/2013  22:12:00     -457.723      -55.329      -16.830      205.687      118.758       69.714    42307.074    14103.527     4860.082       13.705        3.064      461.055       76.031        0.027      341.678       16.555      860.732
06/20/2013  22:13:00     -357.620     -121.582      -11.474      196.082      114.169       74.010    38447.956    13034.602     5477.545        9.987        2.848      377.722       71.179        0.036      341.680       16.558      860.727
06/20/2013  22:14:00     -322.120      -18.802      -15.632      153.438      141.183       69.365    23543.207    19932.562     4811.548        7.631        2.414      322.668       80.067        0.062      341.676       16.550      860.747
06/20/2013  22:15:00     -448.543     -102.930      -10.523      188.703      159.492       93.769    35608.657    25437.792     8792.566       14.085        3.492      460.201      107.235        0.054      341.673       16.546      860.745
06/20/2013  22:16:00     -363.334      -59.033      -12.144      213.414      124.128       78.581    45545.694    15407.883     6174.923       10.137        3.356      368.098      101.728        0.076      341.683       16.562      860.760
06/20/2013  22:17:00     -418.309      -18.894      -23.431      138.631      133.695       77.305    19218.555    17874.258     5976.077       10.947        2.153      418.736       71.559        0.029      341.713       16.614      860.761
06/20/2013  22:18:00     -543.483      -24.127      -30.453      197.435      148.705       86.214    38980.463    22113.263     7432.910       18.269        3.426      544.018       97.696        0.032      341.728       16.637      860.762
06/20/2013  22:19:00     -426.722      -55.156      -38.237      199.710      142.203       84.746    39884.014    20221.819     7181.802       12.693        3.364      430.272       88.675        0.042      341.724       16.633      860.746
06/20/2013  22:20:00     -272.364     -133.987        3.025      172.328      169.151       69.402    29697.069    28612.186     4816.650        7.762        3.156      303.537       88.581        0.085      341.710       16.610      860.757
06/20/2013  22:21:00     -393.223      -90.784      -43.414      161.733      122.605       82.972    26157.658    15031.919     6884.365       10.640        2.404      403.567       79.582        0.039      341.737       16.653      860.754
06/20/2013  22:22:00     -484.565      -85.421      -27.827      193.383      126.710       81.638    37396.870    16055.405     6664.759       15.148        3.006      492.036       82.913        0.028      341.725       16.633      860.782
06/20/2013  22:23:00     -319.120      -39.609      -12.355      184.584      132.017       82.406    34071.267    17428.368     6790.809        8.091        2.915      321.569       93.681        0.085      341.697       16.585      860.782
06/20/2013  22:24:00     -568.048       -2.048      -30.511      170.293      142.674       89.094    28999.682    20355.753     7937.752       19.044        2.865      568.052       86.600        0.023      341.748       16.671      860.795
06/20/2013  22:25:00     -308.629     -193.527      -15.996      141.185      122.140       73.506    19933.187    14918.093     5403.205        8.660        2.013      364.286       73.054        0.040      341.757       16.687      860.802
06/20/2013  22:26:00     -392.955     -104.910      -23.221      228.854      127.715       77.954    52374.260    16311.184     6076.870       12.035        3.738      406.718       86.509        0.045      341.732       16.645      860.822
06/20/2013  22:27:00     -318.706      -95.499      -17.518      191.193      135.273       90.872    36554.655    18298.808     8257.663        8.704        3.156      332.707      100.668        0.092      341.703       16.597      860.838
06/20/2013  22:28:00     -414.970     -102.843      -17.293      119.652      146.906       76.285    14316.622    21581.307     5819.400       11.239        2.086      427.524       64.939        0.023      341.705       16.600      860.842
06/20/2013  22:29:00     -377.796      -74.810      -20.251      132.457      144.063       72.011    17544.789    20754.180     5185.563        9.610        2.174      385.132       66.981        0.030      341.683       16.564      860.858
06/20/2013  22:30:00     -322.429      -89.595       -6.429      152.934      141.163       73.271    23388.660    19926.964     5368.680        8.035        2.434      334.646       64.043        0.037      341.676       16.552      860.860
06/20/2013  22:31:00     -557.400      -77.007      -23.451      219.395      138.675       97.048    48134.303    19230.646     9418.310       19.696        3.839      562.694      114.516        0.041      341.699       16.589      860.866
06/20/2013  22:32:00     -438.601      -11.481      -13.060      251.383      138.256       94.807    63193.502    19114.691     8988.304       14.197        4.565      438.751      114.075        0.068      341.689       16.574      860.871
06/20/2013  22:33:00     -445.326      -24.417      -17.649      287.789      167.164       90.681    82822.525    27943.746     8222.984       15.908        5.949      445.995      125.420        0.079      341.696       16.586      860.858
06/20/2013  22:34:00     -560.062      -78.664      -41.567      218.567      166.557       84.615    47771.719    27741.354     7159.649       20.211        4.134      565.560       96.833        0.029      341.707       16.603      860.845
06/20/2013  22:35:00     -493.845      -96.241      -44.812      180.987      159.583       75.293    32756.158    25466.714     5668.983       15.951        3.195      503.136       82.280        0.027      341.698       16.587      860.866
06/20/2013  22:36:00     -425.297      -72.800       -6.397      241.615      168.512       83.267    58378.047    28396.423     6933.467       13.994        4.685      431.482       98.837        0.052      341.678       16.556      860.846
06/20/2013  22:37:00     -268.938      -57.326        8.485      221.486      139.987       78.004    49056.138    19596.235     6084.697        7.520        3.737      274.980       90.767        0.109      341.638       16.486      860.833
06/20/2013  22:38:00     -466.991      -49.311       -8.022      200.198      131.565       98.357    40079.179    17309.434     9674.134       14.381        3.353      469.587      106.476        0.051      341.647       16.503      860.844
06/20/2013  22:39:00     -404.603     -107.373      -24.665      199.641      189.089       83.712    39856.643    35754.517     7007.717       12.921        4.131      418.608       83.696        0.040      341.661       16.525      860.828
06/20/2013  22:40:00     -384.727       -8.395      -16.730      170.713      145.641       70.523    29142.881    21211.411     4973.481       10.184        2.766      384.819       68.217        0.031      341.627       16.468      860.809
06/20/2013  22:41:00     -280.231      -77.515       17.296      213.421      170.950       93.826    45548.384    29223.967     8803.402        8.419        4.179      290.754      105.261        0.131      341.617       16.453      860.813
06/20/2013  22:42:00     -264.976      -23.859        7.442      167.516      133.339       76.595    28061.700    17779.230     5866.865        6.126        2.585      266.048       95.521        0.129      341.595       16.415      860.815
06/20/2013  22:43:00     -306.182      -59.051       -5.982      164.643      117.437       69.168    27107.251    13791.359     4784.170        7.147        2.284      311.824       80.530        0.067      341.589       16.403      860.824
06/20/2013  22:44:00     -325.511     -113.527      -14.506      171.466      124.484       60.238    29400.555    15496.374     3628.628        8.378        2.426      344.740       67.740        0.039      341.591       16.405      860.795
06/20/2013  22:45:00     -449.395      -52.657      -18.898      223.253      137.804       82.831    49841.746    18989.965     6860.952       14.037        3.785      452.469       94.613        0.044      341.594       16.411      860.791
06/20/2013  22:46:00     -378.200      -75.801        1.376      216.316      149.408       91.803    46792.724    22322.771     8427.864       11.315        3.877      385.722       94.083        0.059      341.599       16.420      860.800
06/20/2013  22:47:00     -375.405     -147.796       -8.071      235.952      150.837       80.832    55673.199    22751.841     6533.744       12.388        4.248      403.451       94.702        0.055      341.580       16.387      860.807
06/20/2013  22:48:00     -201.629      -49.089       -0.809      181.298      113.867       84.391    32868.937    12965.748     7121.832        4.800        2.648      207.519       93.785        0.204      341.598       16.418      860.797
06/20/2013  22:49:00     -297.077      -63.136        0.105      142.544      113.389       69.032    20318.693    12857.006     4765.425        6.508        1.897      303.712       69.845        0.053      341.563       16.359      860.829
06/20/2013  22:50:00     -326.858      -72.776       -1.444      197.373      128.358       83.455    38956.112    16475.710     6964.659        8.725        3.120      334.861       99.019        0.087      341.573       16.375      860.830
06/20/2013  22:51:00     -442.103      -89.430      -30.944      133.151      110.773       65.772    17729.157    12270.589     4325.929       11.936        1.716      451.057       56.865        0.016      341.562       16.356      860.835
06/20/2013  22:52:00     -398.958     -122.633      -21.760      184.173      112.452       72.791    33919.674    12645.395     5298.467       11.326        2.593      417.381       86.095        0.043      341.562       16.360      860.840
06/20/2013  22:53:00     -312.170     -100.655       -8.294      137.676      131.584       59.613    18954.580    17314.306     3553.760        7.373        1.991      327.997       56.816        0.030      341.545       16.330      860.860
06/20/2013  22:54:00     -314.640     -128.169       -8.386      152.667      157.802       67.989    23307.208    24901.336     4622.445        8.415        2.642      339.744       67.161        0.039      341.533       16.308      860.871
06/20/2013  22:55:00     -289.327        0.858      -17.938      111.881       91.144       61.055    12517.359     8307.299     3727.774        5.429        1.228      289.329       47.548        0.027      341.526       16.296      860.888
06/20/2013  22:56:00     -346.278     -143.901      -33.792      213.816      162.730       84.706    45717.247    26481.104     7175.163       11.055        3.969      374.988       91.220        0.059      341.548       16.333      860.895
06/20/2013  22:57:00     -242.084       -4.802        4.356      203.856       94.613       62.989    41557.321     8951.672     3967.627        5.655        2.724      242.132       78.551        0.105      341.525       16.295      860.914
06/20/2013  22:58:00     -189.468     -107.360       12.702      152.369      135.758       69.240    23216.189    18430.291     4794.206        4.700        2.322      217.771       76.259        0.123      341.525       16.294      860.919
06/20/2013  22:59:00     -236.184     -171.020      -11.892      160.180      138.622       64.505    25657.535    19216.008     4160.883        6.709        2.452      291.601       72.239        0.061      341.579       16.387      860.934
06/20/2013  23:00:00     -132.448       -8.623        1.036       99.045       64.842       44.001     9809.901     4204.447     1936.054        1.678        0.798      132.729       32.931        0.062      341.538       16.318      860.964
06/20/2013  23:01:00     -239.093     -109.995       -4.770      114.718       97.629       54.502    13160.285     9531.338     2970.469        4.747        1.283      263.181       56.006        0.045      341.545       16.330      860.983
06/20/2013  23:02:00     -279.376      -57.591      -10.592      148.972      129.105       63.958    22192.749    16668.075     4090.624        6.221        2.148      285.250       72.081        0.064      341.548       16.335      860.989
06/20/2013  23:03:00     -165.977       -0.411       -0.752      112.345       63.502       45.351    12621.364     4032.449     2056.719        2.313        0.936      165.978       49.783        0.090      341.546       16.331      861.005
06/20/2013  23:04:00     -243.589      -61.803      -12.005      128.009      140.705       72.598    16386.377    19797.848     5270.533        5.237        2.073      251.307       63.582        0.064      341.539       16.318      861.027
06/20/2013  23:05:00     -157.396      -77.904       -8.725       71.913       95.706       49.509     5171.490     9159.608     2451.179        2.385        0.839      175.620       40.042        0.052      341.522       16.290      861.043
06/20/2013  23:06:00     -325.015       16.902      -23.841      143.078      102.147       58.462    20471.297    10434.031     3417.767        7.040        1.716      325.454       62.967        0.037      341.507       16.264      861.082
06/20/2013  23:07:00     -188.776      -50.928        5.966      111.141       80.476       55.465    12352.329     6476.352     3076.355        3.008        1.095      195.525       63.378        0.105      341.486       16.229      861.096
06/20/2013  23:08:00     -221.903      -42.314       -4.582       84.077       84.557       41.106     7069.013     7149.876     1689.721        3.348        0.795      225.901       41.542        0.034      341.490       16.235      861.128
06/20/2013  23:09:00     -291.163      -64.986      -18.043      110.470       83.105       53.272    12203.557     6906.507     2837.954        5.563        1.097      298.327       49.059        0.027      341.524       16.294      861.154
06/20/2013  23:10:00     -141.060      -75.463       -4.004       85.186       70.133       39.987     7256.685     4918.696     1598.946        1.969        0.689      159.977       41.130        0.066      341.478       16.217      861.170
06/20/2013  23:11:00     -184.011       31.690      -13.079       86.940       69.317       32.878     7558.601     4804.789     1080.955        2.424        0.672      186.720       36.119        0.037      341.467       16.198      861.195
06/20/2013  23:12:00     -240.951        2.215      -31.676       76.663       53.077       38.315     5877.174     2817.125     1468.017        3.461        0.508      240.961       38.866        0.026      341.474       16.208      861.227
06/20/2013  23:13:00     -141.651       32.500      -11.974       46.669       54.206       21.986     2177.957     2938.291      483.400        1.343        0.280      145.331       16.228        0.012      341.472       16.206      861.251
06/20/2013  23:14:00      -77.227      -24.300        2.497       66.565       30.243       27.872     4430.926      914.643      776.845        0.634        0.306       80.960       36.239        0.200      341.405       16.095      861.280
06/20/2013  23:15:00      -61.015       -7.900        3.560       59.428       46.309       26.175     3531.659     2144.533      685.123        0.508        0.318       61.525       23.359        0.144      341.403       16.092      861.317
06/20/2013  23:16:00     -219.341       54.305      -11.373      135.993      102.978       52.634    18494.161    10604.439     2770.320        4.152        1.593      225.963       52.104        0.053      341.446       16.162      861.337
06/20/2013  23:17:00     -281.583       58.087      -26.550      111.378       67.620       50.137    12405.054     4572.521     2513.769        5.143        0.975      287.512       54.858        0.036      341.413       16.104      861.370
06/20/2013  23:18:00     -254.967      -23.673      -17.399      107.754       95.132       50.687    11610.845     9050.107     2569.158        4.455        1.162      256.063       49.220        0.037      341.449       16.166      861.385
06/20/2013  23:19:00     -305.291        4.018      -23.184       95.276       66.924       46.463     9077.449     4478.819     2158.801        5.473        0.786      305.317       44.952        0.022      341.434       16.140      861.402
06/20/2013  23:20:00     -180.583      -35.758      -15.769       51.829       55.764       29.883     2686.289     3109.660      892.994        2.041        0.334      184.089       19.496        0.011      341.457       16.181      861.404
06/20/2013  23:21:00     -340.489      -62.696      -24.182       95.410       78.440       49.389     9103.083     6152.910     2439.296        6.907        0.885      346.213       49.984        0.021      341.470       16.200      861.412
06/20/2013  23:22:00     -252.059      -86.374      -10.811       91.958       64.074       45.628     8456.246     4105.437     2081.883        4.287        0.732      266.447       54.336        0.042      341.435       16.142      861.412
06/20/2013  23:23:00     -178.065      -39.585        3.161       91.061       63.939       43.390     8292.031     4088.232     1882.725        2.377        0.713      182.412       39.909        0.048      341.409       16.099      861.423
06/20/2013  23:24:00     -191.349      -51.553      -31.067       68.094       73.784       44.997     4636.855     5444.069     2024.699        2.617        0.605      198.172       24.895        0.016      341.498       16.250      861.430
06/20/2013  23:25:00     -281.353       71.067      -15.812      106.350       80.939       49.770    11310.266     6551.145     2477.031        5.240        1.017      290.189       54.865        0.036      341.491       16.236      861.432
06/20/2013  23:26:00     -205.967       33.603      -23.081       70.181       68.248       37.825     4925.407     4657.767     1430.706        2.755        0.551      208.690       24.265        0.014      341.424       16.124      861.453
06/20/2013  23:27:00     -192.696      -51.701      -21.811       81.640       67.392       43.544     6665.090     4541.614     1896.054        2.669        0.655      199.511       35.381        0.031      341.467       16.197      861.470
06/20/2013  23:28:00     -330.357       -7.961      -30.537       93.021       68.964       45.555     8652.961     4756.083     2075.302        6.280        0.774      330.453       50.494        0.023      341.465       16.193      861.481
06/20/2013  23:29:00     -199.350       23.985      -20.114       63.782       56.863       31.953     4068.165     3233.359     1020.978        2.452        0.416      200.788       23.621        0.014      341.487       16.231      861.489
06/20/2013  23:30:00     -161.212      -15.714      -24.957       53.700       42.277       26.827     2883.710     1787.317      719.676        1.612        0.270      161.976       23.650        0.021      341.469       16.201      861.505
06/20/2013  23:31:00     -207.378      -36.003      -14.639       86.459       52.389       31.532     7475.099     2744.651      994.287        2.786        0.561      210.480       31.174        0.022      341.424       16.124      861.508
06/20/2013  23:32:00     -109.989      -21.068        1.176       85.579       57.618       38.081     7323.841     3319.885     1450.186        1.232        0.605      111.989       42.370        0.143      341.379       16.049      861.509
06/20/2013  23:33:00     -122.280        5.730      -11.642       61.389       83.420       34.089     3768.612     6958.853     1162.026        1.350        0.594      122.414       31.413        0.066      341.350       16.000      861.517
06/20/2013  23:34:00      -93.102      -11.315       -4.251       68.869       66.068       35.949     4742.998     4364.975     1292.306        0.961        0.520       93.788       43.123        0.211      341.351       16.004      861.525
06/20/2013  23:35:00     -120.203      -35.876       -2.594       44.033       44.870       31.582     1938.923     2013.280      997.414        1.035        0.247      125.442       25.537        0.041      341.342       15.988      861.515
06/20/2013  23:36:00     -132.590      -11.944       -6.553       37.158       36.899       25.566     1380.680     1361.503      653.637        1.058        0.170      133.127       21.804        0.027      341.308       15.932      861.534
06/20/2013  23:37:00     -231.840       -2.721      -18.463       83.119       79.474       33.126     6908.753     6316.039     1097.324        3.421        0.716      231.856       21.272        0.008      341.380       16.050      861.544
06/20/2013  23:38:00     -255.664      -56.419      -18.162       83.506       73.289       42.128     6973.247     5371.303     1774.792        4.150        0.706      261.815       43.472        0.028      341.357       16.010      861.540
06/20/2013  23:39:00     -224.476      -42.409      -12.604       45.526       71.313       31.605     2072.602     5085.523      998.854        3.025        0.408      228.447       24.961        0.012      341.311       15.931      861.559
06/20/2013  23:40:00     -158.786      -51.067       -6.030       50.675       48.922       32.764     2567.913     2393.405     1073.495        1.694        0.302      166.796       28.840        0.030      341.240       15.814      861.564
06/20/2013  23:41:00      -97.499      -15.422        9.933       61.063       50.718       38.859     3728.696     2572.364     1509.996        0.883        0.391       98.711       35.622        0.130      341.259       15.848      861.564
06/20/2013  23:42:00      -89.215       -0.941       -0.129       52.772       58.242       32.262     2784.904     3392.092     1040.869        0.759        0.361       89.220       27.750        0.097      341.254       15.839      861.565
06/20/2013  23:43:00     -140.372      -21.562      -15.337       98.237       54.699       26.369     9650.438     2991.980      695.309        1.687        0.667      142.018       23.758        0.028      341.270       15.864      861.571
06/20/2013  23:44:00     -147.893      -23.433       -3.954      132.811       90.176       56.053    17638.883     8131.719     3141.977        2.567        1.446      149.738       52.766        0.124      341.289       15.898      861.568
06/20/2013  23:45:00     -319.106     -125.947      -16.736       88.152       99.630       58.357     7770.702     9926.187     3405.523        6.953        1.055      343.061       50.501        0.022      341.330       15.963      861.565
06/20/2013  23:46:00     -326.901      -25.597      -31.791       75.855       46.597       37.511     5754.029     2171.276     1407.068        5.893        0.467      327.902       27.565        0.007      341.327       15.957      861.588
06/20/2013  23:47:00     -265.836        9.744      -17.776      101.214       87.581       46.419    10244.289     7670.426     2154.730        4.557        1.003      266.015       49.608        0.035      341.325       15.955      861.607
06/20/2013  23:48:00     -208.530       11.962      -20.490       90.909       47.897       33.033     8264.387     2294.108     1091.162        2.785        0.582      208.873       37.361        0.032      341.284       15.889      861.618
06/20/2013  23:49:00     -173.636        2.423      -14.276       67.661       47.395       33.115     4577.988     2246.298     1096.614        1.914        0.396      173.653       35.389        0.042      341.225       15.789      861.624
06/20/2013  23:50:00     -193.878      -13.748       -9.476       78.441       75.293       33.207     6153.047     5669.016     1102.690        2.539        0.646      194.365       32.253        0.028      341.225       15.787      861.626
06/20/2013  23:51:00     -154.803      -33.407      -15.385       60.918       61.507       36.981     3711.004     3783.077     1367.606        1.709        0.443      158.366       35.667        0.051      341.250       15.833      861.623
06/20/2013  23:52:00     -134.051       14.469      -17.196       58.109       37.440       27.478     3376.647     1401.770      755.055        1.200        0.277      134.830       24.826        0.034      341.236       15.808      861.628
06/20/2013  23:53:00     -125.056       55.451      -22.550       73.057       58.249       34.495     5337.324     3392.978     1189.894        1.457        0.496      136.798       41.231        0.091      341.214       15.771      861.627
06/20/2013  23:54:00      -21.122        3.208       15.224       60.135       59.410       36.700     3616.211     3529.494     1346.880        0.459        0.425       21.364       38.051        3.172      341.183       15.720      861.621
06/20/2013  23:55:00      -35.316       10.999        1.645       51.275       35.246       32.230     2629.117     1242.277     1038.795        0.314        0.246       36.989       20.709        0.313      341.067       15.522      861.627
06/20/2013  23:56:00     -112.330      -35.845       -0.400       53.880       43.284       32.063     2903.064     1873.533     1028.033        0.985        0.290      117.911       30.489        0.067      341.129       15.626      861.629
06/20/2013  23:57:00     -121.090      -13.894       -1.108       47.200       34.426       18.277     2227.803     1185.138      334.066        0.930        0.187      121.884       19.166        0.025      341.181       15.715      861.624
06/20/2013  23:58:00      -52.423       51.259        4.253       45.399       46.200       31.963     2061.032     2134.419     1021.615        0.530        0.261       73.319       26.666        0.132      341.026       15.453      861.620
06/20/2013  23:59:00      -40.559      -34.433        6.939       46.758       28.763       26.359     2186.272      827.298      694.814        0.329        0.185       53.204       30.743        0.334      341.028       15.456      861.612
